<?xml version="1.0" encoding="UTF-8"?>
<gpx version="1.1" creator="https://www.youtrack.es" xsi:schemaLocation="http://www.topografix.com/GPX/1/1 http://www.topografix.com/GPX/1/1/gpx.xsd http://www.garmin.com/xmlschemas/GpxExtensions/v3 http://www.garmin.com/xmlschemas/GpxExtensionsv3.xsd http://www.garmin.com/xmlschemas/TrackPointExtension/v1 http://www.garmin.com/xmlschemas/TrackPointExtensionv1.xsd" xmlns:gpxtpx="http://www.garmin.com/xmlschemas/TrackPointExtension/v1" xmlns:gpxx="http://www.garmin.com/xmlschemas/GpxExtensions/v3" xmlns:xsi="http://www.w3.org/2001/XMLSchema-instance">
  <metadata>
    <link href="https://www.youtrack.es">
      <text>YouTrack.es</text>
    </link>
    <time>2026-05-08T12:36:42Z</time>
  </metadata>
  <trk>
    <src>https://www.youtrack.es</src>
    <link href="https://www.youtrack.es/ruta/14541-lag12km">
      <text>YouTrack.es</text>
    </link>
    <trkseg>
      <trkpt lat="13.861512" lon="-89.80471">
        <ele>1466.4736</ele>
        <time>2020-07-26T15:28:51Z</time>
      </trkpt>
      <trkpt lat="13.861511" lon="-89.80471">
        <ele>1465.823</ele>
        <time>2020-07-26T15:28:52Z</time>
      </trkpt>
      <trkpt lat="13.861566" lon="-89.80471">
        <ele>1464.1045</ele>
        <time>2020-07-26T15:28:59Z</time>
      </trkpt>
      <trkpt lat="13.861616" lon="-89.804695">
        <ele>1465.4185</ele>
        <time>2020-07-26T15:29:02Z</time>
      </trkpt>
      <trkpt lat="13.861656" lon="-89.80467">
        <ele>1465.5503</ele>
        <time>2020-07-26T15:29:04Z</time>
      </trkpt>
      <trkpt lat="13.861704" lon="-89.804665">
        <ele>1464.5747</ele>
        <time>2020-07-26T15:29:06Z</time>
      </trkpt>
      <trkpt lat="13.861755" lon="-89.80465">
        <ele>1465.57</ele>
        <time>2020-07-26T15:29:08Z</time>
      </trkpt>
      <trkpt lat="13.86181" lon="-89.80463">
        <ele>1466.0593</ele>
        <time>2020-07-26T15:29:10Z</time>
      </trkpt>
      <trkpt lat="13.861862" lon="-89.8046">
        <ele>1467.8287</ele>
        <time>2020-07-26T15:29:12Z</time>
      </trkpt>
      <trkpt lat="13.86189" lon="-89.804596">
        <ele>1467.9548</ele>
        <time>2020-07-26T15:29:13Z</time>
      </trkpt>
      <trkpt lat="13.861915" lon="-89.80459">
        <ele>1468.0795</ele>
        <time>2020-07-26T15:29:14Z</time>
      </trkpt>
      <trkpt lat="13.8619375" lon="-89.80457">
        <ele>1468.2166</ele>
        <time>2020-07-26T15:29:15Z</time>
      </trkpt>
      <trkpt lat="13.861962" lon="-89.804565">
        <ele>1467.3179</ele>
        <time>2020-07-26T15:29:16Z</time>
      </trkpt>
      <trkpt lat="13.862014" lon="-89.80455">
        <ele>1465.3099</ele>
        <time>2020-07-26T15:29:18Z</time>
      </trkpt>
      <trkpt lat="13.862065" lon="-89.80453">
        <ele>1464.6494</ele>
        <time>2020-07-26T15:29:20Z</time>
      </trkpt>
      <trkpt lat="13.862116" lon="-89.8045">
        <ele>1465.17</ele>
        <time>2020-07-26T15:29:22Z</time>
      </trkpt>
      <trkpt lat="13.862163" lon="-89.80447">
        <ele>1466.9019</ele>
        <time>2020-07-26T15:29:24Z</time>
      </trkpt>
      <trkpt lat="13.862211" lon="-89.80444">
        <ele>1464.9496</ele>
        <time>2020-07-26T15:29:25Z</time>
      </trkpt>
      <trkpt lat="13.862261" lon="-89.80442">
        <ele>1465.6753</ele>
        <time>2020-07-26T15:29:28Z</time>
      </trkpt>
      <trkpt lat="13.862306" lon="-89.80438">
        <ele>1465.1024</ele>
        <time>2020-07-26T15:29:30Z</time>
      </trkpt>
      <trkpt lat="13.862355" lon="-89.80435">
        <ele>1464.4354</ele>
        <time>2020-07-26T15:29:32Z</time>
      </trkpt>
      <trkpt lat="13.862406" lon="-89.80432">
        <ele>1462.8607</ele>
        <time>2020-07-26T15:29:34Z</time>
      </trkpt>
      <trkpt lat="13.862453" lon="-89.8043">
        <ele>1462.9802</ele>
        <time>2020-07-26T15:29:36Z</time>
      </trkpt>
      <trkpt lat="13.862491" lon="-89.80426">
        <ele>1463.4801</ele>
        <time>2020-07-26T15:29:38Z</time>
      </trkpt>
      <trkpt lat="13.862528" lon="-89.8042">
        <ele>1466.1923</ele>
        <time>2020-07-26T15:29:40Z</time>
      </trkpt>
      <trkpt lat="13.862551" lon="-89.80415">
        <ele>1465.0383</ele>
        <time>2020-07-26T15:29:43Z</time>
      </trkpt>
      <trkpt lat="13.86258" lon="-89.80411">
        <ele>1464.8064</ele>
        <time>2020-07-26T15:29:45Z</time>
      </trkpt>
      <trkpt lat="13.862614" lon="-89.80407">
        <ele>1464.7991</ele>
        <time>2020-07-26T15:29:47Z</time>
      </trkpt>
      <trkpt lat="13.862635" lon="-89.80402">
        <ele>1465.4224</ele>
        <time>2020-07-26T15:29:49Z</time>
      </trkpt>
      <trkpt lat="13.862673" lon="-89.803986">
        <ele>1464.9855</ele>
        <time>2020-07-26T15:29:51Z</time>
      </trkpt>
      <trkpt lat="13.862723" lon="-89.803955">
        <ele>1465.0261</ele>
        <time>2020-07-26T15:29:53Z</time>
      </trkpt>
      <trkpt lat="13.862779" lon="-89.803894">
        <ele>1464.2972</ele>
        <time>2020-07-26T15:29:55Z</time>
      </trkpt>
      <trkpt lat="13.862846" lon="-89.80383">
        <ele>1463.6661</ele>
        <time>2020-07-26T15:29:58Z</time>
      </trkpt>
      <trkpt lat="13.862902" lon="-89.80378">
        <ele>1464.7977</ele>
        <time>2020-07-26T15:30:01Z</time>
      </trkpt>
      <trkpt lat="13.862948" lon="-89.80372">
        <ele>1464.3927</ele>
        <time>2020-07-26T15:30:04Z</time>
      </trkpt>
      <trkpt lat="13.862984" lon="-89.80365">
        <ele>1464.8064</ele>
        <time>2020-07-26T15:30:07Z</time>
      </trkpt>
      <trkpt lat="13.863017" lon="-89.80361">
        <ele>1464.9731</ele>
        <time>2020-07-26T15:30:09Z</time>
      </trkpt>
      <trkpt lat="13.863058" lon="-89.80357">
        <ele>1462.3075</ele>
        <time>2020-07-26T15:30:11Z</time>
      </trkpt>
      <trkpt lat="13.863095" lon="-89.80353">
        <ele>1461.166</ele>
        <time>2020-07-26T15:30:13Z</time>
      </trkpt>
      <trkpt lat="13.863125" lon="-89.80348">
        <ele>1459.6218</ele>
        <time>2020-07-26T15:30:15Z</time>
      </trkpt>
      <trkpt lat="13.863142" lon="-89.80343">
        <ele>1458.6619</ele>
        <time>2020-07-26T15:30:17Z</time>
      </trkpt>
      <trkpt lat="13.863171" lon="-89.803375">
        <ele>1460.2361</ele>
        <time>2020-07-26T15:30:19Z</time>
      </trkpt>
      <trkpt lat="13.863206" lon="-89.80332">
        <ele>1459.5281</ele>
        <time>2020-07-26T15:30:21Z</time>
      </trkpt>
      <trkpt lat="13.863244" lon="-89.80327">
        <ele>1458.9984</ele>
        <time>2020-07-26T15:30:23Z</time>
      </trkpt>
      <trkpt lat="13.863285" lon="-89.80322">
        <ele>1458.6216</ele>
        <time>2020-07-26T15:30:25Z</time>
      </trkpt>
      <trkpt lat="13.863337" lon="-89.80319">
        <ele>1459.5868</ele>
        <time>2020-07-26T15:30:27Z</time>
      </trkpt>
      <trkpt lat="13.863382" lon="-89.803154">
        <ele>1458.8256</ele>
        <time>2020-07-26T15:30:29Z</time>
      </trkpt>
      <trkpt lat="13.863429" lon="-89.803116">
        <ele>1458.7957</ele>
        <time>2020-07-26T15:30:31Z</time>
      </trkpt>
      <trkpt lat="13.863483" lon="-89.803085">
        <ele>1458.7656</ele>
        <time>2020-07-26T15:30:33Z</time>
      </trkpt>
      <trkpt lat="13.86353" lon="-89.80305">
        <ele>1457.1812</ele>
        <time>2020-07-26T15:30:35Z</time>
      </trkpt>
      <trkpt lat="13.863563" lon="-89.80299">
        <ele>1457.1282</ele>
        <time>2020-07-26T15:30:37Z</time>
      </trkpt>
      <trkpt lat="13.863589" lon="-89.80293">
        <ele>1456.1444</ele>
        <time>2020-07-26T15:30:39Z</time>
      </trkpt>
      <trkpt lat="13.863617" lon="-89.80289">
        <ele>1457.0237</ele>
        <time>2020-07-26T15:30:41Z</time>
      </trkpt>
      <trkpt lat="13.863648" lon="-89.80283">
        <ele>1457.9109</ele>
        <time>2020-07-26T15:30:43Z</time>
      </trkpt>
      <trkpt lat="13.863678" lon="-89.80279">
        <ele>1459.148</ele>
        <time>2020-07-26T15:30:45Z</time>
      </trkpt>
      <trkpt lat="13.863707" lon="-89.80274">
        <ele>1458.8451</ele>
        <time>2020-07-26T15:30:47Z</time>
      </trkpt>
      <trkpt lat="13.863731" lon="-89.8027">
        <ele>1457.6871</ele>
        <time>2020-07-26T15:30:49Z</time>
      </trkpt>
      <trkpt lat="13.863759" lon="-89.80264">
        <ele>1455.8352</ele>
        <time>2020-07-26T15:30:51Z</time>
      </trkpt>
      <trkpt lat="13.86379" lon="-89.802605">
        <ele>1455.2026</ele>
        <time>2020-07-26T15:30:53Z</time>
      </trkpt>
      <trkpt lat="13.863814" lon="-89.80256">
        <ele>1453.715</ele>
        <time>2020-07-26T15:30:55Z</time>
      </trkpt>
      <trkpt lat="13.863858" lon="-89.80249">
        <ele>1452.9406</ele>
        <time>2020-07-26T15:30:58Z</time>
      </trkpt>
      <trkpt lat="13.863896" lon="-89.80245">
        <ele>1453.2832</ele>
        <time>2020-07-26T15:31:00Z</time>
      </trkpt>
      <trkpt lat="13.8639345" lon="-89.80241">
        <ele>1453.9473</ele>
        <time>2020-07-26T15:31:02Z</time>
      </trkpt>
      <trkpt lat="13.863972" lon="-89.80236">
        <ele>1454.0619</ele>
        <time>2020-07-26T15:31:04Z</time>
      </trkpt>
      <trkpt lat="13.864013" lon="-89.80232">
        <ele>1455.1287</ele>
        <time>2020-07-26T15:31:06Z</time>
      </trkpt>
      <trkpt lat="13.864049" lon="-89.80228">
        <ele>1455.0651</ele>
        <time>2020-07-26T15:31:08Z</time>
      </trkpt>
      <trkpt lat="13.864087" lon="-89.80224">
        <ele>1455.8105</ele>
        <time>2020-07-26T15:31:10Z</time>
      </trkpt>
      <trkpt lat="13.864121" lon="-89.802185">
        <ele>1455.9534</ele>
        <time>2020-07-26T15:31:12Z</time>
      </trkpt>
      <trkpt lat="13.864144" lon="-89.80213">
        <ele>1456.046</ele>
        <time>2020-07-26T15:31:14Z</time>
      </trkpt>
      <trkpt lat="13.864159" lon="-89.80208">
        <ele>1455.851</ele>
        <time>2020-07-26T15:31:16Z</time>
      </trkpt>
      <trkpt lat="13.86419" lon="-89.80203">
        <ele>1456.1672</ele>
        <time>2020-07-26T15:31:18Z</time>
      </trkpt>
      <trkpt lat="13.864234" lon="-89.801994">
        <ele>1457.0986</ele>
        <time>2020-07-26T15:31:20Z</time>
      </trkpt>
      <trkpt lat="13.86428" lon="-89.801956">
        <ele>1457.0769</ele>
        <time>2020-07-26T15:31:22Z</time>
      </trkpt>
      <trkpt lat="13.864321" lon="-89.80191">
        <ele>1456.9849</ele>
        <time>2020-07-26T15:31:25Z</time>
      </trkpt>
      <trkpt lat="13.864348" lon="-89.80186">
        <ele>1456.9578</ele>
        <time>2020-07-26T15:31:27Z</time>
      </trkpt>
      <trkpt lat="13.864376" lon="-89.80181">
        <ele>1456.3705</ele>
        <time>2020-07-26T15:31:29Z</time>
      </trkpt>
      <trkpt lat="13.864418" lon="-89.80177">
        <ele>1455.1931</ele>
        <time>2020-07-26T15:31:31Z</time>
      </trkpt>
      <trkpt lat="13.864453" lon="-89.80174">
        <ele>1454.1908</ele>
        <time>2020-07-26T15:31:33Z</time>
      </trkpt>
      <trkpt lat="13.864485" lon="-89.801704">
        <ele>1454.2972</ele>
        <time>2020-07-26T15:31:35Z</time>
      </trkpt>
      <trkpt lat="13.864504" lon="-89.80166">
        <ele>1457.262</ele>
        <time>2020-07-26T15:31:37Z</time>
      </trkpt>
      <trkpt lat="13.864516" lon="-89.80158">
        <ele>1457.3273</ele>
        <time>2020-07-26T15:31:40Z</time>
      </trkpt>
      <trkpt lat="13.864534" lon="-89.80153">
        <ele>1458.6588</ele>
        <time>2020-07-26T15:31:42Z</time>
      </trkpt>
      <trkpt lat="13.864557" lon="-89.80148">
        <ele>1460.0615</ele>
        <time>2020-07-26T15:31:44Z</time>
      </trkpt>
      <trkpt lat="13.864567" lon="-89.80143">
        <ele>1458.5762</ele>
        <time>2020-07-26T15:31:46Z</time>
      </trkpt>
      <trkpt lat="13.864562" lon="-89.80138">
        <ele>1460.102</ele>
        <time>2020-07-26T15:31:48Z</time>
      </trkpt>
      <trkpt lat="13.864563" lon="-89.801315">
        <ele>1459.651</ele>
        <time>2020-07-26T15:31:50Z</time>
      </trkpt>
      <trkpt lat="13.864571" lon="-89.80126">
        <ele>1461.6847</ele>
        <time>2020-07-26T15:31:52Z</time>
      </trkpt>
      <trkpt lat="13.864577" lon="-89.80121">
        <ele>1462.0839</ele>
        <time>2020-07-26T15:31:54Z</time>
      </trkpt>
      <trkpt lat="13.864585" lon="-89.801155">
        <ele>1461.681</ele>
        <time>2020-07-26T15:31:56Z</time>
      </trkpt>
      <trkpt lat="13.864587" lon="-89.8011">
        <ele>1463.0662</ele>
        <time>2020-07-26T15:31:58Z</time>
      </trkpt>
      <trkpt lat="13.864581" lon="-89.80105">
        <ele>1463.0549</ele>
        <time>2020-07-26T15:32:00Z</time>
      </trkpt>
      <trkpt lat="13.864578" lon="-89.800995">
        <ele>1462.2854</ele>
        <time>2020-07-26T15:32:02Z</time>
      </trkpt>
      <trkpt lat="13.864575" lon="-89.80094">
        <ele>1462.7408</ele>
        <time>2020-07-26T15:32:04Z</time>
      </trkpt>
      <trkpt lat="13.864574" lon="-89.80089">
        <ele>1462.069</ele>
        <time>2020-07-26T15:32:06Z</time>
      </trkpt>
      <trkpt lat="13.864571" lon="-89.80083">
        <ele>1460.8427</ele>
        <time>2020-07-26T15:32:08Z</time>
      </trkpt>
      <trkpt lat="13.864562" lon="-89.80077">
        <ele>1461.8754</ele>
        <time>2020-07-26T15:32:10Z</time>
      </trkpt>
      <trkpt lat="13.864565" lon="-89.80072">
        <ele>1461.5377</ele>
        <time>2020-07-26T15:32:12Z</time>
      </trkpt>
      <trkpt lat="13.86457" lon="-89.80067">
        <ele>1458.3679</ele>
        <time>2020-07-26T15:32:14Z</time>
      </trkpt>
      <trkpt lat="13.8645735" lon="-89.8006">
        <ele>1458.1407</ele>
        <time>2020-07-26T15:32:17Z</time>
      </trkpt>
      <trkpt lat="13.864619" lon="-89.80057">
        <ele>1458.4813</ele>
        <time>2020-07-26T15:32:20Z</time>
      </trkpt>
      <trkpt lat="13.864663" lon="-89.80059">
        <ele>1459.9082</ele>
        <time>2020-07-26T15:32:22Z</time>
      </trkpt>
      <trkpt lat="13.86471" lon="-89.8006">
        <ele>1461.0264</ele>
        <time>2020-07-26T15:32:24Z</time>
      </trkpt>
      <trkpt lat="13.864775" lon="-89.800606">
        <ele>1459.3223</ele>
        <time>2020-07-26T15:32:27Z</time>
      </trkpt>
      <trkpt lat="13.86484" lon="-89.800606">
        <ele>1461.9902</ele>
        <time>2020-07-26T15:32:30Z</time>
      </trkpt>
      <trkpt lat="13.864886" lon="-89.800606">
        <ele>1462.1235</ele>
        <time>2020-07-26T15:32:32Z</time>
      </trkpt>
      <trkpt lat="13.864933" lon="-89.80059">
        <ele>1463.1624</ele>
        <time>2020-07-26T15:32:34Z</time>
      </trkpt>
      <trkpt lat="13.864976" lon="-89.80057">
        <ele>1461.5575</ele>
        <time>2020-07-26T15:32:36Z</time>
      </trkpt>
      <trkpt lat="13.865014" lon="-89.80053">
        <ele>1461.2285</ele>
        <time>2020-07-26T15:32:38Z</time>
      </trkpt>
      <trkpt lat="13.865047" lon="-89.80048">
        <ele>1461.2809</ele>
        <time>2020-07-26T15:32:40Z</time>
      </trkpt>
      <trkpt lat="13.865077" lon="-89.80044">
        <ele>1461.8167</ele>
        <time>2020-07-26T15:32:42Z</time>
      </trkpt>
      <trkpt lat="13.86511" lon="-89.80039">
        <ele>1462.1583</ele>
        <time>2020-07-26T15:32:44Z</time>
      </trkpt>
      <trkpt lat="13.865136" lon="-89.80035">
        <ele>1455.2332</ele>
        <time>2020-07-26T15:32:46Z</time>
      </trkpt>
      <trkpt lat="13.86516" lon="-89.8003">
        <ele>1455.078</ele>
        <time>2020-07-26T15:32:48Z</time>
      </trkpt>
      <trkpt lat="13.865188" lon="-89.80025">
        <ele>1456.3337</ele>
        <time>2020-07-26T15:32:50Z</time>
      </trkpt>
      <trkpt lat="13.865222" lon="-89.80021">
        <ele>1454.109</ele>
        <time>2020-07-26T15:32:52Z</time>
      </trkpt>
      <trkpt lat="13.865243" lon="-89.80016">
        <ele>1453.438</ele>
        <time>2020-07-26T15:32:54Z</time>
      </trkpt>
      <trkpt lat="13.86526" lon="-89.80012">
        <ele>1452.8477</ele>
        <time>2020-07-26T15:32:56Z</time>
      </trkpt>
      <trkpt lat="13.865296" lon="-89.80006">
        <ele>1449.468</ele>
        <time>2020-07-26T15:32:59Z</time>
      </trkpt>
      <trkpt lat="13.865326" lon="-89.80001">
        <ele>1451.6448</ele>
        <time>2020-07-26T15:33:01Z</time>
      </trkpt>
      <trkpt lat="13.865356" lon="-89.799965">
        <ele>1452.0713</ele>
        <time>2020-07-26T15:33:03Z</time>
      </trkpt>
      <trkpt lat="13.86539" lon="-89.79992">
        <ele>1454.2722</ele>
        <time>2020-07-26T15:33:05Z</time>
      </trkpt>
      <trkpt lat="13.865428" lon="-89.79989">
        <ele>1454.3251</ele>
        <time>2020-07-26T15:33:07Z</time>
      </trkpt>
      <trkpt lat="13.865465" lon="-89.79985">
        <ele>1454.3</ele>
        <time>2020-07-26T15:33:09Z</time>
      </trkpt>
      <trkpt lat="13.865501" lon="-89.799805">
        <ele>1448.801</ele>
        <time>2020-07-26T15:33:11Z</time>
      </trkpt>
      <trkpt lat="13.865526" lon="-89.79976">
        <ele>1449.3627</ele>
        <time>2020-07-26T15:33:13Z</time>
      </trkpt>
      <trkpt lat="13.865541" lon="-89.79971">
        <ele>1448.3131</ele>
        <time>2020-07-26T15:33:15Z</time>
      </trkpt>
      <trkpt lat="13.865553" lon="-89.79967">
        <ele>1446.8018</ele>
        <time>2020-07-26T15:33:17Z</time>
      </trkpt>
      <trkpt lat="13.865577" lon="-89.799614">
        <ele>1448.715</ele>
        <time>2020-07-26T15:33:19Z</time>
      </trkpt>
      <trkpt lat="13.865597" lon="-89.79956">
        <ele>1446.963</ele>
        <time>2020-07-26T15:33:21Z</time>
      </trkpt>
      <trkpt lat="13.865604" lon="-89.7995">
        <ele>1447.1395</ele>
        <time>2020-07-26T15:33:23Z</time>
      </trkpt>
      <trkpt lat="13.865604" lon="-89.799446">
        <ele>1448.9348</ele>
        <time>2020-07-26T15:33:25Z</time>
      </trkpt>
      <trkpt lat="13.86562" lon="-89.79939">
        <ele>1449.3604</ele>
        <time>2020-07-26T15:33:27Z</time>
      </trkpt>
      <trkpt lat="13.865644" lon="-89.79934">
        <ele>1448.1498</ele>
        <time>2020-07-26T15:33:29Z</time>
      </trkpt>
      <trkpt lat="13.865672" lon="-89.799286">
        <ele>1447.9955</ele>
        <time>2020-07-26T15:33:31Z</time>
      </trkpt>
      <trkpt lat="13.865688" lon="-89.79923">
        <ele>1448.9169</ele>
        <time>2020-07-26T15:33:33Z</time>
      </trkpt>
      <trkpt lat="13.865725" lon="-89.79919">
        <ele>1449.9812</ele>
        <time>2020-07-26T15:33:35Z</time>
      </trkpt>
      <trkpt lat="13.865763" lon="-89.79914">
        <ele>1450.2473</ele>
        <time>2020-07-26T15:33:37Z</time>
      </trkpt>
      <trkpt lat="13.865804" lon="-89.7991">
        <ele>1449.7982</ele>
        <time>2020-07-26T15:33:39Z</time>
      </trkpt>
      <trkpt lat="13.865858" lon="-89.79908">
        <ele>1449.5352</ele>
        <time>2020-07-26T15:33:41Z</time>
      </trkpt>
      <trkpt lat="13.865906" lon="-89.799065">
        <ele>1450.9733</ele>
        <time>2020-07-26T15:33:43Z</time>
      </trkpt>
      <trkpt lat="13.865967" lon="-89.79903">
        <ele>1452.3566</ele>
        <time>2020-07-26T15:33:46Z</time>
      </trkpt>
      <trkpt lat="13.866007" lon="-89.798996">
        <ele>1454.4078</ele>
        <time>2020-07-26T15:33:48Z</time>
      </trkpt>
      <trkpt lat="13.866058" lon="-89.79896">
        <ele>1455.1177</ele>
        <time>2020-07-26T15:33:51Z</time>
      </trkpt>
      <trkpt lat="13.866088" lon="-89.7989">
        <ele>1457.6533</ele>
        <time>2020-07-26T15:33:54Z</time>
      </trkpt>
      <trkpt lat="13.866149" lon="-89.79887">
        <ele>1458.6465</ele>
        <time>2020-07-26T15:33:57Z</time>
      </trkpt>
      <trkpt lat="13.866192" lon="-89.79884">
        <ele>1462.0359</ele>
        <time>2020-07-26T15:33:59Z</time>
      </trkpt>
      <trkpt lat="13.866236" lon="-89.79882">
        <ele>1461.9165</ele>
        <time>2020-07-26T15:34:01Z</time>
      </trkpt>
      <trkpt lat="13.86628" lon="-89.79879">
        <ele>1461.8575</ele>
        <time>2020-07-26T15:34:03Z</time>
      </trkpt>
      <trkpt lat="13.866319" lon="-89.79876">
        <ele>1465.5763</ele>
        <time>2020-07-26T15:34:05Z</time>
      </trkpt>
      <trkpt lat="13.866364" lon="-89.79873">
        <ele>1462.9149</ele>
        <time>2020-07-26T15:34:07Z</time>
      </trkpt>
      <trkpt lat="13.866414" lon="-89.798706">
        <ele>1461.7561</ele>
        <time>2020-07-26T15:34:09Z</time>
      </trkpt>
      <trkpt lat="13.866467" lon="-89.79869">
        <ele>1461.606</ele>
        <time>2020-07-26T15:34:11Z</time>
      </trkpt>
      <trkpt lat="13.866518" lon="-89.79867">
        <ele>1460.7617</ele>
        <time>2020-07-26T15:34:13Z</time>
      </trkpt>
      <trkpt lat="13.8665695" lon="-89.79864">
        <ele>1459.7726</ele>
        <time>2020-07-26T15:34:15Z</time>
      </trkpt>
      <trkpt lat="13.8666115" lon="-89.79861">
        <ele>1461.5652</ele>
        <time>2020-07-26T15:34:17Z</time>
      </trkpt>
      <trkpt lat="13.86665" lon="-89.79857">
        <ele>1460.0066</ele>
        <time>2020-07-26T15:34:19Z</time>
      </trkpt>
      <trkpt lat="13.866689" lon="-89.79853">
        <ele>1459.9557</ele>
        <time>2020-07-26T15:34:21Z</time>
      </trkpt>
      <trkpt lat="13.866737" lon="-89.7985">
        <ele>1458.2062</ele>
        <time>2020-07-26T15:34:23Z</time>
      </trkpt>
      <trkpt lat="13.866792" lon="-89.79847">
        <ele>1457.3392</ele>
        <time>2020-07-26T15:34:25Z</time>
      </trkpt>
      <trkpt lat="13.866834" lon="-89.79843">
        <ele>1457.4869</ele>
        <time>2020-07-26T15:34:27Z</time>
      </trkpt>
      <trkpt lat="13.866876" lon="-89.79839">
        <ele>1458.1495</ele>
        <time>2020-07-26T15:34:29Z</time>
      </trkpt>
      <trkpt lat="13.866919" lon="-89.79836">
        <ele>1459.107</ele>
        <time>2020-07-26T15:34:31Z</time>
      </trkpt>
      <trkpt lat="13.866966" lon="-89.79834">
        <ele>1457.8469</ele>
        <time>2020-07-26T15:34:33Z</time>
      </trkpt>
      <trkpt lat="13.867013" lon="-89.7983">
        <ele>1456.5786</ele>
        <time>2020-07-26T15:34:35Z</time>
      </trkpt>
      <trkpt lat="13.867055" lon="-89.79827">
        <ele>1456.1908</ele>
        <time>2020-07-26T15:34:37Z</time>
      </trkpt>
      <trkpt lat="13.867099" lon="-89.79824">
        <ele>1454.6182</ele>
        <time>2020-07-26T15:34:39Z</time>
      </trkpt>
      <trkpt lat="13.86715" lon="-89.79822">
        <ele>1453.7847</ele>
        <time>2020-07-26T15:34:41Z</time>
      </trkpt>
      <trkpt lat="13.867202" lon="-89.7982">
        <ele>1452.8766</ele>
        <time>2020-07-26T15:34:43Z</time>
      </trkpt>
      <trkpt lat="13.8672495" lon="-89.79818">
        <ele>1452.5222</ele>
        <time>2020-07-26T15:34:45Z</time>
      </trkpt>
      <trkpt lat="13.867298" lon="-89.79817">
        <ele>1455.4972</ele>
        <time>2020-07-26T15:34:47Z</time>
      </trkpt>
      <trkpt lat="13.867346" lon="-89.79815">
        <ele>1456.3954</ele>
        <time>2020-07-26T15:34:49Z</time>
      </trkpt>
      <trkpt lat="13.867387" lon="-89.79812">
        <ele>1455.1346</ele>
        <time>2020-07-26T15:34:51Z</time>
      </trkpt>
      <trkpt lat="13.867433" lon="-89.798096">
        <ele>1455.7924</ele>
        <time>2020-07-26T15:34:53Z</time>
      </trkpt>
      <trkpt lat="13.867486" lon="-89.79807">
        <ele>1456.5826</ele>
        <time>2020-07-26T15:34:55Z</time>
      </trkpt>
      <trkpt lat="13.867535" lon="-89.79804">
        <ele>1456.2435</ele>
        <time>2020-07-26T15:34:57Z</time>
      </trkpt>
      <trkpt lat="13.867586" lon="-89.79802">
        <ele>1456.9131</ele>
        <time>2020-07-26T15:34:59Z</time>
      </trkpt>
      <trkpt lat="13.867638" lon="-89.79801">
        <ele>1456.069</ele>
        <time>2020-07-26T15:35:01Z</time>
      </trkpt>
      <trkpt lat="13.867691" lon="-89.798004">
        <ele>1453.3473</ele>
        <time>2020-07-26T15:35:03Z</time>
      </trkpt>
      <trkpt lat="13.867742" lon="-89.798004">
        <ele>1451.5518</ele>
        <time>2020-07-26T15:35:05Z</time>
      </trkpt>
      <trkpt lat="13.8677845" lon="-89.79797">
        <ele>1452.2172</ele>
        <time>2020-07-26T15:35:07Z</time>
      </trkpt>
      <trkpt lat="13.8678255" lon="-89.79795">
        <ele>1452.6019</ele>
        <time>2020-07-26T15:35:09Z</time>
      </trkpt>
      <trkpt lat="13.867885" lon="-89.79793">
        <ele>1453.3029</ele>
        <time>2020-07-26T15:35:12Z</time>
      </trkpt>
      <trkpt lat="13.867935" lon="-89.79793">
        <ele>1455.2029</ele>
        <time>2020-07-26T15:35:14Z</time>
      </trkpt>
      <trkpt lat="13.86798" lon="-89.79792">
        <ele>1454.8291</ele>
        <time>2020-07-26T15:35:16Z</time>
      </trkpt>
      <trkpt lat="13.868027" lon="-89.79792">
        <ele>1454.3191</ele>
        <time>2020-07-26T15:35:18Z</time>
      </trkpt>
      <trkpt lat="13.868075" lon="-89.79792">
        <ele>1455.527</ele>
        <time>2020-07-26T15:35:20Z</time>
      </trkpt>
      <trkpt lat="13.868125" lon="-89.79792">
        <ele>1454.999</ele>
        <time>2020-07-26T15:35:22Z</time>
      </trkpt>
      <trkpt lat="13.868173" lon="-89.797905">
        <ele>1455.7059</ele>
        <time>2020-07-26T15:35:24Z</time>
      </trkpt>
      <trkpt lat="13.868216" lon="-89.79789">
        <ele>1455.8329</ele>
        <time>2020-07-26T15:35:26Z</time>
      </trkpt>
      <trkpt lat="13.868263" lon="-89.797874">
        <ele>1455.9296</ele>
        <time>2020-07-26T15:35:28Z</time>
      </trkpt>
      <trkpt lat="13.868314" lon="-89.79787">
        <ele>1456.3774</ele>
        <time>2020-07-26T15:35:30Z</time>
      </trkpt>
      <trkpt lat="13.868374" lon="-89.79787">
        <ele>1454.3812</ele>
        <time>2020-07-26T15:35:32Z</time>
      </trkpt>
      <trkpt lat="13.8684225" lon="-89.79787">
        <ele>1455.5221</ele>
        <time>2020-07-26T15:35:34Z</time>
      </trkpt>
      <trkpt lat="13.868471" lon="-89.79785">
        <ele>1456.6097</ele>
        <time>2020-07-26T15:35:36Z</time>
      </trkpt>
      <trkpt lat="13.868515" lon="-89.79783">
        <ele>1456.3943</ele>
        <time>2020-07-26T15:35:38Z</time>
      </trkpt>
      <trkpt lat="13.868555" lon="-89.797806">
        <ele>1455.0696</ele>
        <time>2020-07-26T15:35:40Z</time>
      </trkpt>
      <trkpt lat="13.868613" lon="-89.79779">
        <ele>1460.0547</ele>
        <time>2020-07-26T15:35:43Z</time>
      </trkpt>
      <trkpt lat="13.868656" lon="-89.797775">
        <ele>1459.386</ele>
        <time>2020-07-26T15:35:45Z</time>
      </trkpt>
      <trkpt lat="13.868698" lon="-89.797745">
        <ele>1462.139</ele>
        <time>2020-07-26T15:35:47Z</time>
      </trkpt>
      <trkpt lat="13.868742" lon="-89.79771">
        <ele>1462.013</ele>
        <time>2020-07-26T15:35:49Z</time>
      </trkpt>
      <trkpt lat="13.868782" lon="-89.797676">
        <ele>1461.5425</ele>
        <time>2020-07-26T15:35:51Z</time>
      </trkpt>
      <trkpt lat="13.868829" lon="-89.79765">
        <ele>1464.335</ele>
        <time>2020-07-26T15:35:53Z</time>
      </trkpt>
      <trkpt lat="13.868874" lon="-89.79763">
        <ele>1464.397</ele>
        <time>2020-07-26T15:35:55Z</time>
      </trkpt>
      <trkpt lat="13.868916" lon="-89.79761">
        <ele>1464.4031</ele>
        <time>2020-07-26T15:35:57Z</time>
      </trkpt>
      <trkpt lat="13.868949" lon="-89.79757">
        <ele>1461.8888</ele>
        <time>2020-07-26T15:35:59Z</time>
      </trkpt>
      <trkpt lat="13.868985" lon="-89.79751">
        <ele>1463.2983</ele>
        <time>2020-07-26T15:36:02Z</time>
      </trkpt>
      <trkpt lat="13.8690405" lon="-89.79748">
        <ele>1463.999</ele>
        <time>2020-07-26T15:36:05Z</time>
      </trkpt>
      <trkpt lat="13.8691" lon="-89.79745">
        <ele>1465.4506</ele>
        <time>2020-07-26T15:36:08Z</time>
      </trkpt>
      <trkpt lat="13.869135" lon="-89.797386">
        <ele>1465.674</ele>
        <time>2020-07-26T15:36:11Z</time>
      </trkpt>
      <trkpt lat="13.869174" lon="-89.797356">
        <ele>1465.6448</ele>
        <time>2020-07-26T15:36:13Z</time>
      </trkpt>
      <trkpt lat="13.869219" lon="-89.79733">
        <ele>1465.3239</ele>
        <time>2020-07-26T15:36:15Z</time>
      </trkpt>
      <trkpt lat="13.86926" lon="-89.79731">
        <ele>1466.1067</ele>
        <time>2020-07-26T15:36:17Z</time>
      </trkpt>
      <trkpt lat="13.869297" lon="-89.79728">
        <ele>1465.8964</ele>
        <time>2020-07-26T15:36:19Z</time>
      </trkpt>
      <trkpt lat="13.869335" lon="-89.79725">
        <ele>1466.0782</ele>
        <time>2020-07-26T15:36:21Z</time>
      </trkpt>
      <trkpt lat="13.869364" lon="-89.7972">
        <ele>1468.4563</ele>
        <time>2020-07-26T15:36:23Z</time>
      </trkpt>
      <trkpt lat="13.869374" lon="-89.79719">
        <ele>1467.0753</ele>
        <time>2020-07-26T15:36:24Z</time>
      </trkpt>
      <trkpt lat="13.8694" lon="-89.79715">
        <ele>1465.965</ele>
        <time>2020-07-26T15:36:26Z</time>
      </trkpt>
      <trkpt lat="13.869463" lon="-89.79712">
        <ele>1468.3558</ele>
        <time>2020-07-26T15:36:29Z</time>
      </trkpt>
      <trkpt lat="13.869504" lon="-89.7971">
        <ele>1468.3944</ele>
        <time>2020-07-26T15:36:31Z</time>
      </trkpt>
      <trkpt lat="13.869519" lon="-89.79708">
        <ele>1469.1008</ele>
        <time>2020-07-26T15:36:32Z</time>
      </trkpt>
      <trkpt lat="13.869526" lon="-89.79706">
        <ele>1467.9055</ele>
        <time>2020-07-26T15:36:33Z</time>
      </trkpt>
      <trkpt lat="13.869527" lon="-89.797005">
        <ele>1470.6226</ele>
        <time>2020-07-26T15:36:35Z</time>
      </trkpt>
      <trkpt lat="13.869521" lon="-89.79698">
        <ele>1469.7949</ele>
        <time>2020-07-26T15:36:36Z</time>
      </trkpt>
      <trkpt lat="13.869507" lon="-89.796936">
        <ele>1470.4565</ele>
        <time>2020-07-26T15:36:38Z</time>
      </trkpt>
      <trkpt lat="13.8695" lon="-89.79691">
        <ele>1470.3582</ele>
        <time>2020-07-26T15:36:39Z</time>
      </trkpt>
      <trkpt lat="13.869477" lon="-89.79687">
        <ele>1468.5376</ele>
        <time>2020-07-26T15:36:41Z</time>
      </trkpt>
      <trkpt lat="13.869467" lon="-89.79682">
        <ele>1470.8944</ele>
        <time>2020-07-26T15:36:43Z</time>
      </trkpt>
      <trkpt lat="13.8694725" lon="-89.7968">
        <ele>1470.3818</ele>
        <time>2020-07-26T15:36:44Z</time>
      </trkpt>
      <trkpt lat="13.869491" lon="-89.79675">
        <ele>1468.6002</ele>
        <time>2020-07-26T15:36:46Z</time>
      </trkpt>
      <trkpt lat="13.869531" lon="-89.7967">
        <ele>1469.8895</ele>
        <time>2020-07-26T15:36:49Z</time>
      </trkpt>
      <trkpt lat="13.8695545" lon="-89.79669">
        <ele>1470.3177</ele>
        <time>2020-07-26T15:36:50Z</time>
      </trkpt>
      <trkpt lat="13.869617" lon="-89.79669">
        <ele>1470.8982</ele>
        <time>2020-07-26T15:36:52Z</time>
      </trkpt>
      <trkpt lat="13.869675" lon="-89.7967">
        <ele>1471.6243</ele>
        <time>2020-07-26T15:36:54Z</time>
      </trkpt>
      <trkpt lat="13.869698" lon="-89.7967">
        <ele>1468.761</ele>
        <time>2020-07-26T15:36:55Z</time>
      </trkpt>
      <trkpt lat="13.8697405" lon="-89.796684">
        <ele>1470.007</ele>
        <time>2020-07-26T15:36:57Z</time>
      </trkpt>
      <trkpt lat="13.869807" lon="-89.7967">
        <ele>1469.7235</ele>
        <time>2020-07-26T15:37:00Z</time>
      </trkpt>
      <trkpt lat="13.869853" lon="-89.796715">
        <ele>1470.3367</ele>
        <time>2020-07-26T15:37:02Z</time>
      </trkpt>
      <trkpt lat="13.869914" lon="-89.79673">
        <ele>1469.8573</ele>
        <time>2020-07-26T15:37:05Z</time>
      </trkpt>
      <trkpt lat="13.869971" lon="-89.796745">
        <ele>1469.7644</ele>
        <time>2020-07-26T15:37:08Z</time>
      </trkpt>
      <trkpt lat="13.870004" lon="-89.79679">
        <ele>1472.1493</ele>
        <time>2020-07-26T15:37:11Z</time>
      </trkpt>
      <trkpt lat="13.870047" lon="-89.79681">
        <ele>1472.5</ele>
        <time>2020-07-26T15:37:15Z</time>
      </trkpt>
      <trkpt lat="13.870047" lon="-89.79687">
        <ele>1474.2993</ele>
        <time>2020-07-26T15:37:19Z</time>
      </trkpt>
      <trkpt lat="13.870056" lon="-89.79688">
        <ele>1474.1819</ele>
        <time>2020-07-26T15:37:20Z</time>
      </trkpt>
      <trkpt lat="13.870106" lon="-89.7969">
        <ele>1473.747</ele>
        <time>2020-07-26T15:37:24Z</time>
      </trkpt>
      <trkpt lat="13.870116" lon="-89.796906">
        <ele>1473.5101</ele>
        <time>2020-07-26T15:37:25Z</time>
      </trkpt>
      <trkpt lat="13.870158" lon="-89.79693">
        <ele>1474.1284</ele>
        <time>2020-07-26T15:37:29Z</time>
      </trkpt>
      <trkpt lat="13.870183" lon="-89.79688">
        <ele>1476.1349</ele>
        <time>2020-07-26T15:37:32Z</time>
      </trkpt>
      <trkpt lat="13.870188" lon="-89.79687">
        <ele>1476.6376</ele>
        <time>2020-07-26T15:37:33Z</time>
      </trkpt>
      <trkpt lat="13.870196" lon="-89.796844">
        <ele>1477.3004</ele>
        <time>2020-07-26T15:37:34Z</time>
      </trkpt>
      <trkpt lat="13.870208" lon="-89.79683">
        <ele>1479.2401</ele>
        <time>2020-07-26T15:37:35Z</time>
      </trkpt>
      <trkpt lat="13.87022" lon="-89.796814">
        <ele>1480.4185</ele>
        <time>2020-07-26T15:37:36Z</time>
      </trkpt>
      <trkpt lat="13.870238" lon="-89.79679">
        <ele>1482.3988</ele>
        <time>2020-07-26T15:37:37Z</time>
      </trkpt>
      <trkpt lat="13.870256" lon="-89.79678">
        <ele>1483.6436</ele>
        <time>2020-07-26T15:37:38Z</time>
      </trkpt>
      <trkpt lat="13.870276" lon="-89.79677">
        <ele>1482.732</ele>
        <time>2020-07-26T15:37:39Z</time>
      </trkpt>
      <trkpt lat="13.870332" lon="-89.79674">
        <ele>1484.5369</ele>
        <time>2020-07-26T15:37:42Z</time>
      </trkpt>
      <trkpt lat="13.870349" lon="-89.79673">
        <ele>1485.4252</ele>
        <time>2020-07-26T15:37:43Z</time>
      </trkpt>
      <trkpt lat="13.870367" lon="-89.79672">
        <ele>1484.5358</ele>
        <time>2020-07-26T15:37:44Z</time>
      </trkpt>
      <trkpt lat="13.870416" lon="-89.7967">
        <ele>1487.5787</ele>
        <time>2020-07-26T15:37:47Z</time>
      </trkpt>
      <trkpt lat="13.87043" lon="-89.79669">
        <ele>1489.4485</ele>
        <time>2020-07-26T15:37:48Z</time>
      </trkpt>
      <trkpt lat="13.870444" lon="-89.796684">
        <ele>1490.211</ele>
        <time>2020-07-26T15:37:49Z</time>
      </trkpt>
      <trkpt lat="13.870459" lon="-89.796684">
        <ele>1491.585</ele>
        <time>2020-07-26T15:37:50Z</time>
      </trkpt>
      <trkpt lat="13.870474" lon="-89.79668">
        <ele>1492.6626</ele>
        <time>2020-07-26T15:37:51Z</time>
      </trkpt>
      <trkpt lat="13.870489" lon="-89.79667">
        <ele>1493.5223</ele>
        <time>2020-07-26T15:37:52Z</time>
      </trkpt>
      <trkpt lat="13.870502" lon="-89.79666">
        <ele>1494.2272</ele>
        <time>2020-07-26T15:37:53Z</time>
      </trkpt>
      <trkpt lat="13.870516" lon="-89.79665">
        <ele>1494.3575</ele>
        <time>2020-07-26T15:37:54Z</time>
      </trkpt>
      <trkpt lat="13.870529" lon="-89.796646">
        <ele>1494.6769</ele>
        <time>2020-07-26T15:37:55Z</time>
      </trkpt>
      <trkpt lat="13.870542" lon="-89.796646">
        <ele>1495.3588</ele>
        <time>2020-07-26T15:37:56Z</time>
      </trkpt>
      <trkpt lat="13.870554" lon="-89.79664">
        <ele>1495.85</ele>
        <time>2020-07-26T15:37:57Z</time>
      </trkpt>
      <trkpt lat="13.870567" lon="-89.79664">
        <ele>1497.0468</ele>
        <time>2020-07-26T15:37:58Z</time>
      </trkpt>
      <trkpt lat="13.870574" lon="-89.79662">
        <ele>1494.8439</ele>
        <time>2020-07-26T15:37:59Z</time>
      </trkpt>
      <trkpt lat="13.870618" lon="-89.79659">
        <ele>1494.3193</ele>
        <time>2020-07-26T15:38:02Z</time>
      </trkpt>
      <trkpt lat="13.870685" lon="-89.79658">
        <ele>1494.0933</ele>
        <time>2020-07-26T15:38:05Z</time>
      </trkpt>
      <trkpt lat="13.8707485" lon="-89.796555">
        <ele>1492.9396</ele>
        <time>2020-07-26T15:38:08Z</time>
      </trkpt>
      <trkpt lat="13.870793" lon="-89.79656">
        <ele>1491.2231</ele>
        <time>2020-07-26T15:38:10Z</time>
      </trkpt>
      <trkpt lat="13.870851" lon="-89.79655">
        <ele>1492.7362</ele>
        <time>2020-07-26T15:38:13Z</time>
      </trkpt>
      <trkpt lat="13.870911" lon="-89.796555">
        <ele>1490.3174</ele>
        <time>2020-07-26T15:38:16Z</time>
      </trkpt>
      <trkpt lat="13.870948" lon="-89.79659">
        <ele>1490.6666</ele>
        <time>2020-07-26T15:38:18Z</time>
      </trkpt>
      <trkpt lat="13.870976" lon="-89.79664">
        <ele>1491.7273</ele>
        <time>2020-07-26T15:38:20Z</time>
      </trkpt>
      <trkpt lat="13.871005" lon="-89.796684">
        <ele>1491.4902</ele>
        <time>2020-07-26T15:38:22Z</time>
      </trkpt>
      <trkpt lat="13.871062" lon="-89.796715">
        <ele>1492.0464</ele>
        <time>2020-07-26T15:38:25Z</time>
      </trkpt>
      <trkpt lat="13.871108" lon="-89.796745">
        <ele>1494.5715</ele>
        <time>2020-07-26T15:38:28Z</time>
      </trkpt>
      <trkpt lat="13.87116" lon="-89.79676">
        <ele>1495.5171</ele>
        <time>2020-07-26T15:38:31Z</time>
      </trkpt>
      <trkpt lat="13.871212" lon="-89.79678">
        <ele>1496.8329</ele>
        <time>2020-07-26T15:38:34Z</time>
      </trkpt>
      <trkpt lat="13.871264" lon="-89.796814">
        <ele>1496.2681</ele>
        <time>2020-07-26T15:38:37Z</time>
      </trkpt>
      <trkpt lat="13.8713255" lon="-89.79681">
        <ele>1497.115</ele>
        <time>2020-07-26T15:38:40Z</time>
      </trkpt>
      <trkpt lat="13.871343" lon="-89.79678">
        <ele>1495.7267</ele>
        <time>2020-07-26T15:38:41Z</time>
      </trkpt>
      <trkpt lat="13.871369" lon="-89.79674">
        <ele>1494.8273</ele>
        <time>2020-07-26T15:38:43Z</time>
      </trkpt>
      <trkpt lat="13.871375" lon="-89.796684">
        <ele>1493.2625</ele>
        <time>2020-07-26T15:38:45Z</time>
      </trkpt>
      <trkpt lat="13.8713665" lon="-89.79663">
        <ele>1493.935</ele>
        <time>2020-07-26T15:38:47Z</time>
      </trkpt>
      <trkpt lat="13.871361" lon="-89.79658">
        <ele>1493.5673</ele>
        <time>2020-07-26T15:38:49Z</time>
      </trkpt>
      <trkpt lat="13.871366" lon="-89.79652">
        <ele>1493.3365</ele>
        <time>2020-07-26T15:38:51Z</time>
      </trkpt>
      <trkpt lat="13.871366" lon="-89.79646">
        <ele>1491.2413</ele>
        <time>2020-07-26T15:38:53Z</time>
      </trkpt>
      <trkpt lat="13.871367" lon="-89.79641">
        <ele>1489.9594</ele>
        <time>2020-07-26T15:38:55Z</time>
      </trkpt>
      <trkpt lat="13.87138" lon="-89.79636">
        <ele>1487.6514</ele>
        <time>2020-07-26T15:38:57Z</time>
      </trkpt>
      <trkpt lat="13.871391" lon="-89.7963">
        <ele>1487.5336</ele>
        <time>2020-07-26T15:38:59Z</time>
      </trkpt>
      <trkpt lat="13.871388" lon="-89.796234">
        <ele>1487.9275</ele>
        <time>2020-07-26T15:39:02Z</time>
      </trkpt>
      <trkpt lat="13.871394" lon="-89.79618">
        <ele>1487.4519</ele>
        <time>2020-07-26T15:39:04Z</time>
      </trkpt>
      <trkpt lat="13.871403" lon="-89.79613">
        <ele>1487.2206</ele>
        <time>2020-07-26T15:39:06Z</time>
      </trkpt>
      <trkpt lat="13.871408" lon="-89.796074">
        <ele>1488.4944</ele>
        <time>2020-07-26T15:39:08Z</time>
      </trkpt>
      <trkpt lat="13.871422" lon="-89.79603">
        <ele>1487.937</ele>
        <time>2020-07-26T15:39:10Z</time>
      </trkpt>
      <trkpt lat="13.871422" lon="-89.79595">
        <ele>1488.1686</ele>
        <time>2020-07-26T15:39:13Z</time>
      </trkpt>
      <trkpt lat="13.871428" lon="-89.7959">
        <ele>1489.572</ele>
        <time>2020-07-26T15:39:15Z</time>
      </trkpt>
      <trkpt lat="13.871445" lon="-89.79585">
        <ele>1491.4626</ele>
        <time>2020-07-26T15:39:17Z</time>
      </trkpt>
      <trkpt lat="13.871462" lon="-89.79581">
        <ele>1490.2762</ele>
        <time>2020-07-26T15:39:19Z</time>
      </trkpt>
      <trkpt lat="13.871467" lon="-89.79575">
        <ele>1492.7849</ele>
        <time>2020-07-26T15:39:21Z</time>
      </trkpt>
      <trkpt lat="13.871463" lon="-89.7957">
        <ele>1492.8079</ele>
        <time>2020-07-26T15:39:23Z</time>
      </trkpt>
      <trkpt lat="13.871461" lon="-89.79564">
        <ele>1492.4784</ele>
        <time>2020-07-26T15:39:25Z</time>
      </trkpt>
      <trkpt lat="13.871468" lon="-89.79559">
        <ele>1491.1129</ele>
        <time>2020-07-26T15:39:27Z</time>
      </trkpt>
      <trkpt lat="13.871478" lon="-89.79554">
        <ele>1489.272</ele>
        <time>2020-07-26T15:39:29Z</time>
      </trkpt>
      <trkpt lat="13.871485" lon="-89.79549">
        <ele>1487.5332</ele>
        <time>2020-07-26T15:39:31Z</time>
      </trkpt>
      <trkpt lat="13.871486" lon="-89.795425">
        <ele>1486.4031</ele>
        <time>2020-07-26T15:39:33Z</time>
      </trkpt>
      <trkpt lat="13.871492" lon="-89.79538">
        <ele>1485.2782</ele>
        <time>2020-07-26T15:39:35Z</time>
      </trkpt>
      <trkpt lat="13.87149" lon="-89.79533">
        <ele>1485.8467</ele>
        <time>2020-07-26T15:39:37Z</time>
      </trkpt>
      <trkpt lat="13.871483" lon="-89.79527">
        <ele>1485.4567</ele>
        <time>2020-07-26T15:39:39Z</time>
      </trkpt>
      <trkpt lat="13.871467" lon="-89.79522">
        <ele>1487.1605</ele>
        <time>2020-07-26T15:39:41Z</time>
      </trkpt>
      <trkpt lat="13.871462" lon="-89.79516">
        <ele>1486.3849</ele>
        <time>2020-07-26T15:39:43Z</time>
      </trkpt>
      <trkpt lat="13.871496" lon="-89.79509">
        <ele>1485.2814</ele>
        <time>2020-07-26T15:39:45Z</time>
      </trkpt>
      <trkpt lat="13.871532" lon="-89.79502">
        <ele>1484.2788</ele>
        <time>2020-07-26T15:39:47Z</time>
      </trkpt>
      <trkpt lat="13.87157" lon="-89.79495">
        <ele>1485.2228</ele>
        <time>2020-07-26T15:39:49Z</time>
      </trkpt>
      <trkpt lat="13.871597" lon="-89.79489">
        <ele>1484.7797</ele>
        <time>2020-07-26T15:39:51Z</time>
      </trkpt>
      <trkpt lat="13.8716" lon="-89.79483">
        <ele>1485.2434</ele>
        <time>2020-07-26T15:39:53Z</time>
      </trkpt>
      <trkpt lat="13.871593" lon="-89.79477">
        <ele>1485.4369</ele>
        <time>2020-07-26T15:39:55Z</time>
      </trkpt>
      <trkpt lat="13.871582" lon="-89.794716">
        <ele>1483.3187</ele>
        <time>2020-07-26T15:39:57Z</time>
      </trkpt>
      <trkpt lat="13.871571" lon="-89.79466">
        <ele>1483.839</ele>
        <time>2020-07-26T15:39:59Z</time>
      </trkpt>
      <trkpt lat="13.8715725" lon="-89.79461">
        <ele>1482.9338</ele>
        <time>2020-07-26T15:40:01Z</time>
      </trkpt>
      <trkpt lat="13.871561" lon="-89.794556">
        <ele>1483.4283</ele>
        <time>2020-07-26T15:40:03Z</time>
      </trkpt>
      <trkpt lat="13.871542" lon="-89.79451">
        <ele>1481.8206</ele>
        <time>2020-07-26T15:40:05Z</time>
      </trkpt>
      <trkpt lat="13.871535" lon="-89.79446">
        <ele>1483.1398</ele>
        <time>2020-07-26T15:40:07Z</time>
      </trkpt>
      <trkpt lat="13.8715515" lon="-89.794395">
        <ele>1481.7073</ele>
        <time>2020-07-26T15:40:09Z</time>
      </trkpt>
      <trkpt lat="13.871545" lon="-89.79434">
        <ele>1480.9414</ele>
        <time>2020-07-26T15:40:11Z</time>
      </trkpt>
      <trkpt lat="13.8715315" lon="-89.7943">
        <ele>1479.9568</ele>
        <time>2020-07-26T15:40:13Z</time>
      </trkpt>
      <trkpt lat="13.87152" lon="-89.794235">
        <ele>1479.863</ele>
        <time>2020-07-26T15:40:15Z</time>
      </trkpt>
      <trkpt lat="13.871511" lon="-89.79418">
        <ele>1480.4335</ele>
        <time>2020-07-26T15:40:17Z</time>
      </trkpt>
      <trkpt lat="13.871528" lon="-89.79413">
        <ele>1478.8691</ele>
        <time>2020-07-26T15:40:19Z</time>
      </trkpt>
      <trkpt lat="13.871539" lon="-89.79407">
        <ele>1478.7498</ele>
        <time>2020-07-26T15:40:21Z</time>
      </trkpt>
      <trkpt lat="13.871535" lon="-89.79401">
        <ele>1479.0105</ele>
        <time>2020-07-26T15:40:23Z</time>
      </trkpt>
      <trkpt lat="13.871548" lon="-89.79396">
        <ele>1479.3583</ele>
        <time>2020-07-26T15:40:25Z</time>
      </trkpt>
      <trkpt lat="13.871571" lon="-89.793915">
        <ele>1478.6892</ele>
        <time>2020-07-26T15:40:27Z</time>
      </trkpt>
      <trkpt lat="13.871596" lon="-89.79387">
        <ele>1477.8694</ele>
        <time>2020-07-26T15:40:29Z</time>
      </trkpt>
      <trkpt lat="13.87162" lon="-89.793816">
        <ele>1475.9825</ele>
        <time>2020-07-26T15:40:31Z</time>
      </trkpt>
      <trkpt lat="13.871642" lon="-89.79377">
        <ele>1475.795</ele>
        <time>2020-07-26T15:40:33Z</time>
      </trkpt>
      <trkpt lat="13.871652" lon="-89.793724">
        <ele>1474.1417</ele>
        <time>2020-07-26T15:40:35Z</time>
      </trkpt>
      <trkpt lat="13.871668" lon="-89.79368">
        <ele>1473.8625</ele>
        <time>2020-07-26T15:40:37Z</time>
      </trkpt>
      <trkpt lat="13.8717" lon="-89.793625">
        <ele>1470.5643</ele>
        <time>2020-07-26T15:40:39Z</time>
      </trkpt>
      <trkpt lat="13.871734" lon="-89.79357">
        <ele>1469.4393</ele>
        <time>2020-07-26T15:40:41Z</time>
      </trkpt>
      <trkpt lat="13.871766" lon="-89.79352">
        <ele>1468.1288</ele>
        <time>2020-07-26T15:40:43Z</time>
      </trkpt>
      <trkpt lat="13.871802" lon="-89.79347">
        <ele>1470.1459</ele>
        <time>2020-07-26T15:40:45Z</time>
      </trkpt>
      <trkpt lat="13.871829" lon="-89.79341">
        <ele>1468.801</ele>
        <time>2020-07-26T15:40:47Z</time>
      </trkpt>
      <trkpt lat="13.871854" lon="-89.79335">
        <ele>1469.3396</ele>
        <time>2020-07-26T15:40:49Z</time>
      </trkpt>
      <trkpt lat="13.871888" lon="-89.7933">
        <ele>1466.4067</ele>
        <time>2020-07-26T15:40:51Z</time>
      </trkpt>
      <trkpt lat="13.871939" lon="-89.79324">
        <ele>1466.9122</ele>
        <time>2020-07-26T15:40:53Z</time>
      </trkpt>
      <trkpt lat="13.8719845" lon="-89.7932">
        <ele>1466.4463</ele>
        <time>2020-07-26T15:40:55Z</time>
      </trkpt>
      <trkpt lat="13.87203" lon="-89.79316">
        <ele>1466.4601</ele>
        <time>2020-07-26T15:40:57Z</time>
      </trkpt>
      <trkpt lat="13.8720875" lon="-89.793144">
        <ele>1466.5369</ele>
        <time>2020-07-26T15:40:59Z</time>
      </trkpt>
      <trkpt lat="13.872144" lon="-89.79313">
        <ele>1464.7264</ele>
        <time>2020-07-26T15:41:01Z</time>
      </trkpt>
      <trkpt lat="13.872202" lon="-89.79313">
        <ele>1464.5079</ele>
        <time>2020-07-26T15:41:03Z</time>
      </trkpt>
      <trkpt lat="13.872256" lon="-89.79314">
        <ele>1463.8936</ele>
        <time>2020-07-26T15:41:05Z</time>
      </trkpt>
      <trkpt lat="13.872303" lon="-89.79315">
        <ele>1463.5122</ele>
        <time>2020-07-26T15:41:07Z</time>
      </trkpt>
      <trkpt lat="13.87235" lon="-89.79317">
        <ele>1463.852</ele>
        <time>2020-07-26T15:41:09Z</time>
      </trkpt>
      <trkpt lat="13.8724" lon="-89.793175">
        <ele>1464.295</ele>
        <time>2020-07-26T15:41:11Z</time>
      </trkpt>
      <trkpt lat="13.872452" lon="-89.79318">
        <ele>1461.9817</ele>
        <time>2020-07-26T15:41:13Z</time>
      </trkpt>
      <trkpt lat="13.872504" lon="-89.79319">
        <ele>1462.1058</ele>
        <time>2020-07-26T15:41:15Z</time>
      </trkpt>
      <trkpt lat="13.872558" lon="-89.7932">
        <ele>1461.0132</ele>
        <time>2020-07-26T15:41:17Z</time>
      </trkpt>
      <trkpt lat="13.872608" lon="-89.79318">
        <ele>1461.529</ele>
        <time>2020-07-26T15:41:19Z</time>
      </trkpt>
      <trkpt lat="13.87266" lon="-89.79316">
        <ele>1460.264</ele>
        <time>2020-07-26T15:41:21Z</time>
      </trkpt>
      <trkpt lat="13.872709" lon="-89.79313">
        <ele>1458.3306</ele>
        <time>2020-07-26T15:41:23Z</time>
      </trkpt>
      <trkpt lat="13.872759" lon="-89.793106">
        <ele>1458.2533</ele>
        <time>2020-07-26T15:41:25Z</time>
      </trkpt>
      <trkpt lat="13.872812" lon="-89.7931">
        <ele>1458.5067</ele>
        <time>2020-07-26T15:41:27Z</time>
      </trkpt>
      <trkpt lat="13.872862" lon="-89.79308">
        <ele>1457.9518</ele>
        <time>2020-07-26T15:41:29Z</time>
      </trkpt>
      <trkpt lat="13.8729105" lon="-89.79307">
        <ele>1457.6351</ele>
        <time>2020-07-26T15:41:31Z</time>
      </trkpt>
      <trkpt lat="13.872959" lon="-89.793045">
        <ele>1458.8959</ele>
        <time>2020-07-26T15:41:33Z</time>
      </trkpt>
      <trkpt lat="13.873006" lon="-89.79302">
        <ele>1462.0067</ele>
        <time>2020-07-26T15:41:35Z</time>
      </trkpt>
      <trkpt lat="13.873042" lon="-89.792984">
        <ele>1461.935</ele>
        <time>2020-07-26T15:41:37Z</time>
      </trkpt>
      <trkpt lat="13.873087" lon="-89.792946">
        <ele>1464.6427</ele>
        <time>2020-07-26T15:41:40Z</time>
      </trkpt>
      <trkpt lat="13.873137" lon="-89.79294">
        <ele>1466.2406</ele>
        <time>2020-07-26T15:41:44Z</time>
      </trkpt>
      <trkpt lat="13.873186" lon="-89.79291">
        <ele>1470.474</ele>
        <time>2020-07-26T15:41:48Z</time>
      </trkpt>
      <trkpt lat="13.873235" lon="-89.7929">
        <ele>1471.2805</ele>
        <time>2020-07-26T15:41:52Z</time>
      </trkpt>
      <trkpt lat="13.873282" lon="-89.7929">
        <ele>1471.1715</ele>
        <time>2020-07-26T15:41:56Z</time>
      </trkpt>
      <trkpt lat="13.873332" lon="-89.7929">
        <ele>1473.2891</ele>
        <time>2020-07-26T15:42:00Z</time>
      </trkpt>
      <trkpt lat="13.873393" lon="-89.79288">
        <ele>1474.3878</ele>
        <time>2020-07-26T15:42:03Z</time>
      </trkpt>
      <trkpt lat="13.873436" lon="-89.792854">
        <ele>1473.8796</ele>
        <time>2020-07-26T15:42:05Z</time>
      </trkpt>
      <trkpt lat="13.873504" lon="-89.79286">
        <ele>1475.8805</ele>
        <time>2020-07-26T15:42:08Z</time>
      </trkpt>
      <trkpt lat="13.873546" lon="-89.79289">
        <ele>1477.5917</ele>
        <time>2020-07-26T15:42:10Z</time>
      </trkpt>
      <trkpt lat="13.873575" lon="-89.79294">
        <ele>1478.4929</ele>
        <time>2020-07-26T15:42:12Z</time>
      </trkpt>
      <trkpt lat="13.8736" lon="-89.79299">
        <ele>1479.1714</ele>
        <time>2020-07-26T15:42:14Z</time>
      </trkpt>
      <trkpt lat="13.873637" lon="-89.79303">
        <ele>1481.1753</ele>
        <time>2020-07-26T15:42:16Z</time>
      </trkpt>
      <trkpt lat="13.873689" lon="-89.79303">
        <ele>1482.4357</ele>
        <time>2020-07-26T15:42:18Z</time>
      </trkpt>
      <trkpt lat="13.873739" lon="-89.79302">
        <ele>1482.4728</ele>
        <time>2020-07-26T15:42:20Z</time>
      </trkpt>
      <trkpt lat="13.873785" lon="-89.79298">
        <ele>1482.3623</ele>
        <time>2020-07-26T15:42:22Z</time>
      </trkpt>
      <trkpt lat="13.873814" lon="-89.792915">
        <ele>1481.9948</ele>
        <time>2020-07-26T15:42:24Z</time>
      </trkpt>
      <trkpt lat="13.873827" lon="-89.79285">
        <ele>1482.5374</ele>
        <time>2020-07-26T15:42:26Z</time>
      </trkpt>
      <trkpt lat="13.873845" lon="-89.792786">
        <ele>1481.7332</ele>
        <time>2020-07-26T15:42:28Z</time>
      </trkpt>
      <trkpt lat="13.873856" lon="-89.79272">
        <ele>1480.7866</ele>
        <time>2020-07-26T15:42:30Z</time>
      </trkpt>
      <trkpt lat="13.873875" lon="-89.79266">
        <ele>1479.8751</ele>
        <time>2020-07-26T15:42:32Z</time>
      </trkpt>
      <trkpt lat="13.873904" lon="-89.79261">
        <ele>1478.6422</ele>
        <time>2020-07-26T15:42:34Z</time>
      </trkpt>
      <trkpt lat="13.873911" lon="-89.79255">
        <ele>1478.9763</ele>
        <time>2020-07-26T15:42:36Z</time>
      </trkpt>
      <trkpt lat="13.873916" lon="-89.792496">
        <ele>1477.3302</ele>
        <time>2020-07-26T15:42:38Z</time>
      </trkpt>
      <trkpt lat="13.873931" lon="-89.79245">
        <ele>1475.468</ele>
        <time>2020-07-26T15:42:40Z</time>
      </trkpt>
      <trkpt lat="13.873942" lon="-89.7924">
        <ele>1476.3896</ele>
        <time>2020-07-26T15:42:42Z</time>
      </trkpt>
      <trkpt lat="13.873954" lon="-89.79235">
        <ele>1476.6506</ele>
        <time>2020-07-26T15:42:44Z</time>
      </trkpt>
      <trkpt lat="13.873972" lon="-89.792305">
        <ele>1474.9915</ele>
        <time>2020-07-26T15:42:46Z</time>
      </trkpt>
      <trkpt lat="13.874003" lon="-89.79227">
        <ele>1474.453</ele>
        <time>2020-07-26T15:42:48Z</time>
      </trkpt>
      <trkpt lat="13.874043" lon="-89.792244">
        <ele>1474.6399</ele>
        <time>2020-07-26T15:42:50Z</time>
      </trkpt>
      <trkpt lat="13.8741" lon="-89.79221">
        <ele>1472.4323</ele>
        <time>2020-07-26T15:42:53Z</time>
      </trkpt>
      <trkpt lat="13.874125" lon="-89.79217">
        <ele>1476.934</ele>
        <time>2020-07-26T15:42:55Z</time>
      </trkpt>
      <trkpt lat="13.874153" lon="-89.79213">
        <ele>1478.9974</ele>
        <time>2020-07-26T15:42:57Z</time>
      </trkpt>
      <trkpt lat="13.874203" lon="-89.79208">
        <ele>1479.6687</ele>
        <time>2020-07-26T15:43:00Z</time>
      </trkpt>
      <trkpt lat="13.874254" lon="-89.792046">
        <ele>1480.8796</ele>
        <time>2020-07-26T15:43:03Z</time>
      </trkpt>
      <trkpt lat="13.874301" lon="-89.792">
        <ele>1482.8754</ele>
        <time>2020-07-26T15:43:06Z</time>
      </trkpt>
      <trkpt lat="13.874348" lon="-89.79197">
        <ele>1483.4259</ele>
        <time>2020-07-26T15:43:10Z</time>
      </trkpt>
      <trkpt lat="13.874386" lon="-89.79194">
        <ele>1482.3088</ele>
        <time>2020-07-26T15:43:13Z</time>
      </trkpt>
      <trkpt lat="13.874412" lon="-89.7919">
        <ele>1483.3396</ele>
        <time>2020-07-26T15:43:15Z</time>
      </trkpt>
      <trkpt lat="13.874448" lon="-89.79185">
        <ele>1482.7915</ele>
        <time>2020-07-26T15:43:18Z</time>
      </trkpt>
      <trkpt lat="13.874485" lon="-89.791794">
        <ele>1483.3809</ele>
        <time>2020-07-26T15:43:21Z</time>
      </trkpt>
      <trkpt lat="13.874517" lon="-89.79174">
        <ele>1483.7787</ele>
        <time>2020-07-26T15:43:24Z</time>
      </trkpt>
      <trkpt lat="13.874553" lon="-89.79169">
        <ele>1486.8723</ele>
        <time>2020-07-26T15:43:27Z</time>
      </trkpt>
      <trkpt lat="13.8745985" lon="-89.79164">
        <ele>1486.7286</ele>
        <time>2020-07-26T15:43:30Z</time>
      </trkpt>
      <trkpt lat="13.874639" lon="-89.791595">
        <ele>1490.3951</ele>
        <time>2020-07-26T15:43:34Z</time>
      </trkpt>
      <trkpt lat="13.874681" lon="-89.791565">
        <ele>1486.7776</ele>
        <time>2020-07-26T15:43:38Z</time>
      </trkpt>
      <trkpt lat="13.874721" lon="-89.791534">
        <ele>1488.0492</ele>
        <time>2020-07-26T15:43:42Z</time>
      </trkpt>
      <trkpt lat="13.874765" lon="-89.791504">
        <ele>1487.1833</ele>
        <time>2020-07-26T15:43:46Z</time>
      </trkpt>
      <trkpt lat="13.874811" lon="-89.79148">
        <ele>1488.2845</ele>
        <time>2020-07-26T15:43:50Z</time>
      </trkpt>
      <trkpt lat="13.874861" lon="-89.79146">
        <ele>1488.4229</ele>
        <time>2020-07-26T15:43:54Z</time>
      </trkpt>
      <trkpt lat="13.874917" lon="-89.79144">
        <ele>1489.3519</ele>
        <time>2020-07-26T15:43:58Z</time>
      </trkpt>
      <trkpt lat="13.874964" lon="-89.79142">
        <ele>1489.2208</ele>
        <time>2020-07-26T15:44:01Z</time>
      </trkpt>
      <trkpt lat="13.875009" lon="-89.791405">
        <ele>1489.3003</ele>
        <time>2020-07-26T15:44:03Z</time>
      </trkpt>
      <trkpt lat="13.875055" lon="-89.79139">
        <ele>1490.5851</ele>
        <time>2020-07-26T15:44:05Z</time>
      </trkpt>
      <trkpt lat="13.875113" lon="-89.79139">
        <ele>1491.7686</ele>
        <time>2020-07-26T15:44:08Z</time>
      </trkpt>
      <trkpt lat="13.875156" lon="-89.791405">
        <ele>1492.094</ele>
        <time>2020-07-26T15:44:11Z</time>
      </trkpt>
      <trkpt lat="13.875199" lon="-89.79142">
        <ele>1492.6393</ele>
        <time>2020-07-26T15:44:14Z</time>
      </trkpt>
      <trkpt lat="13.875255" lon="-89.79144">
        <ele>1494.1566</ele>
        <time>2020-07-26T15:44:18Z</time>
      </trkpt>
      <trkpt lat="13.875291" lon="-89.79147">
        <ele>1496.3016</ele>
        <time>2020-07-26T15:44:21Z</time>
      </trkpt>
      <trkpt lat="13.875339" lon="-89.79147">
        <ele>1496.6376</ele>
        <time>2020-07-26T15:44:24Z</time>
      </trkpt>
      <trkpt lat="13.875384" lon="-89.79148">
        <ele>1494.4396</ele>
        <time>2020-07-26T15:44:27Z</time>
      </trkpt>
      <trkpt lat="13.875429" lon="-89.791504">
        <ele>1496.595</ele>
        <time>2020-07-26T15:44:31Z</time>
      </trkpt>
      <trkpt lat="13.87548" lon="-89.791504">
        <ele>1496.1752</ele>
        <time>2020-07-26T15:44:35Z</time>
      </trkpt>
      <trkpt lat="13.875531" lon="-89.7915">
        <ele>1499.3694</ele>
        <time>2020-07-26T15:44:39Z</time>
      </trkpt>
      <trkpt lat="13.875545" lon="-89.79149">
        <ele>1499.1179</ele>
        <time>2020-07-26T15:44:40Z</time>
      </trkpt>
      <trkpt lat="13.875589" lon="-89.79145">
        <ele>1501.7246</ele>
        <time>2020-07-26T15:44:44Z</time>
      </trkpt>
      <trkpt lat="13.875599" lon="-89.791435">
        <ele>1501.9478</ele>
        <time>2020-07-26T15:44:45Z</time>
      </trkpt>
      <trkpt lat="13.8756075" lon="-89.79142">
        <ele>1502.685</ele>
        <time>2020-07-26T15:44:46Z</time>
      </trkpt>
      <trkpt lat="13.875614" lon="-89.79141">
        <ele>1502.4598</ele>
        <time>2020-07-26T15:44:47Z</time>
      </trkpt>
      <trkpt lat="13.875619" lon="-89.79135">
        <ele>1500.8369</ele>
        <time>2020-07-26T15:44:51Z</time>
      </trkpt>
      <trkpt lat="13.875656" lon="-89.79132">
        <ele>1501.8899</ele>
        <time>2020-07-26T15:44:55Z</time>
      </trkpt>
      <trkpt lat="13.875677" lon="-89.791275">
        <ele>1500.9291</ele>
        <time>2020-07-26T15:44:59Z</time>
      </trkpt>
      <trkpt lat="13.875677" lon="-89.79126">
        <ele>1500.0537</ele>
        <time>2020-07-26T15:45:00Z</time>
      </trkpt>
      <trkpt lat="13.87572" lon="-89.79123">
        <ele>1501.0951</ele>
        <time>2020-07-26T15:45:05Z</time>
      </trkpt>
      <trkpt lat="13.875777" lon="-89.791245">
        <ele>1500.5928</ele>
        <time>2020-07-26T15:45:09Z</time>
      </trkpt>
      <trkpt lat="13.875829" lon="-89.79125">
        <ele>1497.4908</ele>
        <time>2020-07-26T15:45:13Z</time>
      </trkpt>
      <trkpt lat="13.8758745" lon="-89.79122">
        <ele>1499.806</ele>
        <time>2020-07-26T15:45:17Z</time>
      </trkpt>
      <trkpt lat="13.875913" lon="-89.79119">
        <ele>1500.0824</ele>
        <time>2020-07-26T15:45:20Z</time>
      </trkpt>
      <trkpt lat="13.875964" lon="-89.791176">
        <ele>1500.3242</ele>
        <time>2020-07-26T15:45:24Z</time>
      </trkpt>
      <trkpt lat="13.876012" lon="-89.79115">
        <ele>1501.6918</ele>
        <time>2020-07-26T15:45:28Z</time>
      </trkpt>
      <trkpt lat="13.876059" lon="-89.79113">
        <ele>1503.0536</ele>
        <time>2020-07-26T15:45:32Z</time>
      </trkpt>
      <trkpt lat="13.87607" lon="-89.79113">
        <ele>1503.6956</ele>
        <time>2020-07-26T15:45:33Z</time>
      </trkpt>
      <trkpt lat="13.876081" lon="-89.79113">
        <ele>1504.4108</ele>
        <time>2020-07-26T15:45:34Z</time>
      </trkpt>
      <trkpt lat="13.876091" lon="-89.79114">
        <ele>1504.3556</ele>
        <time>2020-07-26T15:45:35Z</time>
      </trkpt>
      <trkpt lat="13.876138" lon="-89.79115">
        <ele>1504.4517</ele>
        <time>2020-07-26T15:45:39Z</time>
      </trkpt>
      <trkpt lat="13.876151" lon="-89.79115">
        <ele>1504.0566</ele>
        <time>2020-07-26T15:45:40Z</time>
      </trkpt>
      <trkpt lat="13.876205" lon="-89.79116">
        <ele>1504.725</ele>
        <time>2020-07-26T15:45:44Z</time>
      </trkpt>
      <trkpt lat="13.876219" lon="-89.79116">
        <ele>1505.0116</ele>
        <time>2020-07-26T15:45:45Z</time>
      </trkpt>
      <trkpt lat="13.876234" lon="-89.79117">
        <ele>1507.3019</ele>
        <time>2020-07-26T15:45:46Z</time>
      </trkpt>
      <trkpt lat="13.876248" lon="-89.79117">
        <ele>1508.7537</ele>
        <time>2020-07-26T15:45:47Z</time>
      </trkpt>
      <trkpt lat="13.876262" lon="-89.79117">
        <ele>1509.2363</ele>
        <time>2020-07-26T15:45:48Z</time>
      </trkpt>
      <trkpt lat="13.876275" lon="-89.79116">
        <ele>1511.3528</ele>
        <time>2020-07-26T15:45:49Z</time>
      </trkpt>
      <trkpt lat="13.876289" lon="-89.79115">
        <ele>1511.4946</ele>
        <time>2020-07-26T15:45:50Z</time>
      </trkpt>
      <trkpt lat="13.876303" lon="-89.79115">
        <ele>1511.3278</ele>
        <time>2020-07-26T15:45:51Z</time>
      </trkpt>
      <trkpt lat="13.876354" lon="-89.79115">
        <ele>1513.582</ele>
        <time>2020-07-26T15:45:55Z</time>
      </trkpt>
      <trkpt lat="13.876367" lon="-89.791145">
        <ele>1512.7363</ele>
        <time>2020-07-26T15:45:56Z</time>
      </trkpt>
      <trkpt lat="13.876414" lon="-89.79113">
        <ele>1513.6573</ele>
        <time>2020-07-26T15:46:00Z</time>
      </trkpt>
      <trkpt lat="13.876425" lon="-89.79113">
        <ele>1514.3761</ele>
        <time>2020-07-26T15:46:01Z</time>
      </trkpt>
      <trkpt lat="13.876433" lon="-89.79112">
        <ele>1513.5497</ele>
        <time>2020-07-26T15:46:02Z</time>
      </trkpt>
      <trkpt lat="13.876478" lon="-89.79111">
        <ele>1516.4824</ele>
        <time>2020-07-26T15:46:06Z</time>
      </trkpt>
      <trkpt lat="13.876491" lon="-89.79111">
        <ele>1517.0988</ele>
        <time>2020-07-26T15:46:07Z</time>
      </trkpt>
      <trkpt lat="13.876505" lon="-89.79111">
        <ele>1517.1216</ele>
        <time>2020-07-26T15:46:08Z</time>
      </trkpt>
      <trkpt lat="13.876521" lon="-89.791115">
        <ele>1516.1716</ele>
        <time>2020-07-26T15:46:09Z</time>
      </trkpt>
      <trkpt lat="13.876582" lon="-89.791115">
        <ele>1516.0767</ele>
        <time>2020-07-26T15:46:12Z</time>
      </trkpt>
      <trkpt lat="13.87663" lon="-89.79112">
        <ele>1518.532</ele>
        <time>2020-07-26T15:46:15Z</time>
      </trkpt>
      <trkpt lat="13.876646" lon="-89.79112">
        <ele>1520.0118</ele>
        <time>2020-07-26T15:46:16Z</time>
      </trkpt>
      <trkpt lat="13.876662" lon="-89.79113">
        <ele>1520.2499</ele>
        <time>2020-07-26T15:46:17Z</time>
      </trkpt>
      <trkpt lat="13.876679" lon="-89.79114">
        <ele>1520.5833</ele>
        <time>2020-07-26T15:46:18Z</time>
      </trkpt>
      <trkpt lat="13.876693" lon="-89.791145">
        <ele>1521.1034</ele>
        <time>2020-07-26T15:46:19Z</time>
      </trkpt>
      <trkpt lat="13.876706" lon="-89.79115">
        <ele>1522.0148</ele>
        <time>2020-07-26T15:46:20Z</time>
      </trkpt>
      <trkpt lat="13.87672" lon="-89.79115">
        <ele>1521.7175</ele>
        <time>2020-07-26T15:46:21Z</time>
      </trkpt>
      <trkpt lat="13.876755" lon="-89.791115">
        <ele>1519.6418</ele>
        <time>2020-07-26T15:46:25Z</time>
      </trkpt>
      <trkpt lat="13.876797" lon="-89.791084">
        <ele>1519.7305</ele>
        <time>2020-07-26T15:46:29Z</time>
      </trkpt>
      <trkpt lat="13.87684" lon="-89.79106">
        <ele>1522.3419</ele>
        <time>2020-07-26T15:46:33Z</time>
      </trkpt>
      <trkpt lat="13.876851" lon="-89.79106">
        <ele>1522.55</ele>
        <time>2020-07-26T15:46:34Z</time>
      </trkpt>
      <trkpt lat="13.876898" lon="-89.79106">
        <ele>1522.2692</ele>
        <time>2020-07-26T15:46:39Z</time>
      </trkpt>
      <trkpt lat="13.876909" lon="-89.79107">
        <ele>1521.9397</ele>
        <time>2020-07-26T15:46:40Z</time>
      </trkpt>
      <trkpt lat="13.87695" lon="-89.79109">
        <ele>1521.4231</ele>
        <time>2020-07-26T15:46:43Z</time>
      </trkpt>
      <trkpt lat="13.877004" lon="-89.79111">
        <ele>1522.6846</ele>
        <time>2020-07-26T15:46:47Z</time>
      </trkpt>
      <trkpt lat="13.877051" lon="-89.79113">
        <ele>1522.9539</ele>
        <time>2020-07-26T15:46:51Z</time>
      </trkpt>
      <trkpt lat="13.877065" lon="-89.79113">
        <ele>1523.4467</ele>
        <time>2020-07-26T15:46:52Z</time>
      </trkpt>
      <trkpt lat="13.877111" lon="-89.79114">
        <ele>1523.8439</ele>
        <time>2020-07-26T15:46:55Z</time>
      </trkpt>
      <trkpt lat="13.877159" lon="-89.79115">
        <ele>1523.0043</ele>
        <time>2020-07-26T15:46:58Z</time>
      </trkpt>
      <trkpt lat="13.877205" lon="-89.79115">
        <ele>1525.7758</ele>
        <time>2020-07-26T15:47:01Z</time>
      </trkpt>
      <trkpt lat="13.877219" lon="-89.79116">
        <ele>1525.887</ele>
        <time>2020-07-26T15:47:02Z</time>
      </trkpt>
      <trkpt lat="13.877229" lon="-89.79116">
        <ele>1527.9302</ele>
        <time>2020-07-26T15:47:03Z</time>
      </trkpt>
      <trkpt lat="13.877239" lon="-89.79117">
        <ele>1528.3756</ele>
        <time>2020-07-26T15:47:04Z</time>
      </trkpt>
      <trkpt lat="13.877249" lon="-89.79117">
        <ele>1528.8964</ele>
        <time>2020-07-26T15:47:05Z</time>
      </trkpt>
      <trkpt lat="13.877259" lon="-89.79116">
        <ele>1528.2848</ele>
        <time>2020-07-26T15:47:06Z</time>
      </trkpt>
      <trkpt lat="13.877311" lon="-89.79115">
        <ele>1529.981</ele>
        <time>2020-07-26T15:47:11Z</time>
      </trkpt>
      <trkpt lat="13.877318" lon="-89.79114">
        <ele>1529.7046</ele>
        <time>2020-07-26T15:47:12Z</time>
      </trkpt>
      <trkpt lat="13.877373" lon="-89.79113">
        <ele>1529.9363</ele>
        <time>2020-07-26T15:47:17Z</time>
      </trkpt>
      <trkpt lat="13.877386" lon="-89.79114">
        <ele>1530.1659</ele>
        <time>2020-07-26T15:47:18Z</time>
      </trkpt>
      <trkpt lat="13.87744" lon="-89.79115">
        <ele>1531.6074</ele>
        <time>2020-07-26T15:47:22Z</time>
      </trkpt>
      <trkpt lat="13.877454" lon="-89.79116">
        <ele>1531.841</ele>
        <time>2020-07-26T15:47:23Z</time>
      </trkpt>
      <trkpt lat="13.877467" lon="-89.79116">
        <ele>1530.7977</ele>
        <time>2020-07-26T15:47:24Z</time>
      </trkpt>
      <trkpt lat="13.877511" lon="-89.791145">
        <ele>1529.6929</ele>
        <time>2020-07-26T15:47:28Z</time>
      </trkpt>
      <trkpt lat="13.877559" lon="-89.79115">
        <ele>1528.3943</ele>
        <time>2020-07-26T15:47:32Z</time>
      </trkpt>
      <trkpt lat="13.877606" lon="-89.79117">
        <ele>1525.7758</ele>
        <time>2020-07-26T15:47:36Z</time>
      </trkpt>
      <trkpt lat="13.877652" lon="-89.79116">
        <ele>1527.5018</ele>
        <time>2020-07-26T15:47:40Z</time>
      </trkpt>
      <trkpt lat="13.8777" lon="-89.79115">
        <ele>1528.9661</ele>
        <time>2020-07-26T15:47:44Z</time>
      </trkpt>
      <trkpt lat="13.877746" lon="-89.79115">
        <ele>1527.3243</ele>
        <time>2020-07-26T15:47:48Z</time>
      </trkpt>
      <trkpt lat="13.877789" lon="-89.79117">
        <ele>1526.8741</ele>
        <time>2020-07-26T15:47:52Z</time>
      </trkpt>
      <trkpt lat="13.877834" lon="-89.79114">
        <ele>1529.1138</ele>
        <time>2020-07-26T15:47:56Z</time>
      </trkpt>
      <trkpt lat="13.87788" lon="-89.79113">
        <ele>1527.053</ele>
        <time>2020-07-26T15:47:59Z</time>
      </trkpt>
      <trkpt lat="13.877935" lon="-89.79114">
        <ele>1527.1984</ele>
        <time>2020-07-26T15:48:03Z</time>
      </trkpt>
      <trkpt lat="13.877985" lon="-89.791145">
        <ele>1527.4191</ele>
        <time>2020-07-26T15:48:07Z</time>
      </trkpt>
      <trkpt lat="13.878034" lon="-89.79116">
        <ele>1526.5824</ele>
        <time>2020-07-26T15:48:11Z</time>
      </trkpt>
      <trkpt lat="13.878078" lon="-89.79113">
        <ele>1531.071</ele>
        <time>2020-07-26T15:48:15Z</time>
      </trkpt>
      <trkpt lat="13.878146" lon="-89.791115">
        <ele>1533.1981</ele>
        <time>2020-07-26T15:48:18Z</time>
      </trkpt>
      <trkpt lat="13.878169" lon="-89.791115">
        <ele>1533.8112</ele>
        <time>2020-07-26T15:48:19Z</time>
      </trkpt>
      <trkpt lat="13.878193" lon="-89.791115">
        <ele>1532.7701</ele>
        <time>2020-07-26T15:48:20Z</time>
      </trkpt>
      <trkpt lat="13.878242" lon="-89.791115">
        <ele>1534.0828</ele>
        <time>2020-07-26T15:48:22Z</time>
      </trkpt>
      <trkpt lat="13.878264" lon="-89.791115">
        <ele>1534.4047</ele>
        <time>2020-07-26T15:48:23Z</time>
      </trkpt>
      <trkpt lat="13.878286" lon="-89.79112">
        <ele>1534.5692</ele>
        <time>2020-07-26T15:48:24Z</time>
      </trkpt>
      <trkpt lat="13.878306" lon="-89.79112">
        <ele>1536.4386</ele>
        <time>2020-07-26T15:48:25Z</time>
      </trkpt>
      <trkpt lat="13.878325" lon="-89.79112">
        <ele>1537.4495</ele>
        <time>2020-07-26T15:48:26Z</time>
      </trkpt>
      <trkpt lat="13.8783455" lon="-89.79112">
        <ele>1538.5211</ele>
        <time>2020-07-26T15:48:27Z</time>
      </trkpt>
      <trkpt lat="13.878365" lon="-89.79113">
        <ele>1539.3684</ele>
        <time>2020-07-26T15:48:28Z</time>
      </trkpt>
      <trkpt lat="13.878383" lon="-89.79114">
        <ele>1539.9623</ele>
        <time>2020-07-26T15:48:29Z</time>
      </trkpt>
      <trkpt lat="13.878401" lon="-89.79115">
        <ele>1540.2797</ele>
        <time>2020-07-26T15:48:30Z</time>
      </trkpt>
      <trkpt lat="13.878418" lon="-89.79116">
        <ele>1541.98</ele>
        <time>2020-07-26T15:48:31Z</time>
      </trkpt>
      <trkpt lat="13.878435" lon="-89.791176">
        <ele>1542.3773</ele>
        <time>2020-07-26T15:48:32Z</time>
      </trkpt>
      <trkpt lat="13.878453" lon="-89.79119">
        <ele>1542.3088</ele>
        <time>2020-07-26T15:48:33Z</time>
      </trkpt>
      <trkpt lat="13.878488" lon="-89.79122">
        <ele>1541.7583</ele>
        <time>2020-07-26T15:48:35Z</time>
      </trkpt>
      <trkpt lat="13.878502" lon="-89.79124">
        <ele>1541.4259</ele>
        <time>2020-07-26T15:48:36Z</time>
      </trkpt>
      <trkpt lat="13.878555" lon="-89.791245">
        <ele>1542.6947</ele>
        <time>2020-07-26T15:48:49Z</time>
      </trkpt>
      <trkpt lat="13.878584" lon="-89.79126">
        <ele>1543.216</ele>
        <time>2020-07-26T15:48:50Z</time>
      </trkpt>
      <trkpt lat="13.878643" lon="-89.79128">
        <ele>1544.934</ele>
        <time>2020-07-26T15:48:52Z</time>
      </trkpt>
      <trkpt lat="13.878674" lon="-89.79128">
        <ele>1545.0946</ele>
        <time>2020-07-26T15:48:53Z</time>
      </trkpt>
      <trkpt lat="13.878703" lon="-89.79129">
        <ele>1545.924</ele>
        <time>2020-07-26T15:48:54Z</time>
      </trkpt>
      <trkpt lat="13.878731" lon="-89.791306">
        <ele>1546.8667</ele>
        <time>2020-07-26T15:48:55Z</time>
      </trkpt>
      <trkpt lat="13.8787565" lon="-89.79131">
        <ele>1547.8286</ele>
        <time>2020-07-26T15:48:56Z</time>
      </trkpt>
      <trkpt lat="13.878784" lon="-89.79132">
        <ele>1547.0134</ele>
        <time>2020-07-26T15:48:57Z</time>
      </trkpt>
      <trkpt lat="13.878836" lon="-89.791336">
        <ele>1546.3317</ele>
        <time>2020-07-26T15:48:59Z</time>
      </trkpt>
      <trkpt lat="13.878884" lon="-89.79136">
        <ele>1544.8096</ele>
        <time>2020-07-26T15:49:01Z</time>
      </trkpt>
      <trkpt lat="13.878934" lon="-89.79137">
        <ele>1544.3324</ele>
        <time>2020-07-26T15:49:03Z</time>
      </trkpt>
      <trkpt lat="13.878981" lon="-89.79136">
        <ele>1544.69</ele>
        <time>2020-07-26T15:49:05Z</time>
      </trkpt>
      <trkpt lat="13.879047" lon="-89.79136">
        <ele>1545.8381</ele>
        <time>2020-07-26T15:49:08Z</time>
      </trkpt>
      <trkpt lat="13.87909" lon="-89.791374">
        <ele>1546.7909</ele>
        <time>2020-07-26T15:49:10Z</time>
      </trkpt>
      <trkpt lat="13.879135" lon="-89.79138">
        <ele>1547.4613</ele>
        <time>2020-07-26T15:49:12Z</time>
      </trkpt>
      <trkpt lat="13.879188" lon="-89.79138">
        <ele>1548.8203</ele>
        <time>2020-07-26T15:49:14Z</time>
      </trkpt>
      <trkpt lat="13.879214" lon="-89.79138">
        <ele>1549.0061</ele>
        <time>2020-07-26T15:49:15Z</time>
      </trkpt>
      <trkpt lat="13.879242" lon="-89.79138">
        <ele>1548.2871</ele>
        <time>2020-07-26T15:49:16Z</time>
      </trkpt>
      <trkpt lat="13.879292" lon="-89.79139">
        <ele>1548.0398</ele>
        <time>2020-07-26T15:49:18Z</time>
      </trkpt>
      <trkpt lat="13.879338" lon="-89.79141">
        <ele>1546.8989</ele>
        <time>2020-07-26T15:49:20Z</time>
      </trkpt>
      <trkpt lat="13.879383" lon="-89.79143">
        <ele>1546.6543</ele>
        <time>2020-07-26T15:49:22Z</time>
      </trkpt>
      <trkpt lat="13.879422" lon="-89.79146">
        <ele>1547.2626</ele>
        <time>2020-07-26T15:49:24Z</time>
      </trkpt>
      <trkpt lat="13.879466" lon="-89.79149">
        <ele>1547.0989</ele>
        <time>2020-07-26T15:49:26Z</time>
      </trkpt>
      <trkpt lat="13.879522" lon="-89.791504">
        <ele>1546.733</ele>
        <time>2020-07-26T15:49:28Z</time>
      </trkpt>
      <trkpt lat="13.8795805" lon="-89.7915">
        <ele>1544.6149</ele>
        <time>2020-07-26T15:49:30Z</time>
      </trkpt>
      <trkpt lat="13.879637" lon="-89.7915">
        <ele>1545.2805</ele>
        <time>2020-07-26T15:49:32Z</time>
      </trkpt>
      <trkpt lat="13.879691" lon="-89.791504">
        <ele>1545.3228</ele>
        <time>2020-07-26T15:49:34Z</time>
      </trkpt>
      <trkpt lat="13.879743" lon="-89.7915">
        <ele>1545.0227</ele>
        <time>2020-07-26T15:49:36Z</time>
      </trkpt>
      <trkpt lat="13.879795" lon="-89.791504">
        <ele>1542.8687</ele>
        <time>2020-07-26T15:49:38Z</time>
      </trkpt>
      <trkpt lat="13.879846" lon="-89.7915">
        <ele>1543.7562</ele>
        <time>2020-07-26T15:49:40Z</time>
      </trkpt>
      <trkpt lat="13.879898" lon="-89.79149">
        <ele>1545.1334</ele>
        <time>2020-07-26T15:49:42Z</time>
      </trkpt>
      <trkpt lat="13.879951" lon="-89.79148">
        <ele>1545.1573</ele>
        <time>2020-07-26T15:49:44Z</time>
      </trkpt>
      <trkpt lat="13.880004" lon="-89.79148">
        <ele>1544.1112</ele>
        <time>2020-07-26T15:49:46Z</time>
      </trkpt>
      <trkpt lat="13.880055" lon="-89.79148">
        <ele>1545.0825</ele>
        <time>2020-07-26T15:49:48Z</time>
      </trkpt>
      <trkpt lat="13.880105" lon="-89.79149">
        <ele>1544.5405</ele>
        <time>2020-07-26T15:49:50Z</time>
      </trkpt>
      <trkpt lat="13.880158" lon="-89.79149">
        <ele>1545.1346</ele>
        <time>2020-07-26T15:49:52Z</time>
      </trkpt>
      <trkpt lat="13.880216" lon="-89.79148">
        <ele>1545.3063</ele>
        <time>2020-07-26T15:49:54Z</time>
      </trkpt>
      <trkpt lat="13.88027" lon="-89.79146">
        <ele>1545.3514</ele>
        <time>2020-07-26T15:49:56Z</time>
      </trkpt>
      <trkpt lat="13.8803215" lon="-89.79144">
        <ele>1546.1196</ele>
        <time>2020-07-26T15:49:58Z</time>
      </trkpt>
      <trkpt lat="13.88037" lon="-89.79145">
        <ele>1545.969</ele>
        <time>2020-07-26T15:50:00Z</time>
      </trkpt>
      <trkpt lat="13.880417" lon="-89.79148">
        <ele>1546.6681</ele>
        <time>2020-07-26T15:50:02Z</time>
      </trkpt>
      <trkpt lat="13.880458" lon="-89.79151">
        <ele>1546.7455</ele>
        <time>2020-07-26T15:50:04Z</time>
      </trkpt>
      <trkpt lat="13.880485" lon="-89.791565">
        <ele>1546.9834</ele>
        <time>2020-07-26T15:50:06Z</time>
      </trkpt>
      <trkpt lat="13.880518" lon="-89.7916">
        <ele>1545.8638</ele>
        <time>2020-07-26T15:50:08Z</time>
      </trkpt>
      <trkpt lat="13.8805685" lon="-89.7916">
        <ele>1546.5986</ele>
        <time>2020-07-26T15:50:10Z</time>
      </trkpt>
      <trkpt lat="13.88062" lon="-89.791595">
        <ele>1547.2533</ele>
        <time>2020-07-26T15:50:12Z</time>
      </trkpt>
      <trkpt lat="13.880671" lon="-89.79157">
        <ele>1547.1384</ele>
        <time>2020-07-26T15:50:14Z</time>
      </trkpt>
      <trkpt lat="13.88072" lon="-89.79155">
        <ele>1549.1362</ele>
        <time>2020-07-26T15:50:16Z</time>
      </trkpt>
      <trkpt lat="13.880743" lon="-89.791534">
        <ele>1549.2808</ele>
        <time>2020-07-26T15:50:17Z</time>
      </trkpt>
      <trkpt lat="13.88076" lon="-89.79152">
        <ele>1549.9082</ele>
        <time>2020-07-26T15:50:18Z</time>
      </trkpt>
      <trkpt lat="13.880774" lon="-89.79151">
        <ele>1550.1177</ele>
        <time>2020-07-26T15:50:19Z</time>
      </trkpt>
      <trkpt lat="13.880787" lon="-89.7915">
        <ele>1551.0234</ele>
        <time>2020-07-26T15:50:20Z</time>
      </trkpt>
      <trkpt lat="13.880798" lon="-89.79148">
        <ele>1551.8623</ele>
        <time>2020-07-26T15:50:21Z</time>
      </trkpt>
      <trkpt lat="13.880809" lon="-89.791466">
        <ele>1552.4072</ele>
        <time>2020-07-26T15:50:22Z</time>
      </trkpt>
      <trkpt lat="13.880819" lon="-89.79145">
        <ele>1552.7896</ele>
        <time>2020-07-26T15:50:23Z</time>
      </trkpt>
      <trkpt lat="13.880831" lon="-89.79144">
        <ele>1552.6985</ele>
        <time>2020-07-26T15:50:24Z</time>
      </trkpt>
      <trkpt lat="13.880877" lon="-89.79144">
        <ele>1552.0574</ele>
        <time>2020-07-26T15:50:27Z</time>
      </trkpt>
      <trkpt lat="13.880892" lon="-89.79145">
        <ele>1552.2966</ele>
        <time>2020-07-26T15:50:28Z</time>
      </trkpt>
      <trkpt lat="13.880947" lon="-89.791466">
        <ele>1549.2661</ele>
        <time>2020-07-26T15:50:32Z</time>
      </trkpt>
      <trkpt lat="13.880986" lon="-89.79142">
        <ele>1548.4448</ele>
        <time>2020-07-26T15:50:36Z</time>
      </trkpt>
      <trkpt lat="13.881011" lon="-89.791374">
        <ele>1548.228</ele>
        <time>2020-07-26T15:50:40Z</time>
      </trkpt>
      <trkpt lat="13.881026" lon="-89.79132">
        <ele>1548.9451</ele>
        <time>2020-07-26T15:50:44Z</time>
      </trkpt>
      <trkpt lat="13.881035" lon="-89.79127">
        <ele>1549.3735</ele>
        <time>2020-07-26T15:50:48Z</time>
      </trkpt>
      <trkpt lat="13.881026" lon="-89.791214">
        <ele>1548.5422</ele>
        <time>2020-07-26T15:50:52Z</time>
      </trkpt>
      <trkpt lat="13.881002" lon="-89.79116">
        <ele>1549.1399</ele>
        <time>2020-07-26T15:50:56Z</time>
      </trkpt>
      <trkpt lat="13.880976" lon="-89.79112">
        <ele>1549.293</ele>
        <time>2020-07-26T15:51:00Z</time>
      </trkpt>
      <trkpt lat="13.8809395" lon="-89.791084">
        <ele>1549.8872</ele>
        <time>2020-07-26T15:51:04Z</time>
      </trkpt>
      <trkpt lat="13.88093" lon="-89.791016">
        <ele>1550.1047</ele>
        <time>2020-07-26T15:51:08Z</time>
      </trkpt>
      <trkpt lat="13.880888" lon="-89.790985">
        <ele>1552.084</ele>
        <time>2020-07-26T15:51:10Z</time>
      </trkpt>
      <trkpt lat="13.880842" lon="-89.79097">
        <ele>1553.6963</ele>
        <time>2020-07-26T15:51:12Z</time>
      </trkpt>
      <trkpt lat="13.880817" lon="-89.79097">
        <ele>1554.1333</ele>
        <time>2020-07-26T15:51:13Z</time>
      </trkpt>
      <trkpt lat="13.8807955" lon="-89.79096">
        <ele>1556.0227</ele>
        <time>2020-07-26T15:51:14Z</time>
      </trkpt>
      <trkpt lat="13.8807745" lon="-89.79095">
        <ele>1556.2695</ele>
        <time>2020-07-26T15:51:15Z</time>
      </trkpt>
      <trkpt lat="13.880754" lon="-89.79094">
        <ele>1558.3335</ele>
        <time>2020-07-26T15:51:16Z</time>
      </trkpt>
      <trkpt lat="13.880735" lon="-89.79093">
        <ele>1558.1973</ele>
        <time>2020-07-26T15:51:17Z</time>
      </trkpt>
      <trkpt lat="13.880679" lon="-89.79092">
        <ele>1556.3677</ele>
        <time>2020-07-26T15:51:20Z</time>
      </trkpt>
      <trkpt lat="13.88063" lon="-89.79087">
        <ele>1558.1792</ele>
        <time>2020-07-26T15:51:23Z</time>
      </trkpt>
      <trkpt lat="13.880589" lon="-89.79085">
        <ele>1557.1936</ele>
        <time>2020-07-26T15:51:26Z</time>
      </trkpt>
      <trkpt lat="13.880581" lon="-89.79083">
        <ele>1556.9087</ele>
        <time>2020-07-26T15:51:27Z</time>
      </trkpt>
      <trkpt lat="13.880555" lon="-89.790794">
        <ele>1557.6616</ele>
        <time>2020-07-26T15:51:30Z</time>
      </trkpt>
      <trkpt lat="13.880537" lon="-89.79074">
        <ele>1557.8123</ele>
        <time>2020-07-26T15:51:34Z</time>
      </trkpt>
      <trkpt lat="13.880498" lon="-89.79071">
        <ele>1560.3042</ele>
        <time>2020-07-26T15:51:38Z</time>
      </trkpt>
      <trkpt lat="13.88049" lon="-89.7907">
        <ele>1560.0518</ele>
        <time>2020-07-26T15:51:39Z</time>
      </trkpt>
      <trkpt lat="13.880456" lon="-89.790665">
        <ele>1562.8982</ele>
        <time>2020-07-26T15:51:44Z</time>
      </trkpt>
      <trkpt lat="13.880448" lon="-89.79066">
        <ele>1562.6995</ele>
        <time>2020-07-26T15:51:45Z</time>
      </trkpt>
      <trkpt lat="13.880403" lon="-89.79061">
        <ele>1562.138</ele>
        <time>2020-07-26T15:51:48Z</time>
      </trkpt>
      <trkpt lat="13.880343" lon="-89.79061">
        <ele>1564.5664</ele>
        <time>2020-07-26T15:51:51Z</time>
      </trkpt>
      <trkpt lat="13.880324" lon="-89.79061">
        <ele>1565.1067</ele>
        <time>2020-07-26T15:51:52Z</time>
      </trkpt>
      <trkpt lat="13.880308" lon="-89.79062">
        <ele>1563.6013</ele>
        <time>2020-07-26T15:51:53Z</time>
      </trkpt>
      <trkpt lat="13.88026" lon="-89.790596">
        <ele>1563.2104</ele>
        <time>2020-07-26T15:51:56Z</time>
      </trkpt>
      <trkpt lat="13.880234" lon="-89.79056">
        <ele>1564.1719</ele>
        <time>2020-07-26T15:51:58Z</time>
      </trkpt>
      <trkpt lat="13.880216" lon="-89.79051">
        <ele>1565.3003</ele>
        <time>2020-07-26T15:52:00Z</time>
      </trkpt>
      <trkpt lat="13.880204" lon="-89.79049">
        <ele>1564.8062</ele>
        <time>2020-07-26T15:52:01Z</time>
      </trkpt>
      <trkpt lat="13.880177" lon="-89.79045">
        <ele>1565.2104</ele>
        <time>2020-07-26T15:52:03Z</time>
      </trkpt>
      <trkpt lat="13.880151" lon="-89.79041">
        <ele>1564.0361</ele>
        <time>2020-07-26T15:52:05Z</time>
      </trkpt>
      <trkpt lat="13.880133" lon="-89.79037">
        <ele>1562.273</ele>
        <time>2020-07-26T15:52:07Z</time>
      </trkpt>
      <trkpt lat="13.880124" lon="-89.79031">
        <ele>1561.8511</ele>
        <time>2020-07-26T15:52:09Z</time>
      </trkpt>
      <trkpt lat="13.88009" lon="-89.79026">
        <ele>1561.979</ele>
        <time>2020-07-26T15:52:12Z</time>
      </trkpt>
      <trkpt lat="13.880083" lon="-89.790215">
        <ele>1563.1409</ele>
        <time>2020-07-26T15:52:16Z</time>
      </trkpt>
      <trkpt lat="13.880129" lon="-89.79019">
        <ele>1566.9817</ele>
        <time>2020-07-26T15:52:20Z</time>
      </trkpt>
      <trkpt lat="13.880141" lon="-89.79019">
        <ele>1567.811</ele>
        <time>2020-07-26T15:52:21Z</time>
      </trkpt>
      <trkpt lat="13.880155" lon="-89.79019">
        <ele>1567.292</ele>
        <time>2020-07-26T15:52:22Z</time>
      </trkpt>
      <trkpt lat="13.880199" lon="-89.7902">
        <ele>1567.562</ele>
        <time>2020-07-26T15:52:26Z</time>
      </trkpt>
      <trkpt lat="13.880208" lon="-89.79021">
        <ele>1567.408</ele>
        <time>2020-07-26T15:52:27Z</time>
      </trkpt>
      <trkpt lat="13.880251" lon="-89.790245">
        <ele>1569.8638</ele>
        <time>2020-07-26T15:52:32Z</time>
      </trkpt>
      <trkpt lat="13.880261" lon="-89.79025">
        <ele>1569.3943</ele>
        <time>2020-07-26T15:52:33Z</time>
      </trkpt>
      <trkpt lat="13.880294" lon="-89.79029">
        <ele>1566.1987</ele>
        <time>2020-07-26T15:52:36Z</time>
      </trkpt>
      <trkpt lat="13.880343" lon="-89.79031">
        <ele>1567.0796</ele>
        <time>2020-07-26T15:52:40Z</time>
      </trkpt>
      <trkpt lat="13.880395" lon="-89.79034">
        <ele>1566.666</ele>
        <time>2020-07-26T15:52:44Z</time>
      </trkpt>
      <trkpt lat="13.880447" lon="-89.790344">
        <ele>1564.1484</ele>
        <time>2020-07-26T15:52:48Z</time>
      </trkpt>
      <trkpt lat="13.880495" lon="-89.79037">
        <ele>1565.5742</ele>
        <time>2020-07-26T15:52:52Z</time>
      </trkpt>
      <trkpt lat="13.88054" lon="-89.790405">
        <ele>1566.8608</ele>
        <time>2020-07-26T15:52:56Z</time>
      </trkpt>
      <trkpt lat="13.8805895" lon="-89.79043">
        <ele>1565.9441</ele>
        <time>2020-07-26T15:53:00Z</time>
      </trkpt>
      <trkpt lat="13.880635" lon="-89.79044">
        <ele>1566.8286</ele>
        <time>2020-07-26T15:53:05Z</time>
      </trkpt>
      <trkpt lat="13.8806925" lon="-89.79044">
        <ele>1564.9248</ele>
        <time>2020-07-26T15:53:10Z</time>
      </trkpt>
      <trkpt lat="13.88074" lon="-89.79045">
        <ele>1564.1353</ele>
        <time>2020-07-26T15:53:14Z</time>
      </trkpt>
      <trkpt lat="13.880786" lon="-89.79045">
        <ele>1561.9048</ele>
        <time>2020-07-26T15:53:17Z</time>
      </trkpt>
      <trkpt lat="13.880831" lon="-89.79044">
        <ele>1562.0068</ele>
        <time>2020-07-26T15:53:20Z</time>
      </trkpt>
      <trkpt lat="13.880891" lon="-89.79044">
        <ele>1558.7134</ele>
        <time>2020-07-26T15:53:24Z</time>
      </trkpt>
      <trkpt lat="13.880938" lon="-89.79044">
        <ele>1559.0708</ele>
        <time>2020-07-26T15:53:27Z</time>
      </trkpt>
      <trkpt lat="13.880988" lon="-89.79045">
        <ele>1558.0859</ele>
        <time>2020-07-26T15:53:30Z</time>
      </trkpt>
      <trkpt lat="13.881038" lon="-89.79044">
        <ele>1556.4365</ele>
        <time>2020-07-26T15:53:34Z</time>
      </trkpt>
      <trkpt lat="13.881096" lon="-89.79042">
        <ele>1559.822</ele>
        <time>2020-07-26T15:53:38Z</time>
      </trkpt>
      <trkpt lat="13.881142" lon="-89.79041">
        <ele>1560.4268</ele>
        <time>2020-07-26T15:53:40Z</time>
      </trkpt>
      <trkpt lat="13.881208" lon="-89.79043">
        <ele>1560.5498</ele>
        <time>2020-07-26T15:53:43Z</time>
      </trkpt>
      <trkpt lat="13.881257" lon="-89.79045">
        <ele>1560.2778</ele>
        <time>2020-07-26T15:53:46Z</time>
      </trkpt>
      <trkpt lat="13.881303" lon="-89.79045">
        <ele>1561.9939</ele>
        <time>2020-07-26T15:53:49Z</time>
      </trkpt>
      <trkpt lat="13.881358" lon="-89.79046">
        <ele>1564.4004</ele>
        <time>2020-07-26T15:53:53Z</time>
      </trkpt>
      <trkpt lat="13.881404" lon="-89.79048">
        <ele>1562.6416</ele>
        <time>2020-07-26T15:53:57Z</time>
      </trkpt>
      <trkpt lat="13.881445" lon="-89.790504">
        <ele>1562.3706</ele>
        <time>2020-07-26T15:54:01Z</time>
      </trkpt>
      <trkpt lat="13.881493" lon="-89.790504">
        <ele>1564.043</ele>
        <time>2020-07-26T15:54:05Z</time>
      </trkpt>
      <trkpt lat="13.881542" lon="-89.7905">
        <ele>1563.6963</ele>
        <time>2020-07-26T15:54:09Z</time>
      </trkpt>
      <trkpt lat="13.881591" lon="-89.79049">
        <ele>1563.5093</ele>
        <time>2020-07-26T15:54:13Z</time>
      </trkpt>
      <trkpt lat="13.881637" lon="-89.790474">
        <ele>1565.0586</ele>
        <time>2020-07-26T15:54:17Z</time>
      </trkpt>
      <trkpt lat="13.881697" lon="-89.79048">
        <ele>1567.3232</ele>
        <time>2020-07-26T15:54:21Z</time>
      </trkpt>
      <trkpt lat="13.881765" lon="-89.790474">
        <ele>1572.0598</ele>
        <time>2020-07-26T15:54:24Z</time>
      </trkpt>
      <trkpt lat="13.88179" lon="-89.79048">
        <ele>1576.6357</ele>
        <time>2020-07-26T15:54:25Z</time>
      </trkpt>
      <trkpt lat="13.881816" lon="-89.79049">
        <ele>1575.4094</ele>
        <time>2020-07-26T15:54:26Z</time>
      </trkpt>
      <trkpt lat="13.881865" lon="-89.79052">
        <ele>1575.2456</ele>
        <time>2020-07-26T15:54:29Z</time>
      </trkpt>
      <trkpt lat="13.881905" lon="-89.79054">
        <ele>1577.0508</ele>
        <time>2020-07-26T15:54:32Z</time>
      </trkpt>
      <trkpt lat="13.881923" lon="-89.79054">
        <ele>1580.2896</ele>
        <time>2020-07-26T15:54:33Z</time>
      </trkpt>
      <trkpt lat="13.88194" lon="-89.79054">
        <ele>1579.6616</ele>
        <time>2020-07-26T15:54:34Z</time>
      </trkpt>
      <trkpt lat="13.881993" lon="-89.79055">
        <ele>1579.7764</ele>
        <time>2020-07-26T15:54:38Z</time>
      </trkpt>
      <trkpt lat="13.882011" lon="-89.79055">
        <ele>1577.4868</ele>
        <time>2020-07-26T15:54:39Z</time>
      </trkpt>
      <trkpt lat="13.882055" lon="-89.790565">
        <ele>1578.333</ele>
        <time>2020-07-26T15:54:41Z</time>
      </trkpt>
      <trkpt lat="13.882117" lon="-89.79058">
        <ele>1579.958</ele>
        <time>2020-07-26T15:54:44Z</time>
      </trkpt>
      <trkpt lat="13.882179" lon="-89.79056">
        <ele>1578.0742</ele>
        <time>2020-07-26T15:54:47Z</time>
      </trkpt>
      <trkpt lat="13.882224" lon="-89.790535">
        <ele>1578.428</ele>
        <time>2020-07-26T15:54:49Z</time>
      </trkpt>
      <trkpt lat="13.88227" lon="-89.79053">
        <ele>1578.0684</ele>
        <time>2020-07-26T15:54:51Z</time>
      </trkpt>
      <trkpt lat="13.882315" lon="-89.79052">
        <ele>1574.7319</ele>
        <time>2020-07-26T15:54:53Z</time>
      </trkpt>
      <trkpt lat="13.882374" lon="-89.79051">
        <ele>1574.2361</ele>
        <time>2020-07-26T15:54:56Z</time>
      </trkpt>
      <trkpt lat="13.882424" lon="-89.790504">
        <ele>1576.5234</ele>
        <time>2020-07-26T15:54:59Z</time>
      </trkpt>
      <trkpt lat="13.88247" lon="-89.790474">
        <ele>1577.905</ele>
        <time>2020-07-26T15:55:02Z</time>
      </trkpt>
      <trkpt lat="13.882522" lon="-89.79046">
        <ele>1579.1216</ele>
        <time>2020-07-26T15:55:05Z</time>
      </trkpt>
      <trkpt lat="13.882567" lon="-89.79045">
        <ele>1578.573</ele>
        <time>2020-07-26T15:55:09Z</time>
      </trkpt>
      <trkpt lat="13.882623" lon="-89.79046">
        <ele>1581.0117</ele>
        <time>2020-07-26T15:55:14Z</time>
      </trkpt>
      <trkpt lat="13.882634" lon="-89.79046">
        <ele>1581.5857</ele>
        <time>2020-07-26T15:55:15Z</time>
      </trkpt>
      <trkpt lat="13.882647" lon="-89.79047">
        <ele>1581.2058</ele>
        <time>2020-07-26T15:55:16Z</time>
      </trkpt>
      <trkpt lat="13.882682" lon="-89.7905">
        <ele>1582.2485</ele>
        <time>2020-07-26T15:55:21Z</time>
      </trkpt>
      <trkpt lat="13.882692" lon="-89.790504">
        <ele>1580.8452</ele>
        <time>2020-07-26T15:55:22Z</time>
      </trkpt>
      <trkpt lat="13.882739" lon="-89.790504">
        <ele>1591.0986</ele>
        <time>2020-07-26T15:55:26Z</time>
      </trkpt>
      <trkpt lat="13.8827505" lon="-89.790504">
        <ele>1589.8872</ele>
        <time>2020-07-26T15:55:27Z</time>
      </trkpt>
      <trkpt lat="13.882794" lon="-89.79052">
        <ele>1590.5474</ele>
        <time>2020-07-26T15:55:31Z</time>
      </trkpt>
      <trkpt lat="13.882849" lon="-89.79053">
        <ele>1596.9238</ele>
        <time>2020-07-26T15:55:36Z</time>
      </trkpt>
      <trkpt lat="13.882859" lon="-89.790535">
        <ele>1597.0947</ele>
        <time>2020-07-26T15:55:37Z</time>
      </trkpt>
      <trkpt lat="13.882869" lon="-89.790535">
        <ele>1597.958</ele>
        <time>2020-07-26T15:55:38Z</time>
      </trkpt>
      <trkpt lat="13.882877" lon="-89.79054">
        <ele>1598.7905</ele>
        <time>2020-07-26T15:55:39Z</time>
      </trkpt>
      <trkpt lat="13.882886" lon="-89.79055">
        <ele>1598.5444</ele>
        <time>2020-07-26T15:55:40Z</time>
      </trkpt>
      <trkpt lat="13.882939" lon="-89.79056">
        <ele>1594.5879</ele>
        <time>2020-07-26T15:55:45Z</time>
      </trkpt>
      <trkpt lat="13.882985" lon="-89.79054">
        <ele>1593.5034</ele>
        <time>2020-07-26T15:55:49Z</time>
      </trkpt>
      <trkpt lat="13.883023" lon="-89.79051">
        <ele>1593.06</ele>
        <time>2020-07-26T15:55:53Z</time>
      </trkpt>
      <trkpt lat="13.883065" lon="-89.79048">
        <ele>1593.4226</ele>
        <time>2020-07-26T15:55:57Z</time>
      </trkpt>
      <trkpt lat="13.883101" lon="-89.79045">
        <ele>1592.0876</ele>
        <time>2020-07-26T15:56:02Z</time>
      </trkpt>
      <trkpt lat="13.8831215" lon="-89.790405">
        <ele>1593.3745</ele>
        <time>2020-07-26T15:56:05Z</time>
      </trkpt>
      <trkpt lat="13.883139" lon="-89.79035">
        <ele>1592.238</ele>
        <time>2020-07-26T15:56:09Z</time>
      </trkpt>
      <trkpt lat="13.883124" lon="-89.790306">
        <ele>1591.0913</ele>
        <time>2020-07-26T15:56:13Z</time>
      </trkpt>
      <trkpt lat="13.88309" lon="-89.79026">
        <ele>1593.2839</ele>
        <time>2020-07-26T15:56:17Z</time>
      </trkpt>
      <trkpt lat="13.883063" lon="-89.79022">
        <ele>1593.1279</ele>
        <time>2020-07-26T15:56:20Z</time>
      </trkpt>
      <trkpt lat="13.883052" lon="-89.79018">
        <ele>1592.9075</ele>
        <time>2020-07-26T15:56:24Z</time>
      </trkpt>
      <trkpt lat="13.883041" lon="-89.79013">
        <ele>1594.2139</ele>
        <time>2020-07-26T15:56:27Z</time>
      </trkpt>
      <trkpt lat="13.883032" lon="-89.79008">
        <ele>1595.2322</ele>
        <time>2020-07-26T15:56:31Z</time>
      </trkpt>
      <trkpt lat="13.883051" lon="-89.79002">
        <ele>1594.1572</ele>
        <time>2020-07-26T15:56:35Z</time>
      </trkpt>
      <trkpt lat="13.883071" lon="-89.78998">
        <ele>1594.5693</ele>
        <time>2020-07-26T15:56:38Z</time>
      </trkpt>
      <trkpt lat="13.883118" lon="-89.78994">
        <ele>1595.6172</ele>
        <time>2020-07-26T15:56:42Z</time>
      </trkpt>
      <trkpt lat="13.883162" lon="-89.78992">
        <ele>1597.2935</ele>
        <time>2020-07-26T15:56:44Z</time>
      </trkpt>
      <trkpt lat="13.883211" lon="-89.7899">
        <ele>1598.2734</ele>
        <time>2020-07-26T15:56:46Z</time>
      </trkpt>
      <trkpt lat="13.883258" lon="-89.78989">
        <ele>1598.94</ele>
        <time>2020-07-26T15:56:48Z</time>
      </trkpt>
      <trkpt lat="13.883281" lon="-89.78988">
        <ele>1599.3701</ele>
        <time>2020-07-26T15:56:49Z</time>
      </trkpt>
      <trkpt lat="13.883301" lon="-89.78986">
        <ele>1599.3738</ele>
        <time>2020-07-26T15:56:50Z</time>
      </trkpt>
      <trkpt lat="13.883322" lon="-89.78985">
        <ele>1599.5537</ele>
        <time>2020-07-26T15:56:51Z</time>
      </trkpt>
      <trkpt lat="13.883342" lon="-89.78983">
        <ele>1599.7373</ele>
        <time>2020-07-26T15:56:52Z</time>
      </trkpt>
      <trkpt lat="13.883363" lon="-89.789825">
        <ele>1599.353</ele>
        <time>2020-07-26T15:56:53Z</time>
      </trkpt>
      <trkpt lat="13.883404" lon="-89.7898">
        <ele>1597.229</ele>
        <time>2020-07-26T15:56:55Z</time>
      </trkpt>
      <trkpt lat="13.883441" lon="-89.789764">
        <ele>1595.8989</ele>
        <time>2020-07-26T15:56:57Z</time>
      </trkpt>
      <trkpt lat="13.883463" lon="-89.78971">
        <ele>1598.4238</ele>
        <time>2020-07-26T15:56:59Z</time>
      </trkpt>
      <trkpt lat="13.883477" lon="-89.78965">
        <ele>1597.9492</ele>
        <time>2020-07-26T15:57:01Z</time>
      </trkpt>
      <trkpt lat="13.8835" lon="-89.7896">
        <ele>1597.1738</ele>
        <time>2020-07-26T15:57:03Z</time>
      </trkpt>
      <trkpt lat="13.883528" lon="-89.78955">
        <ele>1598.7341</ele>
        <time>2020-07-26T15:57:05Z</time>
      </trkpt>
      <trkpt lat="13.883544" lon="-89.7895">
        <ele>1600.0659</ele>
        <time>2020-07-26T15:57:07Z</time>
      </trkpt>
      <trkpt lat="13.883544" lon="-89.78947">
        <ele>1602.4116</ele>
        <time>2020-07-26T15:57:08Z</time>
      </trkpt>
      <trkpt lat="13.883537" lon="-89.789444">
        <ele>1603.3274</ele>
        <time>2020-07-26T15:57:09Z</time>
      </trkpt>
      <trkpt lat="13.883524" lon="-89.78941">
        <ele>1602.8716</ele>
        <time>2020-07-26T15:57:10Z</time>
      </trkpt>
      <trkpt lat="13.883485" lon="-89.789375">
        <ele>1603.7004</ele>
        <time>2020-07-26T15:57:12Z</time>
      </trkpt>
      <trkpt lat="13.883467" lon="-89.78935">
        <ele>1603.0942</ele>
        <time>2020-07-26T15:57:13Z</time>
      </trkpt>
      <trkpt lat="13.88344" lon="-89.7893">
        <ele>1605.1152</ele>
        <time>2020-07-26T15:57:15Z</time>
      </trkpt>
      <trkpt lat="13.883431" lon="-89.789276">
        <ele>1605.7012</ele>
        <time>2020-07-26T15:57:16Z</time>
      </trkpt>
      <trkpt lat="13.883425" lon="-89.78925">
        <ele>1604.1277</ele>
        <time>2020-07-26T15:57:17Z</time>
      </trkpt>
      <trkpt lat="13.883412" lon="-89.7892">
        <ele>1603.1787</ele>
        <time>2020-07-26T15:57:20Z</time>
      </trkpt>
      <trkpt lat="13.883406" lon="-89.789154">
        <ele>1603.1992</ele>
        <time>2020-07-26T15:57:22Z</time>
      </trkpt>
      <trkpt lat="13.883387" lon="-89.78911">
        <ele>1601.4365</ele>
        <time>2020-07-26T15:57:25Z</time>
      </trkpt>
      <trkpt lat="13.883427" lon="-89.78908">
        <ele>1598.0337</ele>
        <time>2020-07-26T15:57:30Z</time>
      </trkpt>
      <trkpt lat="13.883465" lon="-89.78905">
        <ele>1597.9536</ele>
        <time>2020-07-26T15:57:34Z</time>
      </trkpt>
      <trkpt lat="13.88349" lon="-89.789">
        <ele>1599.5205</ele>
        <time>2020-07-26T15:57:39Z</time>
      </trkpt>
      <trkpt lat="13.883508" lon="-89.788956">
        <ele>1601.0981</ele>
        <time>2020-07-26T15:57:43Z</time>
      </trkpt>
      <trkpt lat="13.883524" lon="-89.78891">
        <ele>1600.5642</ele>
        <time>2020-07-26T15:57:48Z</time>
      </trkpt>
      <trkpt lat="13.883531" lon="-89.78886">
        <ele>1599.8225</ele>
        <time>2020-07-26T15:57:53Z</time>
      </trkpt>
      <trkpt lat="13.88353" lon="-89.788795">
        <ele>1599.6716</ele>
        <time>2020-07-26T15:57:58Z</time>
      </trkpt>
      <trkpt lat="13.883546" lon="-89.78875">
        <ele>1600.7478</ele>
        <time>2020-07-26T15:58:02Z</time>
      </trkpt>
      <trkpt lat="13.883568" lon="-89.788704">
        <ele>1603.1255</ele>
        <time>2020-07-26T15:58:07Z</time>
      </trkpt>
      <trkpt lat="13.883595" lon="-89.78866">
        <ele>1602.2712</ele>
        <time>2020-07-26T15:58:11Z</time>
      </trkpt>
      <trkpt lat="13.883624" lon="-89.78862">
        <ele>1602.0388</ele>
        <time>2020-07-26T15:58:15Z</time>
      </trkpt>
      <trkpt lat="13.883648" lon="-89.788574">
        <ele>1604.4341</ele>
        <time>2020-07-26T15:58:20Z</time>
      </trkpt>
      <trkpt lat="13.883663" lon="-89.78853">
        <ele>1605.1377</ele>
        <time>2020-07-26T15:58:24Z</time>
      </trkpt>
      <trkpt lat="13.883681" lon="-89.78848">
        <ele>1606.3911</ele>
        <time>2020-07-26T15:58:28Z</time>
      </trkpt>
      <trkpt lat="13.883686" lon="-89.78847">
        <ele>1607.0884</ele>
        <time>2020-07-26T15:58:29Z</time>
      </trkpt>
      <trkpt lat="13.883691" lon="-89.78846">
        <ele>1606.7373</ele>
        <time>2020-07-26T15:58:30Z</time>
      </trkpt>
      <trkpt lat="13.88372" lon="-89.788414">
        <ele>1606.9358</ele>
        <time>2020-07-26T15:58:35Z</time>
      </trkpt>
      <trkpt lat="13.8837" lon="-89.78837">
        <ele>1609.5034</ele>
        <time>2020-07-26T15:58:40Z</time>
      </trkpt>
      <trkpt lat="13.883706" lon="-89.78835">
        <ele>1610.2861</ele>
        <time>2020-07-26T15:58:41Z</time>
      </trkpt>
      <trkpt lat="13.883715" lon="-89.788345">
        <ele>1610.9961</ele>
        <time>2020-07-26T15:58:42Z</time>
      </trkpt>
      <trkpt lat="13.883722" lon="-89.78833">
        <ele>1611.5891</ele>
        <time>2020-07-26T15:58:43Z</time>
      </trkpt>
      <trkpt lat="13.883729" lon="-89.78832">
        <ele>1612.9863</ele>
        <time>2020-07-26T15:58:44Z</time>
      </trkpt>
      <trkpt lat="13.883732" lon="-89.78831">
        <ele>1611.6719</ele>
        <time>2020-07-26T15:58:45Z</time>
      </trkpt>
      <trkpt lat="13.883762" lon="-89.78827">
        <ele>1610.6528</ele>
        <time>2020-07-26T15:58:50Z</time>
      </trkpt>
      <trkpt lat="13.883771" lon="-89.78826">
        <ele>1611.896</ele>
        <time>2020-07-26T15:58:51Z</time>
      </trkpt>
      <trkpt lat="13.883794" lon="-89.788216">
        <ele>1611.1208</ele>
        <time>2020-07-26T15:58:56Z</time>
      </trkpt>
      <trkpt lat="13.883827" lon="-89.78818">
        <ele>1609.918</ele>
        <time>2020-07-26T15:59:02Z</time>
      </trkpt>
      <trkpt lat="13.883863" lon="-89.78814">
        <ele>1611.9419</ele>
        <time>2020-07-26T15:59:07Z</time>
      </trkpt>
      <trkpt lat="13.883916" lon="-89.78814">
        <ele>1615.0645</ele>
        <time>2020-07-26T15:59:12Z</time>
      </trkpt>
      <trkpt lat="13.883928" lon="-89.78814">
        <ele>1615.3442</ele>
        <time>2020-07-26T15:59:13Z</time>
      </trkpt>
      <trkpt lat="13.88394" lon="-89.78814">
        <ele>1616.0239</ele>
        <time>2020-07-26T15:59:14Z</time>
      </trkpt>
      <trkpt lat="13.883947" lon="-89.78815">
        <ele>1615.7964</ele>
        <time>2020-07-26T15:59:15Z</time>
      </trkpt>
      <trkpt lat="13.883991" lon="-89.78816">
        <ele>1615.8398</ele>
        <time>2020-07-26T15:59:20Z</time>
      </trkpt>
      <trkpt lat="13.884031" lon="-89.788185">
        <ele>1616.0779</ele>
        <time>2020-07-26T15:59:26Z</time>
      </trkpt>
      <trkpt lat="13.884039" lon="-89.78819">
        <ele>1616.1953</ele>
        <time>2020-07-26T15:59:27Z</time>
      </trkpt>
      <trkpt lat="13.884059" lon="-89.78824">
        <ele>1616.7363</ele>
        <time>2020-07-26T15:59:32Z</time>
      </trkpt>
      <trkpt lat="13.884061" lon="-89.788246">
        <ele>1617.1294</ele>
        <time>2020-07-26T15:59:33Z</time>
      </trkpt>
      <trkpt lat="13.884063" lon="-89.78825">
        <ele>1617.2646</ele>
        <time>2020-07-26T15:59:34Z</time>
      </trkpt>
      <trkpt lat="13.884066" lon="-89.78827">
        <ele>1618.0415</ele>
        <time>2020-07-26T15:59:35Z</time>
      </trkpt>
      <trkpt lat="13.884071" lon="-89.78828">
        <ele>1618.7051</ele>
        <time>2020-07-26T15:59:36Z</time>
      </trkpt>
      <trkpt lat="13.88408" lon="-89.788284">
        <ele>1619.3262</ele>
        <time>2020-07-26T15:59:37Z</time>
      </trkpt>
      <trkpt lat="13.88409" lon="-89.78829">
        <ele>1620.5698</ele>
        <time>2020-07-26T15:59:38Z</time>
      </trkpt>
      <trkpt lat="13.884103" lon="-89.78829">
        <ele>1621.3987</ele>
        <time>2020-07-26T15:59:39Z</time>
      </trkpt>
      <trkpt lat="13.884112" lon="-89.78829">
        <ele>1621.0146</ele>
        <time>2020-07-26T15:59:40Z</time>
      </trkpt>
      <trkpt lat="13.884148" lon="-89.78833">
        <ele>1621.2942</ele>
        <time>2020-07-26T15:59:45Z</time>
      </trkpt>
      <trkpt lat="13.884159" lon="-89.788376">
        <ele>1621.8445</ele>
        <time>2020-07-26T15:59:49Z</time>
      </trkpt>
      <trkpt lat="13.884164" lon="-89.78839">
        <ele>1621.4993</ele>
        <time>2020-07-26T15:59:50Z</time>
      </trkpt>
      <trkpt lat="13.884193" lon="-89.788445">
        <ele>1625.9038</ele>
        <time>2020-07-26T15:59:56Z</time>
      </trkpt>
      <trkpt lat="13.884199" lon="-89.78845">
        <ele>1626.7319</ele>
        <time>2020-07-26T15:59:57Z</time>
      </trkpt>
      <trkpt lat="13.884207" lon="-89.78847">
        <ele>1625.8411</ele>
        <time>2020-07-26T15:59:58Z</time>
      </trkpt>
      <trkpt lat="13.884229" lon="-89.78851">
        <ele>1624.5415</ele>
        <time>2020-07-26T16:00:02Z</time>
      </trkpt>
      <trkpt lat="13.884259" lon="-89.78856">
        <ele>1625.699</ele>
        <time>2020-07-26T16:00:07Z</time>
      </trkpt>
      <trkpt lat="13.884314" lon="-89.788574">
        <ele>1625.5825</ele>
        <time>2020-07-26T16:00:12Z</time>
      </trkpt>
      <trkpt lat="13.884357" lon="-89.78859">
        <ele>1623.7437</ele>
        <time>2020-07-26T16:00:16Z</time>
      </trkpt>
      <trkpt lat="13.884408" lon="-89.788605">
        <ele>1624.958</ele>
        <time>2020-07-26T16:00:21Z</time>
      </trkpt>
      <trkpt lat="13.884455" lon="-89.788605">
        <ele>1625.1211</ele>
        <time>2020-07-26T16:00:25Z</time>
      </trkpt>
      <trkpt lat="13.8845005" lon="-89.788605">
        <ele>1625.8672</ele>
        <time>2020-07-26T16:00:31Z</time>
      </trkpt>
      <trkpt lat="13.884559" lon="-89.78861">
        <ele>1627.6328</ele>
        <time>2020-07-26T16:00:36Z</time>
      </trkpt>
      <trkpt lat="13.884572" lon="-89.78861">
        <ele>1627.4983</ele>
        <time>2020-07-26T16:00:37Z</time>
      </trkpt>
      <trkpt lat="13.884619" lon="-89.788635">
        <ele>1627.8223</ele>
        <time>2020-07-26T16:00:41Z</time>
      </trkpt>
      <trkpt lat="13.884629" lon="-89.78864">
        <ele>1628.5715</ele>
        <time>2020-07-26T16:00:42Z</time>
      </trkpt>
      <trkpt lat="13.884677" lon="-89.78866">
        <ele>1628.3779</ele>
        <time>2020-07-26T16:00:46Z</time>
      </trkpt>
      <trkpt lat="13.88469" lon="-89.788666">
        <ele>1628.7705</ele>
        <time>2020-07-26T16:00:47Z</time>
      </trkpt>
      <trkpt lat="13.884704" lon="-89.78867">
        <ele>1630.0942</ele>
        <time>2020-07-26T16:00:48Z</time>
      </trkpt>
      <trkpt lat="13.884717" lon="-89.78868">
        <ele>1630.9302</ele>
        <time>2020-07-26T16:00:49Z</time>
      </trkpt>
      <trkpt lat="13.88473" lon="-89.7887">
        <ele>1632.0261</ele>
        <time>2020-07-26T16:00:50Z</time>
      </trkpt>
      <trkpt lat="13.884742" lon="-89.78871">
        <ele>1631.9023</ele>
        <time>2020-07-26T16:00:51Z</time>
      </trkpt>
      <trkpt lat="13.884779" lon="-89.78874">
        <ele>1630.8271</ele>
        <time>2020-07-26T16:00:54Z</time>
      </trkpt>
      <trkpt lat="13.8848295" lon="-89.788765">
        <ele>1632.2681</ele>
        <time>2020-07-26T16:00:58Z</time>
      </trkpt>
      <trkpt lat="13.8848505" lon="-89.78877">
        <ele>1633.4602</ele>
        <time>2020-07-26T16:00:59Z</time>
      </trkpt>
      <trkpt lat="13.884878" lon="-89.78878">
        <ele>1633.2764</ele>
        <time>2020-07-26T16:01:00Z</time>
      </trkpt>
      <trkpt lat="13.884924" lon="-89.78879">
        <ele>1632.1384</ele>
        <time>2020-07-26T16:01:02Z</time>
      </trkpt>
      <trkpt lat="13.884968" lon="-89.78881">
        <ele>1630.0913</ele>
        <time>2020-07-26T16:01:04Z</time>
      </trkpt>
      <trkpt lat="13.885016" lon="-89.7888">
        <ele>1631.6887</ele>
        <time>2020-07-26T16:01:06Z</time>
      </trkpt>
      <trkpt lat="13.885066" lon="-89.788795">
        <ele>1629.9326</ele>
        <time>2020-07-26T16:01:08Z</time>
      </trkpt>
      <trkpt lat="13.885117" lon="-89.7888">
        <ele>1631.8843</ele>
        <time>2020-07-26T16:01:10Z</time>
      </trkpt>
      <trkpt lat="13.885168" lon="-89.78881">
        <ele>1631.6875</ele>
        <time>2020-07-26T16:01:12Z</time>
      </trkpt>
      <trkpt lat="13.885217" lon="-89.78883">
        <ele>1632.1782</ele>
        <time>2020-07-26T16:01:14Z</time>
      </trkpt>
      <trkpt lat="13.885266" lon="-89.78885">
        <ele>1633.5796</ele>
        <time>2020-07-26T16:01:16Z</time>
      </trkpt>
      <trkpt lat="13.885291" lon="-89.78886">
        <ele>1633.7104</ele>
        <time>2020-07-26T16:01:17Z</time>
      </trkpt>
      <trkpt lat="13.885313" lon="-89.788864">
        <ele>1634.8154</ele>
        <time>2020-07-26T16:01:18Z</time>
      </trkpt>
      <trkpt lat="13.885338" lon="-89.788864">
        <ele>1634.8281</ele>
        <time>2020-07-26T16:01:19Z</time>
      </trkpt>
      <trkpt lat="13.885364" lon="-89.788864">
        <ele>1634.6687</ele>
        <time>2020-07-26T16:01:20Z</time>
      </trkpt>
      <trkpt lat="13.885417" lon="-89.78887">
        <ele>1632.6147</ele>
        <time>2020-07-26T16:01:22Z</time>
      </trkpt>
      <trkpt lat="13.8854685" lon="-89.78888">
        <ele>1632.9902</ele>
        <time>2020-07-26T16:01:24Z</time>
      </trkpt>
      <trkpt lat="13.885525" lon="-89.78888">
        <ele>1632.408</ele>
        <time>2020-07-26T16:01:26Z</time>
      </trkpt>
      <trkpt lat="13.885578" lon="-89.78889">
        <ele>1630.6816</ele>
        <time>2020-07-26T16:01:28Z</time>
      </trkpt>
      <trkpt lat="13.885631" lon="-89.78891">
        <ele>1630.7847</ele>
        <time>2020-07-26T16:01:30Z</time>
      </trkpt>
      <trkpt lat="13.885682" lon="-89.78892">
        <ele>1629.2686</ele>
        <time>2020-07-26T16:01:32Z</time>
      </trkpt>
      <trkpt lat="13.885733" lon="-89.78891">
        <ele>1628.6453</ele>
        <time>2020-07-26T16:01:34Z</time>
      </trkpt>
      <trkpt lat="13.885779" lon="-89.78891">
        <ele>1628.4397</ele>
        <time>2020-07-26T16:01:36Z</time>
      </trkpt>
      <trkpt lat="13.885842" lon="-89.78891">
        <ele>1629.0771</ele>
        <time>2020-07-26T16:01:39Z</time>
      </trkpt>
      <trkpt lat="13.885887" lon="-89.78892">
        <ele>1628.9253</ele>
        <time>2020-07-26T16:01:41Z</time>
      </trkpt>
      <trkpt lat="13.885934" lon="-89.788925">
        <ele>1629.602</ele>
        <time>2020-07-26T16:01:43Z</time>
      </trkpt>
      <trkpt lat="13.8859825" lon="-89.78894">
        <ele>1629.6946</ele>
        <time>2020-07-26T16:01:45Z</time>
      </trkpt>
      <trkpt lat="13.886033" lon="-89.78895">
        <ele>1630.8708</ele>
        <time>2020-07-26T16:01:47Z</time>
      </trkpt>
      <trkpt lat="13.886083" lon="-89.78896">
        <ele>1631.0732</ele>
        <time>2020-07-26T16:01:49Z</time>
      </trkpt>
      <trkpt lat="13.88613" lon="-89.78898">
        <ele>1631.3242</ele>
        <time>2020-07-26T16:01:51Z</time>
      </trkpt>
      <trkpt lat="13.886181" lon="-89.788994">
        <ele>1631.541</ele>
        <time>2020-07-26T16:01:53Z</time>
      </trkpt>
      <trkpt lat="13.886233" lon="-89.789">
        <ele>1631.6606</ele>
        <time>2020-07-26T16:01:55Z</time>
      </trkpt>
      <trkpt lat="13.886283" lon="-89.78902">
        <ele>1631.3528</ele>
        <time>2020-07-26T16:01:57Z</time>
      </trkpt>
      <trkpt lat="13.886332" lon="-89.789024">
        <ele>1631.3049</ele>
        <time>2020-07-26T16:01:59Z</time>
      </trkpt>
      <trkpt lat="13.886379" lon="-89.78905">
        <ele>1629.4033</ele>
        <time>2020-07-26T16:02:01Z</time>
      </trkpt>
      <trkpt lat="13.886431" lon="-89.78906">
        <ele>1628.6865</ele>
        <time>2020-07-26T16:02:03Z</time>
      </trkpt>
      <trkpt lat="13.886487" lon="-89.78908">
        <ele>1627.3032</ele>
        <time>2020-07-26T16:02:05Z</time>
      </trkpt>
      <trkpt lat="13.886547" lon="-89.7891">
        <ele>1627.8022</ele>
        <time>2020-07-26T16:02:07Z</time>
      </trkpt>
      <trkpt lat="13.886603" lon="-89.789116">
        <ele>1627.0969</ele>
        <time>2020-07-26T16:02:09Z</time>
      </trkpt>
      <trkpt lat="13.8866625" lon="-89.78913">
        <ele>1624.6555</ele>
        <time>2020-07-26T16:02:11Z</time>
      </trkpt>
      <trkpt lat="13.88672" lon="-89.78914">
        <ele>1624.2175</ele>
        <time>2020-07-26T16:02:13Z</time>
      </trkpt>
      <trkpt lat="13.886768" lon="-89.78916">
        <ele>1624.8647</ele>
        <time>2020-07-26T16:02:15Z</time>
      </trkpt>
      <trkpt lat="13.886812" lon="-89.7892">
        <ele>1624.2068</ele>
        <time>2020-07-26T16:02:17Z</time>
      </trkpt>
      <trkpt lat="13.886864" lon="-89.78923">
        <ele>1623.3154</ele>
        <time>2020-07-26T16:02:19Z</time>
      </trkpt>
      <trkpt lat="13.886917" lon="-89.78926">
        <ele>1622.3564</ele>
        <time>2020-07-26T16:02:21Z</time>
      </trkpt>
      <trkpt lat="13.88697" lon="-89.7893">
        <ele>1622.373</ele>
        <time>2020-07-26T16:02:23Z</time>
      </trkpt>
      <trkpt lat="13.887025" lon="-89.78932">
        <ele>1622.4541</ele>
        <time>2020-07-26T16:02:25Z</time>
      </trkpt>
      <trkpt lat="13.887076" lon="-89.78936">
        <ele>1622.793</ele>
        <time>2020-07-26T16:02:27Z</time>
      </trkpt>
      <trkpt lat="13.887127" lon="-89.7894">
        <ele>1622.6797</ele>
        <time>2020-07-26T16:02:29Z</time>
      </trkpt>
      <trkpt lat="13.887182" lon="-89.78941">
        <ele>1624.4602</ele>
        <time>2020-07-26T16:02:31Z</time>
      </trkpt>
      <trkpt lat="13.887241" lon="-89.78943">
        <ele>1624.8638</ele>
        <time>2020-07-26T16:02:33Z</time>
      </trkpt>
      <trkpt lat="13.887299" lon="-89.78944">
        <ele>1625.956</ele>
        <time>2020-07-26T16:02:35Z</time>
      </trkpt>
      <trkpt lat="13.887354" lon="-89.78945">
        <ele>1626.3818</ele>
        <time>2020-07-26T16:02:37Z</time>
      </trkpt>
      <trkpt lat="13.887408" lon="-89.78946">
        <ele>1626.022</ele>
        <time>2020-07-26T16:02:39Z</time>
      </trkpt>
      <trkpt lat="13.887464" lon="-89.78946">
        <ele>1625.9722</ele>
        <time>2020-07-26T16:02:41Z</time>
      </trkpt>
      <trkpt lat="13.887517" lon="-89.789444">
        <ele>1624.7568</ele>
        <time>2020-07-26T16:02:43Z</time>
      </trkpt>
      <trkpt lat="13.88757" lon="-89.78943">
        <ele>1624.5615</ele>
        <time>2020-07-26T16:02:45Z</time>
      </trkpt>
      <trkpt lat="13.887618" lon="-89.7894">
        <ele>1622.2566</ele>
        <time>2020-07-26T16:02:47Z</time>
      </trkpt>
      <trkpt lat="13.887653" lon="-89.78935">
        <ele>1621.4998</ele>
        <time>2020-07-26T16:02:49Z</time>
      </trkpt>
      <trkpt lat="13.887699" lon="-89.78932">
        <ele>1621.721</ele>
        <time>2020-07-26T16:02:51Z</time>
      </trkpt>
      <trkpt lat="13.887746" lon="-89.78929">
        <ele>1623.3174</ele>
        <time>2020-07-26T16:02:53Z</time>
      </trkpt>
      <trkpt lat="13.887791" lon="-89.78925">
        <ele>1624.0928</ele>
        <time>2020-07-26T16:02:55Z</time>
      </trkpt>
      <trkpt lat="13.887831" lon="-89.78922">
        <ele>1623.4741</ele>
        <time>2020-07-26T16:02:57Z</time>
      </trkpt>
      <trkpt lat="13.887869" lon="-89.78918">
        <ele>1625.2571</ele>
        <time>2020-07-26T16:02:59Z</time>
      </trkpt>
      <trkpt lat="13.887909" lon="-89.78915">
        <ele>1624.8091</ele>
        <time>2020-07-26T16:03:01Z</time>
      </trkpt>
      <trkpt lat="13.887953" lon="-89.789116">
        <ele>1624.0103</ele>
        <time>2020-07-26T16:03:03Z</time>
      </trkpt>
      <trkpt lat="13.887996" lon="-89.789085">
        <ele>1624.0732</ele>
        <time>2020-07-26T16:03:05Z</time>
      </trkpt>
      <trkpt lat="13.8880415" lon="-89.78906">
        <ele>1624.1431</ele>
        <time>2020-07-26T16:03:07Z</time>
      </trkpt>
      <trkpt lat="13.888078" lon="-89.789024">
        <ele>1625.4106</ele>
        <time>2020-07-26T16:03:09Z</time>
      </trkpt>
      <trkpt lat="13.8881035" lon="-89.78898">
        <ele>1624.2744</ele>
        <time>2020-07-26T16:03:11Z</time>
      </trkpt>
      <trkpt lat="13.888137" lon="-89.78894">
        <ele>1625.1318</ele>
        <time>2020-07-26T16:03:13Z</time>
      </trkpt>
      <trkpt lat="13.888179" lon="-89.7889">
        <ele>1625.022</ele>
        <time>2020-07-26T16:03:15Z</time>
      </trkpt>
      <trkpt lat="13.888218" lon="-89.78887">
        <ele>1625.8093</ele>
        <time>2020-07-26T16:03:17Z</time>
      </trkpt>
      <trkpt lat="13.888273" lon="-89.78887">
        <ele>1626.134</ele>
        <time>2020-07-26T16:03:19Z</time>
      </trkpt>
      <trkpt lat="13.888334" lon="-89.788895">
        <ele>1627.1968</ele>
        <time>2020-07-26T16:03:21Z</time>
      </trkpt>
      <trkpt lat="13.888394" lon="-89.7889">
        <ele>1628.1428</ele>
        <time>2020-07-26T16:03:23Z</time>
      </trkpt>
      <trkpt lat="13.888451" lon="-89.78891">
        <ele>1628.6741</ele>
        <time>2020-07-26T16:03:25Z</time>
      </trkpt>
      <trkpt lat="13.888503" lon="-89.78891">
        <ele>1624.1699</ele>
        <time>2020-07-26T16:03:28Z</time>
      </trkpt>
      <trkpt lat="13.888566" lon="-89.788895">
        <ele>1626.9751</ele>
        <time>2020-07-26T16:03:31Z</time>
      </trkpt>
      <trkpt lat="13.888613" lon="-89.78888">
        <ele>1627.1287</ele>
        <time>2020-07-26T16:03:33Z</time>
      </trkpt>
      <trkpt lat="13.888658" lon="-89.78887">
        <ele>1627.294</ele>
        <time>2020-07-26T16:03:35Z</time>
      </trkpt>
      <trkpt lat="13.888725" lon="-89.78887">
        <ele>1626.0737</ele>
        <time>2020-07-26T16:03:38Z</time>
      </trkpt>
      <trkpt lat="13.888777" lon="-89.788895">
        <ele>1627.8792</ele>
        <time>2020-07-26T16:03:40Z</time>
      </trkpt>
      <trkpt lat="13.88883" lon="-89.788895">
        <ele>1627.3533</ele>
        <time>2020-07-26T16:03:42Z</time>
      </trkpt>
      <trkpt lat="13.888879" lon="-89.78887">
        <ele>1626.9905</ele>
        <time>2020-07-26T16:03:44Z</time>
      </trkpt>
      <trkpt lat="13.888925" lon="-89.78887">
        <ele>1626.3137</ele>
        <time>2020-07-26T16:03:46Z</time>
      </trkpt>
      <trkpt lat="13.88897" lon="-89.78888">
        <ele>1623.7905</ele>
        <time>2020-07-26T16:03:48Z</time>
      </trkpt>
      <trkpt lat="13.889012" lon="-89.7889">
        <ele>1621.1748</ele>
        <time>2020-07-26T16:03:50Z</time>
      </trkpt>
      <trkpt lat="13.889051" lon="-89.78893">
        <ele>1619.5762</ele>
        <time>2020-07-26T16:03:52Z</time>
      </trkpt>
      <trkpt lat="13.889093" lon="-89.78896">
        <ele>1619.7021</ele>
        <time>2020-07-26T16:03:54Z</time>
      </trkpt>
      <trkpt lat="13.889133" lon="-89.789">
        <ele>1616.9839</ele>
        <time>2020-07-26T16:03:56Z</time>
      </trkpt>
      <trkpt lat="13.889179" lon="-89.78902">
        <ele>1618.1997</ele>
        <time>2020-07-26T16:03:58Z</time>
      </trkpt>
      <trkpt lat="13.889223" lon="-89.78904">
        <ele>1617.3711</ele>
        <time>2020-07-26T16:04:00Z</time>
      </trkpt>
      <trkpt lat="13.889281" lon="-89.789055">
        <ele>1617.4014</ele>
        <time>2020-07-26T16:04:03Z</time>
      </trkpt>
      <trkpt lat="13.889338" lon="-89.789085">
        <ele>1621.2959</ele>
        <time>2020-07-26T16:04:06Z</time>
      </trkpt>
      <trkpt lat="13.889398" lon="-89.78911">
        <ele>1621.9609</ele>
        <time>2020-07-26T16:04:09Z</time>
      </trkpt>
      <trkpt lat="13.889441" lon="-89.78912">
        <ele>1621.436</ele>
        <time>2020-07-26T16:04:11Z</time>
      </trkpt>
      <trkpt lat="13.889501" lon="-89.78914">
        <ele>1621.4817</ele>
        <time>2020-07-26T16:04:14Z</time>
      </trkpt>
      <trkpt lat="13.889555" lon="-89.78916">
        <ele>1620.9033</ele>
        <time>2020-07-26T16:04:17Z</time>
      </trkpt>
      <trkpt lat="13.889609" lon="-89.78918">
        <ele>1622.9314</ele>
        <time>2020-07-26T16:04:20Z</time>
      </trkpt>
      <trkpt lat="13.889658" lon="-89.7892">
        <ele>1623.4604</ele>
        <time>2020-07-26T16:04:23Z</time>
      </trkpt>
      <trkpt lat="13.889713" lon="-89.78921">
        <ele>1622.9563</ele>
        <time>2020-07-26T16:04:27Z</time>
      </trkpt>
      <trkpt lat="13.889759" lon="-89.789215">
        <ele>1627.0713</ele>
        <time>2020-07-26T16:04:31Z</time>
      </trkpt>
      <trkpt lat="13.889805" lon="-89.78922">
        <ele>1630.2466</ele>
        <time>2020-07-26T16:04:35Z</time>
      </trkpt>
      <trkpt lat="13.88986" lon="-89.78923">
        <ele>1632.602</ele>
        <time>2020-07-26T16:04:40Z</time>
      </trkpt>
      <trkpt lat="13.8899145" lon="-89.78923">
        <ele>1633.4993</ele>
        <time>2020-07-26T16:04:44Z</time>
      </trkpt>
      <trkpt lat="13.889977" lon="-89.78924">
        <ele>1627.9939</ele>
        <time>2020-07-26T16:04:48Z</time>
      </trkpt>
      <trkpt lat="13.890042" lon="-89.789246">
        <ele>1625.3755</ele>
        <time>2020-07-26T16:04:51Z</time>
      </trkpt>
      <trkpt lat="13.890099" lon="-89.78924">
        <ele>1626.2646</ele>
        <time>2020-07-26T16:04:54Z</time>
      </trkpt>
      <trkpt lat="13.890155" lon="-89.78923">
        <ele>1625.9529</ele>
        <time>2020-07-26T16:04:57Z</time>
      </trkpt>
      <trkpt lat="13.890214" lon="-89.78922">
        <ele>1627.2695</ele>
        <time>2020-07-26T16:05:00Z</time>
      </trkpt>
      <trkpt lat="13.89027" lon="-89.789185">
        <ele>1628.7368</ele>
        <time>2020-07-26T16:05:03Z</time>
      </trkpt>
      <trkpt lat="13.890305" lon="-89.789154">
        <ele>1629.1431</ele>
        <time>2020-07-26T16:05:06Z</time>
      </trkpt>
      <trkpt lat="13.890347" lon="-89.789116">
        <ele>1630.4409</ele>
        <time>2020-07-26T16:05:10Z</time>
      </trkpt>
      <trkpt lat="13.890396" lon="-89.78908">
        <ele>1630.688</ele>
        <time>2020-07-26T16:05:13Z</time>
      </trkpt>
      <trkpt lat="13.890438" lon="-89.789024">
        <ele>1630.9072</ele>
        <time>2020-07-26T16:05:16Z</time>
      </trkpt>
      <trkpt lat="13.890455" lon="-89.78898">
        <ele>1631.0767</ele>
        <time>2020-07-26T16:05:18Z</time>
      </trkpt>
      <trkpt lat="13.890467" lon="-89.78893">
        <ele>1632.0117</ele>
        <time>2020-07-26T16:05:20Z</time>
      </trkpt>
      <trkpt lat="13.890477" lon="-89.78889">
        <ele>1631.7881</ele>
        <time>2020-07-26T16:05:22Z</time>
      </trkpt>
      <trkpt lat="13.890492" lon="-89.78884">
        <ele>1632.7817</ele>
        <time>2020-07-26T16:05:24Z</time>
      </trkpt>
      <trkpt lat="13.890504" lon="-89.788795">
        <ele>1632.5173</ele>
        <time>2020-07-26T16:05:26Z</time>
      </trkpt>
      <trkpt lat="13.890515" lon="-89.78875">
        <ele>1634.0022</ele>
        <time>2020-07-26T16:05:28Z</time>
      </trkpt>
      <trkpt lat="13.89054" lon="-89.788704">
        <ele>1634.3135</ele>
        <time>2020-07-26T16:05:30Z</time>
      </trkpt>
      <trkpt lat="13.890576" lon="-89.78867">
        <ele>1633.0767</ele>
        <time>2020-07-26T16:05:32Z</time>
      </trkpt>
      <trkpt lat="13.890625" lon="-89.788666">
        <ele>1634.0637</ele>
        <time>2020-07-26T16:05:34Z</time>
      </trkpt>
      <trkpt lat="13.89068" lon="-89.78866">
        <ele>1633.977</ele>
        <time>2020-07-26T16:05:36Z</time>
      </trkpt>
      <trkpt lat="13.890739" lon="-89.788666">
        <ele>1634.7605</ele>
        <time>2020-07-26T16:05:38Z</time>
      </trkpt>
      <trkpt lat="13.890799" lon="-89.788666">
        <ele>1636.5894</ele>
        <time>2020-07-26T16:05:40Z</time>
      </trkpt>
      <trkpt lat="13.89083" lon="-89.78866">
        <ele>1637.3931</ele>
        <time>2020-07-26T16:05:41Z</time>
      </trkpt>
      <trkpt lat="13.89086" lon="-89.78866">
        <ele>1638.9658</ele>
        <time>2020-07-26T16:05:42Z</time>
      </trkpt>
      <trkpt lat="13.89089" lon="-89.78865">
        <ele>1639.8154</ele>
        <time>2020-07-26T16:05:43Z</time>
      </trkpt>
      <trkpt lat="13.890922" lon="-89.78864">
        <ele>1639.6172</ele>
        <time>2020-07-26T16:05:44Z</time>
      </trkpt>
      <trkpt lat="13.890984" lon="-89.78862">
        <ele>1639.46</ele>
        <time>2020-07-26T16:05:46Z</time>
      </trkpt>
      <trkpt lat="13.891046" lon="-89.78861">
        <ele>1639.4956</ele>
        <time>2020-07-26T16:05:48Z</time>
      </trkpt>
      <trkpt lat="13.891098" lon="-89.78859">
        <ele>1639.5918</ele>
        <time>2020-07-26T16:05:50Z</time>
      </trkpt>
      <trkpt lat="13.891114" lon="-89.78857">
        <ele>1638.9834</ele>
        <time>2020-07-26T16:05:51Z</time>
      </trkpt>
      <trkpt lat="13.891119" lon="-89.788506">
        <ele>1637.4717</ele>
        <time>2020-07-26T16:05:53Z</time>
      </trkpt>
      <trkpt lat="13.891105" lon="-89.78845">
        <ele>1635.9634</ele>
        <time>2020-07-26T16:05:55Z</time>
      </trkpt>
      <trkpt lat="13.891061" lon="-89.78842">
        <ele>1634.7007</ele>
        <time>2020-07-26T16:05:57Z</time>
      </trkpt>
      <trkpt lat="13.891015" lon="-89.78839">
        <ele>1634.8975</ele>
        <time>2020-07-26T16:05:59Z</time>
      </trkpt>
      <trkpt lat="13.890976" lon="-89.78836">
        <ele>1635.6157</ele>
        <time>2020-07-26T16:06:01Z</time>
      </trkpt>
      <trkpt lat="13.890932" lon="-89.78833">
        <ele>1635.0615</ele>
        <time>2020-07-26T16:06:03Z</time>
      </trkpt>
      <trkpt lat="13.890873" lon="-89.78829">
        <ele>1633.7749</ele>
        <time>2020-07-26T16:06:05Z</time>
      </trkpt>
      <trkpt lat="13.890817" lon="-89.78825">
        <ele>1631.4653</ele>
        <time>2020-07-26T16:06:09Z</time>
      </trkpt>
      <trkpt lat="13.89077" lon="-89.78825">
        <ele>1632.4785</ele>
        <time>2020-07-26T16:06:10Z</time>
      </trkpt>
      <trkpt lat="13.890708" lon="-89.788246">
        <ele>1621.6956</ele>
        <time>2020-07-26T16:06:14Z</time>
      </trkpt>
      <trkpt lat="13.890652" lon="-89.78822">
        <ele>1622.4448</ele>
        <time>2020-07-26T16:06:17Z</time>
      </trkpt>
      <trkpt lat="13.890586" lon="-89.788216">
        <ele>1621.533</ele>
        <time>2020-07-26T16:06:20Z</time>
      </trkpt>
      <trkpt lat="13.890519" lon="-89.788185">
        <ele>1620.2056</ele>
        <time>2020-07-26T16:06:22Z</time>
      </trkpt>
      <trkpt lat="13.890474" lon="-89.78817">
        <ele>1622.6658</ele>
        <time>2020-07-26T16:06:24Z</time>
      </trkpt>
      <trkpt lat="13.890416" lon="-89.78812">
        <ele>1622.898</ele>
        <time>2020-07-26T16:06:27Z</time>
      </trkpt>
      <trkpt lat="13.890377" lon="-89.788086">
        <ele>1622.3003</ele>
        <time>2020-07-26T16:06:29Z</time>
      </trkpt>
      <trkpt lat="13.890314" lon="-89.78804">
        <ele>1622.2476</ele>
        <time>2020-07-26T16:06:32Z</time>
      </trkpt>
      <trkpt lat="13.890278" lon="-89.788">
        <ele>1623.2554</ele>
        <time>2020-07-26T16:06:34Z</time>
      </trkpt>
      <trkpt lat="13.890232" lon="-89.78797">
        <ele>1622.5667</ele>
        <time>2020-07-26T16:06:36Z</time>
      </trkpt>
      <trkpt lat="13.890188" lon="-89.78794">
        <ele>1622.1011</ele>
        <time>2020-07-26T16:06:38Z</time>
      </trkpt>
      <trkpt lat="13.890148" lon="-89.78791">
        <ele>1620.6692</ele>
        <time>2020-07-26T16:06:40Z</time>
      </trkpt>
      <trkpt lat="13.890112" lon="-89.78788">
        <ele>1620.3782</ele>
        <time>2020-07-26T16:06:42Z</time>
      </trkpt>
      <trkpt lat="13.890073" lon="-89.78784">
        <ele>1617.6506</ele>
        <time>2020-07-26T16:06:44Z</time>
      </trkpt>
      <trkpt lat="13.89001" lon="-89.78781">
        <ele>1616.5327</ele>
        <time>2020-07-26T16:06:47Z</time>
      </trkpt>
      <trkpt lat="13.889974" lon="-89.78778">
        <ele>1616.4006</ele>
        <time>2020-07-26T16:06:49Z</time>
      </trkpt>
      <trkpt lat="13.889915" lon="-89.78774">
        <ele>1616.8057</ele>
        <time>2020-07-26T16:06:52Z</time>
      </trkpt>
      <trkpt lat="13.889872" lon="-89.78771">
        <ele>1617.3745</ele>
        <time>2020-07-26T16:06:55Z</time>
      </trkpt>
      <trkpt lat="13.889815" lon="-89.787704">
        <ele>1616.7041</ele>
        <time>2020-07-26T16:07:00Z</time>
      </trkpt>
      <trkpt lat="13.889765" lon="-89.78767">
        <ele>1614.3486</ele>
        <time>2020-07-26T16:07:03Z</time>
      </trkpt>
      <trkpt lat="13.889715" lon="-89.787636">
        <ele>1613.0117</ele>
        <time>2020-07-26T16:07:06Z</time>
      </trkpt>
      <trkpt lat="13.889689" lon="-89.7876">
        <ele>1613.7573</ele>
        <time>2020-07-26T16:07:08Z</time>
      </trkpt>
      <trkpt lat="13.889666" lon="-89.78755">
        <ele>1614.2148</ele>
        <time>2020-07-26T16:07:10Z</time>
      </trkpt>
      <trkpt lat="13.88965" lon="-89.787506">
        <ele>1617.5278</ele>
        <time>2020-07-26T16:07:12Z</time>
      </trkpt>
      <trkpt lat="13.889643" lon="-89.78745">
        <ele>1617.2234</ele>
        <time>2020-07-26T16:07:14Z</time>
      </trkpt>
      <trkpt lat="13.889634" lon="-89.7874">
        <ele>1618.3247</ele>
        <time>2020-07-26T16:07:16Z</time>
      </trkpt>
      <trkpt lat="13.88963" lon="-89.787346">
        <ele>1617.8813</ele>
        <time>2020-07-26T16:07:18Z</time>
      </trkpt>
      <trkpt lat="13.889628" lon="-89.78729">
        <ele>1618.0205</ele>
        <time>2020-07-26T16:07:20Z</time>
      </trkpt>
      <trkpt lat="13.8896475" lon="-89.78724">
        <ele>1617.9517</ele>
        <time>2020-07-26T16:07:22Z</time>
      </trkpt>
      <trkpt lat="13.889669" lon="-89.787186">
        <ele>1618.667</ele>
        <time>2020-07-26T16:07:24Z</time>
      </trkpt>
      <trkpt lat="13.88968" lon="-89.78713">
        <ele>1617.4756</ele>
        <time>2020-07-26T16:07:26Z</time>
      </trkpt>
      <trkpt lat="13.8896885" lon="-89.78708">
        <ele>1617.8147</ele>
        <time>2020-07-26T16:07:28Z</time>
      </trkpt>
      <trkpt lat="13.889699" lon="-89.787025">
        <ele>1617.6592</ele>
        <time>2020-07-26T16:07:30Z</time>
      </trkpt>
      <trkpt lat="13.889727" lon="-89.78697">
        <ele>1617.699</ele>
        <time>2020-07-26T16:07:32Z</time>
      </trkpt>
      <trkpt lat="13.88975" lon="-89.78692">
        <ele>1615.5371</ele>
        <time>2020-07-26T16:07:34Z</time>
      </trkpt>
      <trkpt lat="13.889782" lon="-89.78688">
        <ele>1615.2715</ele>
        <time>2020-07-26T16:07:36Z</time>
      </trkpt>
      <trkpt lat="13.8898115" lon="-89.786835">
        <ele>1615.0312</ele>
        <time>2020-07-26T16:07:38Z</time>
      </trkpt>
      <trkpt lat="13.889834" lon="-89.78679">
        <ele>1616.2432</ele>
        <time>2020-07-26T16:07:40Z</time>
      </trkpt>
      <trkpt lat="13.889856" lon="-89.78674">
        <ele>1615.2009</ele>
        <time>2020-07-26T16:07:42Z</time>
      </trkpt>
      <trkpt lat="13.88988" lon="-89.78668">
        <ele>1614.4062</ele>
        <time>2020-07-26T16:07:45Z</time>
      </trkpt>
      <trkpt lat="13.889878" lon="-89.78661">
        <ele>1613.3179</ele>
        <time>2020-07-26T16:07:48Z</time>
      </trkpt>
      <trkpt lat="13.889869" lon="-89.78657">
        <ele>1613.3691</ele>
        <time>2020-07-26T16:07:50Z</time>
      </trkpt>
      <trkpt lat="13.889838" lon="-89.78651">
        <ele>1611.9602</ele>
        <time>2020-07-26T16:07:53Z</time>
      </trkpt>
      <trkpt lat="13.889849" lon="-89.78644">
        <ele>1610.8652</ele>
        <time>2020-07-26T16:07:56Z</time>
      </trkpt>
      <trkpt lat="13.889867" lon="-89.78638">
        <ele>1609.7236</ele>
        <time>2020-07-26T16:07:59Z</time>
      </trkpt>
      <trkpt lat="13.889874" lon="-89.786316">
        <ele>1608.8987</ele>
        <time>2020-07-26T16:08:02Z</time>
      </trkpt>
      <trkpt lat="13.889885" lon="-89.78627">
        <ele>1609.3982</ele>
        <time>2020-07-26T16:08:04Z</time>
      </trkpt>
      <trkpt lat="13.889917" lon="-89.78623">
        <ele>1610.2751</ele>
        <time>2020-07-26T16:08:06Z</time>
      </trkpt>
      <trkpt lat="13.889972" lon="-89.7862">
        <ele>1609.5659</ele>
        <time>2020-07-26T16:08:08Z</time>
      </trkpt>
      <trkpt lat="13.890019" lon="-89.78616">
        <ele>1609.1973</ele>
        <time>2020-07-26T16:08:10Z</time>
      </trkpt>
      <trkpt lat="13.8900585" lon="-89.786125">
        <ele>1611.3237</ele>
        <time>2020-07-26T16:08:12Z</time>
      </trkpt>
      <trkpt lat="13.890107" lon="-89.7861">
        <ele>1612.5576</ele>
        <time>2020-07-26T16:08:14Z</time>
      </trkpt>
      <trkpt lat="13.890158" lon="-89.78607">
        <ele>1610.8064</ele>
        <time>2020-07-26T16:08:16Z</time>
      </trkpt>
      <trkpt lat="13.8902" lon="-89.78604">
        <ele>1610.4058</ele>
        <time>2020-07-26T16:08:18Z</time>
      </trkpt>
      <trkpt lat="13.890234" lon="-89.78601">
        <ele>1608.8408</ele>
        <time>2020-07-26T16:08:20Z</time>
      </trkpt>
      <trkpt lat="13.890285" lon="-89.785965">
        <ele>1607.9526</ele>
        <time>2020-07-26T16:08:23Z</time>
      </trkpt>
      <trkpt lat="13.890329" lon="-89.78594">
        <ele>1609.6841</ele>
        <time>2020-07-26T16:08:25Z</time>
      </trkpt>
      <trkpt lat="13.890374" lon="-89.78593">
        <ele>1610.8467</ele>
        <time>2020-07-26T16:08:27Z</time>
      </trkpt>
      <trkpt lat="13.890429" lon="-89.785904">
        <ele>1611.4363</ele>
        <time>2020-07-26T16:08:30Z</time>
      </trkpt>
      <trkpt lat="13.890479" lon="-89.78587">
        <ele>1610.8525</ele>
        <time>2020-07-26T16:08:33Z</time>
      </trkpt>
      <trkpt lat="13.890521" lon="-89.78584">
        <ele>1609.7725</ele>
        <time>2020-07-26T16:08:35Z</time>
      </trkpt>
      <trkpt lat="13.890564" lon="-89.78582">
        <ele>1610.1841</ele>
        <time>2020-07-26T16:08:37Z</time>
      </trkpt>
      <trkpt lat="13.890594" lon="-89.78578">
        <ele>1610.9058</ele>
        <time>2020-07-26T16:08:39Z</time>
      </trkpt>
      <trkpt lat="13.890621" lon="-89.78574">
        <ele>1608.6165</ele>
        <time>2020-07-26T16:08:41Z</time>
      </trkpt>
      <trkpt lat="13.890672" lon="-89.7857">
        <ele>1609.7158</ele>
        <time>2020-07-26T16:08:44Z</time>
      </trkpt>
      <trkpt lat="13.890729" lon="-89.78567">
        <ele>1610.9614</ele>
        <time>2020-07-26T16:08:47Z</time>
      </trkpt>
      <trkpt lat="13.890769" lon="-89.785645">
        <ele>1612.5217</ele>
        <time>2020-07-26T16:08:49Z</time>
      </trkpt>
      <trkpt lat="13.890828" lon="-89.785614">
        <ele>1612.667</ele>
        <time>2020-07-26T16:08:52Z</time>
      </trkpt>
      <trkpt lat="13.890888" lon="-89.78559">
        <ele>1612.7827</ele>
        <time>2020-07-26T16:08:55Z</time>
      </trkpt>
      <trkpt lat="13.890942" lon="-89.78555">
        <ele>1613.227</ele>
        <time>2020-07-26T16:08:58Z</time>
      </trkpt>
      <trkpt lat="13.891" lon="-89.78553">
        <ele>1613.8259</ele>
        <time>2020-07-26T16:09:01Z</time>
      </trkpt>
      <trkpt lat="13.891044" lon="-89.785515">
        <ele>1615.2119</ele>
        <time>2020-07-26T16:09:03Z</time>
      </trkpt>
      <trkpt lat="13.8910885" lon="-89.7855">
        <ele>1615.6206</ele>
        <time>2020-07-26T16:09:05Z</time>
      </trkpt>
      <trkpt lat="13.891132" lon="-89.78548">
        <ele>1614.9541</ele>
        <time>2020-07-26T16:09:07Z</time>
      </trkpt>
      <trkpt lat="13.891172" lon="-89.78545">
        <ele>1613.8911</ele>
        <time>2020-07-26T16:09:09Z</time>
      </trkpt>
      <trkpt lat="13.891215" lon="-89.7854">
        <ele>1615.396</ele>
        <time>2020-07-26T16:09:12Z</time>
      </trkpt>
      <trkpt lat="13.891244" lon="-89.78536">
        <ele>1615.7778</ele>
        <time>2020-07-26T16:09:14Z</time>
      </trkpt>
      <trkpt lat="13.891289" lon="-89.78531">
        <ele>1615.4563</ele>
        <time>2020-07-26T16:09:17Z</time>
      </trkpt>
      <trkpt lat="13.891314" lon="-89.78526">
        <ele>1615.7808</ele>
        <time>2020-07-26T16:09:19Z</time>
      </trkpt>
      <trkpt lat="13.89133" lon="-89.78521">
        <ele>1617.0972</ele>
        <time>2020-07-26T16:09:21Z</time>
      </trkpt>
      <trkpt lat="13.891329" lon="-89.78516">
        <ele>1618.2139</ele>
        <time>2020-07-26T16:09:23Z</time>
      </trkpt>
      <trkpt lat="13.891312" lon="-89.785095">
        <ele>1615.5156</ele>
        <time>2020-07-26T16:09:26Z</time>
      </trkpt>
      <trkpt lat="13.891305" lon="-89.78504">
        <ele>1613.7896</ele>
        <time>2020-07-26T16:09:30Z</time>
      </trkpt>
      <trkpt lat="13.891308" lon="-89.78499">
        <ele>1609.8757</ele>
        <time>2020-07-26T16:09:34Z</time>
      </trkpt>
      <trkpt lat="13.891327" lon="-89.784935">
        <ele>1606.8154</ele>
        <time>2020-07-26T16:09:39Z</time>
      </trkpt>
      <trkpt lat="13.891369" lon="-89.78491">
        <ele>1602.362</ele>
        <time>2020-07-26T16:09:41Z</time>
      </trkpt>
      <trkpt lat="13.891432" lon="-89.78488">
        <ele>1603.001</ele>
        <time>2020-07-26T16:09:44Z</time>
      </trkpt>
      <trkpt lat="13.89148" lon="-89.78487">
        <ele>1604.0347</ele>
        <time>2020-07-26T16:09:46Z</time>
      </trkpt>
      <trkpt lat="13.891525" lon="-89.78485">
        <ele>1604.8127</ele>
        <time>2020-07-26T16:09:48Z</time>
      </trkpt>
      <trkpt lat="13.89157" lon="-89.784836">
        <ele>1606.064</ele>
        <time>2020-07-26T16:09:50Z</time>
      </trkpt>
      <trkpt lat="13.891613" lon="-89.78482">
        <ele>1604.3315</ele>
        <time>2020-07-26T16:09:52Z</time>
      </trkpt>
      <trkpt lat="13.891658" lon="-89.78481">
        <ele>1604.8857</ele>
        <time>2020-07-26T16:09:54Z</time>
      </trkpt>
      <trkpt lat="13.891702" lon="-89.7848">
        <ele>1604.2124</ele>
        <time>2020-07-26T16:09:56Z</time>
      </trkpt>
      <trkpt lat="13.891761" lon="-89.78478">
        <ele>1600.9214</ele>
        <time>2020-07-26T16:09:59Z</time>
      </trkpt>
      <trkpt lat="13.891806" lon="-89.78476">
        <ele>1603.6362</ele>
        <time>2020-07-26T16:10:02Z</time>
      </trkpt>
      <trkpt lat="13.8918495" lon="-89.78473">
        <ele>1606.0049</ele>
        <time>2020-07-26T16:10:06Z</time>
      </trkpt>
      <trkpt lat="13.891886" lon="-89.78469">
        <ele>1604.8267</ele>
        <time>2020-07-26T16:10:10Z</time>
      </trkpt>
      <trkpt lat="13.89192" lon="-89.784645">
        <ele>1605.3677</ele>
        <time>2020-07-26T16:10:15Z</time>
      </trkpt>
      <trkpt lat="13.891971" lon="-89.78463">
        <ele>1607.1963</ele>
        <time>2020-07-26T16:10:19Z</time>
      </trkpt>
      <trkpt lat="13.8920145" lon="-89.7846">
        <ele>1609.4138</ele>
        <time>2020-07-26T16:10:23Z</time>
      </trkpt>
      <trkpt lat="13.8920555" lon="-89.78458">
        <ele>1608.0483</ele>
        <time>2020-07-26T16:10:26Z</time>
      </trkpt>
      <trkpt lat="13.892107" lon="-89.784546">
        <ele>1608.8672</ele>
        <time>2020-07-26T16:10:29Z</time>
      </trkpt>
      <trkpt lat="13.892157" lon="-89.78451">
        <ele>1607.5293</ele>
        <time>2020-07-26T16:10:32Z</time>
      </trkpt>
      <trkpt lat="13.892204" lon="-89.78451">
        <ele>1610.147</ele>
        <time>2020-07-26T16:10:34Z</time>
      </trkpt>
      <trkpt lat="13.892263" lon="-89.78452">
        <ele>1611.7253</ele>
        <time>2020-07-26T16:10:36Z</time>
      </trkpt>
      <trkpt lat="13.892325" lon="-89.78453">
        <ele>1612.8394</ele>
        <time>2020-07-26T16:10:38Z</time>
      </trkpt>
      <trkpt lat="13.8923855" lon="-89.78455">
        <ele>1611.2173</ele>
        <time>2020-07-26T16:10:40Z</time>
      </trkpt>
      <trkpt lat="13.892442" lon="-89.78456">
        <ele>1611.8535</ele>
        <time>2020-07-26T16:10:42Z</time>
      </trkpt>
      <trkpt lat="13.892493" lon="-89.78455">
        <ele>1611.3762</ele>
        <time>2020-07-26T16:10:44Z</time>
      </trkpt>
      <trkpt lat="13.892542" lon="-89.78455">
        <ele>1614.4502</ele>
        <time>2020-07-26T16:10:46Z</time>
      </trkpt>
      <trkpt lat="13.892593" lon="-89.78456">
        <ele>1615.5464</ele>
        <time>2020-07-26T16:10:48Z</time>
      </trkpt>
      <trkpt lat="13.892642" lon="-89.78457">
        <ele>1613.8789</ele>
        <time>2020-07-26T16:10:50Z</time>
      </trkpt>
      <trkpt lat="13.892689" lon="-89.784615">
        <ele>1613.7188</ele>
        <time>2020-07-26T16:10:53Z</time>
      </trkpt>
      <trkpt lat="13.892727" lon="-89.784645">
        <ele>1612.8433</ele>
        <time>2020-07-26T16:10:55Z</time>
      </trkpt>
      <trkpt lat="13.89277" lon="-89.78466">
        <ele>1610.3589</ele>
        <time>2020-07-26T16:10:57Z</time>
      </trkpt>
      <trkpt lat="13.892813" lon="-89.78468">
        <ele>1608.5283</ele>
        <time>2020-07-26T16:10:59Z</time>
      </trkpt>
      <trkpt lat="13.892856" lon="-89.7847">
        <ele>1607.5288</ele>
        <time>2020-07-26T16:11:01Z</time>
      </trkpt>
      <trkpt lat="13.892898" lon="-89.78472">
        <ele>1606.437</ele>
        <time>2020-07-26T16:11:03Z</time>
      </trkpt>
      <trkpt lat="13.892935" lon="-89.78475">
        <ele>1607.4539</ele>
        <time>2020-07-26T16:11:05Z</time>
      </trkpt>
      <trkpt lat="13.892981" lon="-89.7848">
        <ele>1607.0498</ele>
        <time>2020-07-26T16:11:08Z</time>
      </trkpt>
      <trkpt lat="13.893009" lon="-89.78486">
        <ele>1607.71</ele>
        <time>2020-07-26T16:11:11Z</time>
      </trkpt>
      <trkpt lat="13.893062" lon="-89.7849">
        <ele>1610.1367</ele>
        <time>2020-07-26T16:11:14Z</time>
      </trkpt>
      <trkpt lat="13.893115" lon="-89.784935">
        <ele>1611.9717</ele>
        <time>2020-07-26T16:11:17Z</time>
      </trkpt>
      <trkpt lat="13.893168" lon="-89.784966">
        <ele>1612.198</ele>
        <time>2020-07-26T16:11:20Z</time>
      </trkpt>
      <trkpt lat="13.893225" lon="-89.78498">
        <ele>1609.7607</ele>
        <time>2020-07-26T16:11:23Z</time>
      </trkpt>
      <trkpt lat="13.89327" lon="-89.78502">
        <ele>1609.4229</ele>
        <time>2020-07-26T16:11:26Z</time>
      </trkpt>
      <trkpt lat="13.893295" lon="-89.78508">
        <ele>1610.5894</ele>
        <time>2020-07-26T16:11:29Z</time>
      </trkpt>
      <trkpt lat="13.893328" lon="-89.78513">
        <ele>1610.9011</ele>
        <time>2020-07-26T16:11:32Z</time>
      </trkpt>
      <trkpt lat="13.893386" lon="-89.78516">
        <ele>1610.8853</ele>
        <time>2020-07-26T16:11:35Z</time>
      </trkpt>
      <trkpt lat="13.893423" lon="-89.78519">
        <ele>1611.8877</ele>
        <time>2020-07-26T16:11:39Z</time>
      </trkpt>
      <trkpt lat="13.893438" lon="-89.78523">
        <ele>1611.4639</ele>
        <time>2020-07-26T16:11:44Z</time>
      </trkpt>
      <trkpt lat="13.893486" lon="-89.785225">
        <ele>1610.042</ele>
        <time>2020-07-26T16:11:48Z</time>
      </trkpt>
      <trkpt lat="13.893519" lon="-89.78527">
        <ele>1609.937</ele>
        <time>2020-07-26T16:11:51Z</time>
      </trkpt>
      <trkpt lat="13.8935585" lon="-89.78532">
        <ele>1608.7222</ele>
        <time>2020-07-26T16:11:54Z</time>
      </trkpt>
      <trkpt lat="13.893619" lon="-89.78534">
        <ele>1609.2102</ele>
        <time>2020-07-26T16:11:57Z</time>
      </trkpt>
      <trkpt lat="13.893662" lon="-89.785355">
        <ele>1609.7607</ele>
        <time>2020-07-26T16:11:59Z</time>
      </trkpt>
      <trkpt lat="13.893724" lon="-89.78537">
        <ele>1608.5618</ele>
        <time>2020-07-26T16:12:02Z</time>
      </trkpt>
      <trkpt lat="13.893776" lon="-89.78541">
        <ele>1609.3176</ele>
        <time>2020-07-26T16:12:05Z</time>
      </trkpt>
      <trkpt lat="13.89378" lon="-89.78547">
        <ele>1610.1387</ele>
        <time>2020-07-26T16:12:07Z</time>
      </trkpt>
      <trkpt lat="13.89377" lon="-89.78552">
        <ele>1610.9448</ele>
        <time>2020-07-26T16:12:09Z</time>
      </trkpt>
      <trkpt lat="13.893781" lon="-89.785576">
        <ele>1613.1565</ele>
        <time>2020-07-26T16:12:11Z</time>
      </trkpt>
      <trkpt lat="13.893808" lon="-89.785614">
        <ele>1612.5454</ele>
        <time>2020-07-26T16:12:13Z</time>
      </trkpt>
      <trkpt lat="13.893824" lon="-89.78566">
        <ele>1612.855</ele>
        <time>2020-07-26T16:12:15Z</time>
      </trkpt>
      <trkpt lat="13.893821" lon="-89.78572">
        <ele>1611.5771</ele>
        <time>2020-07-26T16:12:18Z</time>
      </trkpt>
      <trkpt lat="13.893823" lon="-89.78579">
        <ele>1613.9434</ele>
        <time>2020-07-26T16:12:21Z</time>
      </trkpt>
      <trkpt lat="13.893845" lon="-89.785835">
        <ele>1613.5725</ele>
        <time>2020-07-26T16:12:24Z</time>
      </trkpt>
      <trkpt lat="13.893894" lon="-89.785866">
        <ele>1613.8303</ele>
        <time>2020-07-26T16:12:28Z</time>
      </trkpt>
      <trkpt lat="13.893938" lon="-89.78591">
        <ele>1612.8296</ele>
        <time>2020-07-26T16:12:31Z</time>
      </trkpt>
      <trkpt lat="13.893974" lon="-89.78594">
        <ele>1612.3157</ele>
        <time>2020-07-26T16:12:33Z</time>
      </trkpt>
      <trkpt lat="13.894017" lon="-89.78599">
        <ele>1611.1233</ele>
        <time>2020-07-26T16:12:36Z</time>
      </trkpt>
      <trkpt lat="13.894054" lon="-89.78604">
        <ele>1612.9119</ele>
        <time>2020-07-26T16:12:39Z</time>
      </trkpt>
      <trkpt lat="13.894077" lon="-89.786095">
        <ele>1615.8269</ele>
        <time>2020-07-26T16:12:42Z</time>
      </trkpt>
      <trkpt lat="13.894076" lon="-89.78615">
        <ele>1615.5874</ele>
        <time>2020-07-26T16:12:44Z</time>
      </trkpt>
      <trkpt lat="13.894077" lon="-89.78622">
        <ele>1613.8599</ele>
        <time>2020-07-26T16:12:47Z</time>
      </trkpt>
      <trkpt lat="13.894121" lon="-89.786255">
        <ele>1613.9844</ele>
        <time>2020-07-26T16:12:50Z</time>
      </trkpt>
      <trkpt lat="13.894152" lon="-89.78631">
        <ele>1613.7517</ele>
        <time>2020-07-26T16:12:53Z</time>
      </trkpt>
      <trkpt lat="13.894133" lon="-89.78636">
        <ele>1614.9199</ele>
        <time>2020-07-26T16:12:55Z</time>
      </trkpt>
      <trkpt lat="13.8941" lon="-89.786415">
        <ele>1614.5339</ele>
        <time>2020-07-26T16:12:57Z</time>
      </trkpt>
      <trkpt lat="13.894077" lon="-89.78646">
        <ele>1615.1831</ele>
        <time>2020-07-26T16:12:59Z</time>
      </trkpt>
      <trkpt lat="13.894037" lon="-89.786514">
        <ele>1611.9922</ele>
        <time>2020-07-26T16:13:02Z</time>
      </trkpt>
      <trkpt lat="13.893996" lon="-89.78656">
        <ele>1616.2366</ele>
        <time>2020-07-26T16:13:04Z</time>
      </trkpt>
      <trkpt lat="13.893952" lon="-89.7866">
        <ele>1618.4282</ele>
        <time>2020-07-26T16:13:06Z</time>
      </trkpt>
      <trkpt lat="13.893911" lon="-89.786644">
        <ele>1619.4565</ele>
        <time>2020-07-26T16:13:08Z</time>
      </trkpt>
      <trkpt lat="13.893872" lon="-89.786674">
        <ele>1619.2192</ele>
        <time>2020-07-26T16:13:10Z</time>
      </trkpt>
      <trkpt lat="13.893834" lon="-89.786705">
        <ele>1620.207</ele>
        <time>2020-07-26T16:13:12Z</time>
      </trkpt>
      <trkpt lat="13.893816" lon="-89.78675">
        <ele>1619.5864</ele>
        <time>2020-07-26T16:13:14Z</time>
      </trkpt>
      <trkpt lat="13.893807" lon="-89.786804">
        <ele>1620.2065</ele>
        <time>2020-07-26T16:13:16Z</time>
      </trkpt>
      <trkpt lat="13.8938" lon="-89.78687">
        <ele>1620.4297</ele>
        <time>2020-07-26T16:13:19Z</time>
      </trkpt>
      <trkpt lat="13.893767" lon="-89.786934">
        <ele>1620.1655</ele>
        <time>2020-07-26T16:13:22Z</time>
      </trkpt>
      <trkpt lat="13.893733" lon="-89.78699">
        <ele>1618.9707</ele>
        <time>2020-07-26T16:13:25Z</time>
      </trkpt>
      <trkpt lat="13.893713" lon="-89.78705">
        <ele>1620.7407</ele>
        <time>2020-07-26T16:13:28Z</time>
      </trkpt>
      <trkpt lat="13.893696" lon="-89.78711">
        <ele>1617.833</ele>
        <time>2020-07-26T16:13:31Z</time>
      </trkpt>
      <trkpt lat="13.893695" lon="-89.78717">
        <ele>1615.6819</ele>
        <time>2020-07-26T16:13:34Z</time>
      </trkpt>
      <trkpt lat="13.893667" lon="-89.787224">
        <ele>1617.687</ele>
        <time>2020-07-26T16:13:37Z</time>
      </trkpt>
      <trkpt lat="13.89365" lon="-89.78728">
        <ele>1616.936</ele>
        <time>2020-07-26T16:13:40Z</time>
      </trkpt>
      <trkpt lat="13.893653" lon="-89.78734">
        <ele>1617.523</ele>
        <time>2020-07-26T16:13:43Z</time>
      </trkpt>
      <trkpt lat="13.893622" lon="-89.78738">
        <ele>1616.8125</ele>
        <time>2020-07-26T16:13:45Z</time>
      </trkpt>
      <trkpt lat="13.893583" lon="-89.787415">
        <ele>1615.592</ele>
        <time>2020-07-26T16:13:47Z</time>
      </trkpt>
      <trkpt lat="13.893549" lon="-89.78745">
        <ele>1615.7551</ele>
        <time>2020-07-26T16:13:49Z</time>
      </trkpt>
      <trkpt lat="13.893519" lon="-89.78749">
        <ele>1614.6919</ele>
        <time>2020-07-26T16:13:51Z</time>
      </trkpt>
      <trkpt lat="13.893483" lon="-89.78755">
        <ele>1617.6226</ele>
        <time>2020-07-26T16:13:54Z</time>
      </trkpt>
      <trkpt lat="13.893469" lon="-89.78761">
        <ele>1618.7415</ele>
        <time>2020-07-26T16:13:57Z</time>
      </trkpt>
      <trkpt lat="13.89346" lon="-89.78766">
        <ele>1618.4902</ele>
        <time>2020-07-26T16:13:59Z</time>
      </trkpt>
      <trkpt lat="13.89346" lon="-89.78772">
        <ele>1618.7185</ele>
        <time>2020-07-26T16:14:02Z</time>
      </trkpt>
      <trkpt lat="13.893458" lon="-89.78778">
        <ele>1617.9287</ele>
        <time>2020-07-26T16:14:05Z</time>
      </trkpt>
      <trkpt lat="13.893446" lon="-89.787834">
        <ele>1619.0889</ele>
        <time>2020-07-26T16:14:08Z</time>
      </trkpt>
      <trkpt lat="13.8934355" lon="-89.787895">
        <ele>1618.0298</ele>
        <time>2020-07-26T16:14:11Z</time>
      </trkpt>
      <trkpt lat="13.89345" lon="-89.78795">
        <ele>1616.6592</ele>
        <time>2020-07-26T16:14:14Z</time>
      </trkpt>
      <trkpt lat="13.893455" lon="-89.78801">
        <ele>1615.4739</ele>
        <time>2020-07-26T16:14:17Z</time>
      </trkpt>
      <trkpt lat="13.893452" lon="-89.78807">
        <ele>1613.7202</ele>
        <time>2020-07-26T16:14:21Z</time>
      </trkpt>
      <trkpt lat="13.893417" lon="-89.788124">
        <ele>1614.636</ele>
        <time>2020-07-26T16:14:24Z</time>
      </trkpt>
      <trkpt lat="13.893366" lon="-89.78817">
        <ele>1617.0884</ele>
        <time>2020-07-26T16:14:27Z</time>
      </trkpt>
      <trkpt lat="13.893318" lon="-89.78822">
        <ele>1619.2441</ele>
        <time>2020-07-26T16:14:30Z</time>
      </trkpt>
      <trkpt lat="13.893304" lon="-89.78828">
        <ele>1618.5652</ele>
        <time>2020-07-26T16:14:33Z</time>
      </trkpt>
      <trkpt lat="13.8932905" lon="-89.78834">
        <ele>1617.6821</ele>
        <time>2020-07-26T16:14:36Z</time>
      </trkpt>
      <trkpt lat="13.893266" lon="-89.78838">
        <ele>1615.7031</ele>
        <time>2020-07-26T16:14:39Z</time>
      </trkpt>
      <trkpt lat="13.89323" lon="-89.78842">
        <ele>1612.854</ele>
        <time>2020-07-26T16:14:42Z</time>
      </trkpt>
      <trkpt lat="13.89317" lon="-89.78842">
        <ele>1614.706</ele>
        <time>2020-07-26T16:14:45Z</time>
      </trkpt>
      <trkpt lat="13.893114" lon="-89.78842">
        <ele>1613.6606</ele>
        <time>2020-07-26T16:14:48Z</time>
      </trkpt>
      <trkpt lat="13.893065" lon="-89.78846">
        <ele>1610.3496</ele>
        <time>2020-07-26T16:14:51Z</time>
      </trkpt>
      <trkpt lat="13.893017" lon="-89.7885">
        <ele>1609.8818</ele>
        <time>2020-07-26T16:14:54Z</time>
      </trkpt>
      <trkpt lat="13.8929825" lon="-89.78856">
        <ele>1608.3484</ele>
        <time>2020-07-26T16:14:57Z</time>
      </trkpt>
      <trkpt lat="13.892972" lon="-89.788605">
        <ele>1606.7964</ele>
        <time>2020-07-26T16:14:59Z</time>
      </trkpt>
      <trkpt lat="13.8929405" lon="-89.78865">
        <ele>1607.5376</ele>
        <time>2020-07-26T16:15:02Z</time>
      </trkpt>
      <trkpt lat="13.892901" lon="-89.78869">
        <ele>1607.3018</ele>
        <time>2020-07-26T16:15:05Z</time>
      </trkpt>
      <trkpt lat="13.892834" lon="-89.78869">
        <ele>1608.0063</ele>
        <time>2020-07-26T16:15:08Z</time>
      </trkpt>
      <trkpt lat="13.892784" lon="-89.78867">
        <ele>1609.4126</ele>
        <time>2020-07-26T16:15:10Z</time>
      </trkpt>
      <trkpt lat="13.892744" lon="-89.78864">
        <ele>1609.5327</ele>
        <time>2020-07-26T16:15:12Z</time>
      </trkpt>
      <trkpt lat="13.892691" lon="-89.78863">
        <ele>1608.6216</ele>
        <time>2020-07-26T16:15:15Z</time>
      </trkpt>
      <trkpt lat="13.892653" lon="-89.788666">
        <ele>1608.5637</ele>
        <time>2020-07-26T16:15:18Z</time>
      </trkpt>
      <trkpt lat="13.892608" lon="-89.78869">
        <ele>1604.4419</ele>
        <time>2020-07-26T16:15:21Z</time>
      </trkpt>
      <trkpt lat="13.892554" lon="-89.78869">
        <ele>1601.6738</ele>
        <time>2020-07-26T16:15:24Z</time>
      </trkpt>
      <trkpt lat="13.892499" lon="-89.78866">
        <ele>1601.4624</ele>
        <time>2020-07-26T16:15:27Z</time>
      </trkpt>
      <trkpt lat="13.892442" lon="-89.788635">
        <ele>1600.7749</ele>
        <time>2020-07-26T16:15:30Z</time>
      </trkpt>
      <trkpt lat="13.892391" lon="-89.78866">
        <ele>1602.904</ele>
        <time>2020-07-26T16:15:33Z</time>
      </trkpt>
      <trkpt lat="13.8923435" lon="-89.78869">
        <ele>1603.5608</ele>
        <time>2020-07-26T16:15:36Z</time>
      </trkpt>
      <trkpt lat="13.892283" lon="-89.788704">
        <ele>1604.4023</ele>
        <time>2020-07-26T16:15:39Z</time>
      </trkpt>
      <trkpt lat="13.892216" lon="-89.788704">
        <ele>1604.7944</ele>
        <time>2020-07-26T16:15:42Z</time>
      </trkpt>
      <trkpt lat="13.892158" lon="-89.788734">
        <ele>1604.145</ele>
        <time>2020-07-26T16:15:45Z</time>
      </trkpt>
      <trkpt lat="13.892088" lon="-89.78875">
        <ele>1605.5972</ele>
        <time>2020-07-26T16:15:48Z</time>
      </trkpt>
      <trkpt lat="13.892031" lon="-89.788734">
        <ele>1606.2266</ele>
        <time>2020-07-26T16:15:50Z</time>
      </trkpt>
      <trkpt lat="13.891968" lon="-89.78873">
        <ele>1605.8413</ele>
        <time>2020-07-26T16:15:52Z</time>
      </trkpt>
      <trkpt lat="13.8919115" lon="-89.78872">
        <ele>1605.883</ele>
        <time>2020-07-26T16:15:54Z</time>
      </trkpt>
      <trkpt lat="13.891858" lon="-89.788704">
        <ele>1606.2605</ele>
        <time>2020-07-26T16:15:56Z</time>
      </trkpt>
      <trkpt lat="13.891808" lon="-89.7887">
        <ele>1605.6328</ele>
        <time>2020-07-26T16:15:58Z</time>
      </trkpt>
      <trkpt lat="13.891755" lon="-89.78869">
        <ele>1606.6235</ele>
        <time>2020-07-26T16:16:00Z</time>
      </trkpt>
      <trkpt lat="13.891705" lon="-89.78867">
        <ele>1607.3398</ele>
        <time>2020-07-26T16:16:02Z</time>
      </trkpt>
      <trkpt lat="13.891658" lon="-89.78865">
        <ele>1608.4111</ele>
        <time>2020-07-26T16:16:04Z</time>
      </trkpt>
      <trkpt lat="13.891612" lon="-89.788635">
        <ele>1608.4937</ele>
        <time>2020-07-26T16:16:06Z</time>
      </trkpt>
      <trkpt lat="13.891574" lon="-89.788605">
        <ele>1608.3057</ele>
        <time>2020-07-26T16:16:08Z</time>
      </trkpt>
      <trkpt lat="13.891531" lon="-89.78859">
        <ele>1606.6587</ele>
        <time>2020-07-26T16:16:10Z</time>
      </trkpt>
      <trkpt lat="13.891485" lon="-89.78858">
        <ele>1606.5193</ele>
        <time>2020-07-26T16:16:12Z</time>
      </trkpt>
      <trkpt lat="13.891421" lon="-89.788574">
        <ele>1607.114</ele>
        <time>2020-07-26T16:16:15Z</time>
      </trkpt>
      <trkpt lat="13.89136" lon="-89.78857">
        <ele>1606.4463</ele>
        <time>2020-07-26T16:16:18Z</time>
      </trkpt>
      <trkpt lat="13.891296" lon="-89.78856">
        <ele>1607.4604</ele>
        <time>2020-07-26T16:16:21Z</time>
      </trkpt>
      <trkpt lat="13.891229" lon="-89.78856">
        <ele>1607.2515</ele>
        <time>2020-07-26T16:16:24Z</time>
      </trkpt>
      <trkpt lat="13.891167" lon="-89.78854">
        <ele>1609.2827</ele>
        <time>2020-07-26T16:16:27Z</time>
      </trkpt>
      <trkpt lat="13.891121" lon="-89.78852">
        <ele>1617.4993</ele>
        <time>2020-07-26T16:16:30Z</time>
      </trkpt>
      <trkpt lat="13.891082" lon="-89.78848">
        <ele>1619.0596</ele>
        <time>2020-07-26T16:16:34Z</time>
      </trkpt>
      <trkpt lat="13.891071" lon="-89.78844">
        <ele>1619.9407</ele>
        <time>2020-07-26T16:16:37Z</time>
      </trkpt>
      <trkpt lat="13.89108" lon="-89.78839">
        <ele>1618.8062</ele>
        <time>2020-07-26T16:16:40Z</time>
      </trkpt>
      <trkpt lat="13.891092" lon="-89.78834">
        <ele>1618.3013</ele>
        <time>2020-07-26T16:16:44Z</time>
      </trkpt>
      <trkpt lat="13.8911295" lon="-89.78831">
        <ele>1615.6147</ele>
        <time>2020-07-26T16:16:50Z</time>
      </trkpt>
      <trkpt lat="13.891117" lon="-89.78831">
        <ele>1615.7922</ele>
        <time>2020-07-26T16:16:56Z</time>
      </trkpt>
      <trkpt lat="13.891117" lon="-89.78831">
        <ele>1615.7922</ele>
        <time>2020-07-26T16:16:56Z</time>
      </trkpt>
      <trkpt lat="13.891105" lon="-89.78826">
        <ele>1619.8525</ele>
        <time>2020-07-26T16:17:13Z</time>
      </trkpt>
      <trkpt lat="13.891105" lon="-89.78827">
        <ele>1619.7305</ele>
        <time>2020-07-26T16:17:20Z</time>
      </trkpt>
      <trkpt lat="13.891121" lon="-89.78829">
        <ele>1622.8049</ele>
        <time>2020-07-26T16:18:29Z</time>
      </trkpt>
      <trkpt lat="13.891117" lon="-89.78829">
        <ele>1622.8198</ele>
        <time>2020-07-26T16:18:34Z</time>
      </trkpt>
      <trkpt lat="13.891117" lon="-89.78829">
        <ele>1622.8198</ele>
        <time>2020-07-26T16:18:34Z</time>
      </trkpt>
      <trkpt lat="13.891082" lon="-89.78831">
        <ele>1621.4155</ele>
        <time>2020-07-26T16:18:58Z</time>
      </trkpt>
      <trkpt lat="13.891082" lon="-89.78831">
        <ele>1621.4155</ele>
        <time>2020-07-26T16:18:58Z</time>
      </trkpt>
      <trkpt lat="13.891068" lon="-89.78832">
        <ele>1610.6482</ele>
        <time>2020-07-26T16:21:34Z</time>
      </trkpt>
      <trkpt lat="13.891068" lon="-89.78832">
        <ele>1610.6482</ele>
        <time>2020-07-26T16:21:34Z</time>
      </trkpt>
      <trkpt lat="13.891034" lon="-89.78836">
        <ele>1606.6594</ele>
        <time>2020-07-26T16:21:50Z</time>
      </trkpt>
      <trkpt lat="13.891046" lon="-89.788345">
        <ele>1605.7083</ele>
        <time>2020-07-26T16:21:55Z</time>
      </trkpt>
      <trkpt lat="13.891046" lon="-89.788345">
        <ele>1605.7083</ele>
        <time>2020-07-26T16:21:55Z</time>
      </trkpt>
      <trkpt lat="13.891071" lon="-89.78831">
        <ele>1608.0049</ele>
        <time>2020-07-26T16:22:56Z</time>
      </trkpt>
      <trkpt lat="13.891076" lon="-89.78829">
        <ele>1610.7168</ele>
        <time>2020-07-26T16:23:03Z</time>
      </trkpt>
      <trkpt lat="13.891076" lon="-89.78829">
        <ele>1610.7168</ele>
        <time>2020-07-26T16:23:03Z</time>
      </trkpt>
      <trkpt lat="13.891109" lon="-89.78833">
        <ele>1611.04</ele>
        <time>2020-07-26T16:23:23Z</time>
      </trkpt>
      <trkpt lat="13.891106" lon="-89.78838">
        <ele>1605.623</ele>
        <time>2020-07-26T16:23:30Z</time>
      </trkpt>
      <trkpt lat="13.891065" lon="-89.788414">
        <ele>1603.7356</ele>
        <time>2020-07-26T16:23:37Z</time>
      </trkpt>
      <trkpt lat="13.891019" lon="-89.7884">
        <ele>1603.6924</ele>
        <time>2020-07-26T16:23:42Z</time>
      </trkpt>
      <trkpt lat="13.890986" lon="-89.78841">
        <ele>1599.3164</ele>
        <time>2020-07-26T16:23:51Z</time>
      </trkpt>
      <trkpt lat="13.890986" lon="-89.78841">
        <ele>1599.3164</ele>
        <time>2020-07-26T16:23:51Z</time>
      </trkpt>
      <trkpt lat="13.890956" lon="-89.78843">
        <ele>1592.1992</ele>
        <time>2020-07-26T16:24:01Z</time>
      </trkpt>
      <trkpt lat="13.890956" lon="-89.78843">
        <ele>1592.1992</ele>
        <time>2020-07-26T16:24:01Z</time>
      </trkpt>
      <trkpt lat="13.890981" lon="-89.78839">
        <ele>1604.4375</ele>
        <time>2020-07-26T16:35:38Z</time>
      </trkpt>
      <trkpt lat="13.890981" lon="-89.78839">
        <ele>1604.4375</ele>
        <time>2020-07-26T16:35:38Z</time>
      </trkpt>
      <trkpt lat="13.89093" lon="-89.788414">
        <ele>1576.5105</ele>
        <time>2020-07-26T16:38:02Z</time>
      </trkpt>
      <trkpt lat="13.890872" lon="-89.78839">
        <ele>1588.6709</ele>
        <time>2020-07-26T16:38:04Z</time>
      </trkpt>
      <trkpt lat="13.890813" lon="-89.78837">
        <ele>1590.0833</ele>
        <time>2020-07-26T16:38:07Z</time>
      </trkpt>
      <trkpt lat="13.890766" lon="-89.788345">
        <ele>1592.8267</ele>
        <time>2020-07-26T16:38:09Z</time>
      </trkpt>
      <trkpt lat="13.89071" lon="-89.78833">
        <ele>1594.4395</ele>
        <time>2020-07-26T16:38:11Z</time>
      </trkpt>
      <trkpt lat="13.890654" lon="-89.788315">
        <ele>1596.374</ele>
        <time>2020-07-26T16:38:13Z</time>
      </trkpt>
      <trkpt lat="13.890602" lon="-89.78829">
        <ele>1596.7627</ele>
        <time>2020-07-26T16:38:15Z</time>
      </trkpt>
      <trkpt lat="13.890557" lon="-89.78825">
        <ele>1597.6245</ele>
        <time>2020-07-26T16:38:17Z</time>
      </trkpt>
      <trkpt lat="13.890519" lon="-89.788216">
        <ele>1597.4995</ele>
        <time>2020-07-26T16:38:19Z</time>
      </trkpt>
      <trkpt lat="13.890479" lon="-89.788185">
        <ele>1597.5298</ele>
        <time>2020-07-26T16:38:21Z</time>
      </trkpt>
      <trkpt lat="13.890434" lon="-89.78818">
        <ele>1597.3877</ele>
        <time>2020-07-26T16:38:23Z</time>
      </trkpt>
      <trkpt lat="13.890375" lon="-89.78816">
        <ele>1598.2295</ele>
        <time>2020-07-26T16:38:26Z</time>
      </trkpt>
      <trkpt lat="13.890346" lon="-89.78812">
        <ele>1600.7402</ele>
        <time>2020-07-26T16:38:28Z</time>
      </trkpt>
      <trkpt lat="13.890312" lon="-89.78806">
        <ele>1601.706</ele>
        <time>2020-07-26T16:38:30Z</time>
      </trkpt>
      <trkpt lat="13.890272" lon="-89.78801">
        <ele>1603.2485</ele>
        <time>2020-07-26T16:38:32Z</time>
      </trkpt>
      <trkpt lat="13.89023" lon="-89.78796">
        <ele>1606.009</ele>
        <time>2020-07-26T16:38:34Z</time>
      </trkpt>
      <trkpt lat="13.890194" lon="-89.78792">
        <ele>1604.6836</ele>
        <time>2020-07-26T16:38:36Z</time>
      </trkpt>
      <trkpt lat="13.890154" lon="-89.78788">
        <ele>1603.9468</ele>
        <time>2020-07-26T16:38:38Z</time>
      </trkpt>
      <trkpt lat="13.890125" lon="-89.787834">
        <ele>1602.2983</ele>
        <time>2020-07-26T16:38:40Z</time>
      </trkpt>
      <trkpt lat="13.890094" lon="-89.78779">
        <ele>1601.2192</ele>
        <time>2020-07-26T16:38:42Z</time>
      </trkpt>
      <trkpt lat="13.890054" lon="-89.78775">
        <ele>1601.1958</ele>
        <time>2020-07-26T16:38:44Z</time>
      </trkpt>
      <trkpt lat="13.890012" lon="-89.78773">
        <ele>1601.7432</ele>
        <time>2020-07-26T16:38:46Z</time>
      </trkpt>
      <trkpt lat="13.889964" lon="-89.78771">
        <ele>1602.0452</ele>
        <time>2020-07-26T16:38:48Z</time>
      </trkpt>
      <trkpt lat="13.889911" lon="-89.78772">
        <ele>1602.51</ele>
        <time>2020-07-26T16:38:51Z</time>
      </trkpt>
      <trkpt lat="13.889865" lon="-89.78767">
        <ele>1601.5808</ele>
        <time>2020-07-26T16:38:54Z</time>
      </trkpt>
      <trkpt lat="13.88985" lon="-89.78761">
        <ele>1601.5005</ele>
        <time>2020-07-26T16:38:56Z</time>
      </trkpt>
      <trkpt lat="13.889833" lon="-89.78755">
        <ele>1603.1123</ele>
        <time>2020-07-26T16:38:58Z</time>
      </trkpt>
      <trkpt lat="13.889822" lon="-89.7875">
        <ele>1603.3086</ele>
        <time>2020-07-26T16:39:00Z</time>
      </trkpt>
      <trkpt lat="13.889806" lon="-89.787445">
        <ele>1603.5525</ele>
        <time>2020-07-26T16:39:02Z</time>
      </trkpt>
      <trkpt lat="13.889786" lon="-89.78739">
        <ele>1601.709</ele>
        <time>2020-07-26T16:39:04Z</time>
      </trkpt>
      <trkpt lat="13.889777" lon="-89.78734">
        <ele>1603.0015</ele>
        <time>2020-07-26T16:39:06Z</time>
      </trkpt>
      <trkpt lat="13.889763" lon="-89.78728">
        <ele>1602.9502</ele>
        <time>2020-07-26T16:39:08Z</time>
      </trkpt>
      <trkpt lat="13.889746" lon="-89.78722">
        <ele>1602.9712</ele>
        <time>2020-07-26T16:39:10Z</time>
      </trkpt>
      <trkpt lat="13.889732" lon="-89.78716">
        <ele>1603.071</ele>
        <time>2020-07-26T16:39:12Z</time>
      </trkpt>
      <trkpt lat="13.889717" lon="-89.7871">
        <ele>1602.78</ele>
        <time>2020-07-26T16:39:14Z</time>
      </trkpt>
      <trkpt lat="13.889709" lon="-89.78705">
        <ele>1599.6973</ele>
        <time>2020-07-26T16:39:16Z</time>
      </trkpt>
      <trkpt lat="13.889724" lon="-89.78699">
        <ele>1600.3665</ele>
        <time>2020-07-26T16:39:18Z</time>
      </trkpt>
      <trkpt lat="13.88975" lon="-89.78693">
        <ele>1599.9846</ele>
        <time>2020-07-26T16:39:20Z</time>
      </trkpt>
      <trkpt lat="13.889781" lon="-89.78687">
        <ele>1599.6675</ele>
        <time>2020-07-26T16:39:22Z</time>
      </trkpt>
      <trkpt lat="13.889796" lon="-89.78681">
        <ele>1600.1582</ele>
        <time>2020-07-26T16:39:24Z</time>
      </trkpt>
      <trkpt lat="13.889805" lon="-89.78674">
        <ele>1600.1033</ele>
        <time>2020-07-26T16:39:26Z</time>
      </trkpt>
      <trkpt lat="13.889824" lon="-89.78669">
        <ele>1600.7705</ele>
        <time>2020-07-26T16:39:28Z</time>
      </trkpt>
      <trkpt lat="13.889847" lon="-89.78663">
        <ele>1598.8926</ele>
        <time>2020-07-26T16:39:30Z</time>
      </trkpt>
      <trkpt lat="13.889866" lon="-89.78657">
        <ele>1599.9841</ele>
        <time>2020-07-26T16:39:32Z</time>
      </trkpt>
      <trkpt lat="13.889887" lon="-89.78652">
        <ele>1599.9697</ele>
        <time>2020-07-26T16:39:34Z</time>
      </trkpt>
      <trkpt lat="13.889909" lon="-89.78647">
        <ele>1601.3984</ele>
        <time>2020-07-26T16:39:36Z</time>
      </trkpt>
      <trkpt lat="13.889935" lon="-89.786415">
        <ele>1603.2778</ele>
        <time>2020-07-26T16:39:38Z</time>
      </trkpt>
      <trkpt lat="13.889969" lon="-89.78638">
        <ele>1603.0566</ele>
        <time>2020-07-26T16:39:40Z</time>
      </trkpt>
      <trkpt lat="13.889997" lon="-89.78632">
        <ele>1604.9663</ele>
        <time>2020-07-26T16:39:42Z</time>
      </trkpt>
      <trkpt lat="13.890024" lon="-89.78628">
        <ele>1603.6377</ele>
        <time>2020-07-26T16:39:44Z</time>
      </trkpt>
      <trkpt lat="13.890062" lon="-89.78624">
        <ele>1603.6655</ele>
        <time>2020-07-26T16:39:46Z</time>
      </trkpt>
      <trkpt lat="13.8901" lon="-89.786194">
        <ele>1603.4348</ele>
        <time>2020-07-26T16:39:48Z</time>
      </trkpt>
      <trkpt lat="13.890143" lon="-89.78615">
        <ele>1603.7065</ele>
        <time>2020-07-26T16:39:50Z</time>
      </trkpt>
      <trkpt lat="13.890183" lon="-89.78612">
        <ele>1604.1011</ele>
        <time>2020-07-26T16:39:52Z</time>
      </trkpt>
      <trkpt lat="13.890221" lon="-89.78607">
        <ele>1602.1421</ele>
        <time>2020-07-26T16:39:54Z</time>
      </trkpt>
      <trkpt lat="13.890268" lon="-89.78604">
        <ele>1603.3047</ele>
        <time>2020-07-26T16:39:56Z</time>
      </trkpt>
      <trkpt lat="13.890327" lon="-89.78602">
        <ele>1602.085</ele>
        <time>2020-07-26T16:39:58Z</time>
      </trkpt>
      <trkpt lat="13.890372" lon="-89.78597">
        <ele>1602.7075</ele>
        <time>2020-07-26T16:40:00Z</time>
      </trkpt>
      <trkpt lat="13.890419" lon="-89.785934">
        <ele>1603.1824</ele>
        <time>2020-07-26T16:40:02Z</time>
      </trkpt>
      <trkpt lat="13.890469" lon="-89.7859">
        <ele>1602.7227</ele>
        <time>2020-07-26T16:40:04Z</time>
      </trkpt>
      <trkpt lat="13.890507" lon="-89.78586">
        <ele>1602.5181</ele>
        <time>2020-07-26T16:40:06Z</time>
      </trkpt>
      <trkpt lat="13.890549" lon="-89.78582">
        <ele>1602.4082</ele>
        <time>2020-07-26T16:40:08Z</time>
      </trkpt>
      <trkpt lat="13.890593" lon="-89.78579">
        <ele>1602.26</ele>
        <time>2020-07-26T16:40:10Z</time>
      </trkpt>
      <trkpt lat="13.890635" lon="-89.78575">
        <ele>1602.2607</ele>
        <time>2020-07-26T16:40:12Z</time>
      </trkpt>
      <trkpt lat="13.890683" lon="-89.78573">
        <ele>1603.0234</ele>
        <time>2020-07-26T16:40:14Z</time>
      </trkpt>
      <trkpt lat="13.890729" lon="-89.785706">
        <ele>1602.8613</ele>
        <time>2020-07-26T16:40:16Z</time>
      </trkpt>
      <trkpt lat="13.890777" lon="-89.78568">
        <ele>1603.282</ele>
        <time>2020-07-26T16:40:18Z</time>
      </trkpt>
      <trkpt lat="13.890826" lon="-89.78565">
        <ele>1603.2954</ele>
        <time>2020-07-26T16:40:20Z</time>
      </trkpt>
      <trkpt lat="13.890871" lon="-89.78562">
        <ele>1604.4033</ele>
        <time>2020-07-26T16:40:22Z</time>
      </trkpt>
      <trkpt lat="13.890917" lon="-89.78561">
        <ele>1605.1199</ele>
        <time>2020-07-26T16:40:24Z</time>
      </trkpt>
      <trkpt lat="13.890963" lon="-89.78559">
        <ele>1605.1768</ele>
        <time>2020-07-26T16:40:26Z</time>
      </trkpt>
      <trkpt lat="13.891006" lon="-89.78556">
        <ele>1604.5034</ele>
        <time>2020-07-26T16:40:28Z</time>
      </trkpt>
      <trkpt lat="13.891042" lon="-89.78552">
        <ele>1603.4702</ele>
        <time>2020-07-26T16:40:30Z</time>
      </trkpt>
      <trkpt lat="13.891076" lon="-89.78548">
        <ele>1603.0725</ele>
        <time>2020-07-26T16:40:32Z</time>
      </trkpt>
      <trkpt lat="13.891113" lon="-89.78544">
        <ele>1600.2046</ele>
        <time>2020-07-26T16:40:34Z</time>
      </trkpt>
      <trkpt lat="13.891154" lon="-89.785385">
        <ele>1596.9282</ele>
        <time>2020-07-26T16:40:36Z</time>
      </trkpt>
      <trkpt lat="13.891196" lon="-89.78535">
        <ele>1598.3252</ele>
        <time>2020-07-26T16:40:38Z</time>
      </trkpt>
      <trkpt lat="13.891241" lon="-89.78532">
        <ele>1596.356</ele>
        <time>2020-07-26T16:40:40Z</time>
      </trkpt>
      <trkpt lat="13.891287" lon="-89.785286">
        <ele>1597.5554</ele>
        <time>2020-07-26T16:40:42Z</time>
      </trkpt>
      <trkpt lat="13.891333" lon="-89.78527">
        <ele>1598.1064</ele>
        <time>2020-07-26T16:40:44Z</time>
      </trkpt>
      <trkpt lat="13.891373" lon="-89.78523">
        <ele>1596.8037</ele>
        <time>2020-07-26T16:40:46Z</time>
      </trkpt>
      <trkpt lat="13.891382" lon="-89.78517">
        <ele>1598.5186</ele>
        <time>2020-07-26T16:40:48Z</time>
      </trkpt>
      <trkpt lat="13.891381" lon="-89.78511">
        <ele>1599.9011</ele>
        <time>2020-07-26T16:40:50Z</time>
      </trkpt>
      <trkpt lat="13.891399" lon="-89.78503">
        <ele>1599.8523</ele>
        <time>2020-07-26T16:40:52Z</time>
      </trkpt>
      <trkpt lat="13.891443" lon="-89.78496">
        <ele>1600.0879</ele>
        <time>2020-07-26T16:40:55Z</time>
      </trkpt>
      <trkpt lat="13.891486" lon="-89.78494">
        <ele>1600.6467</ele>
        <time>2020-07-26T16:40:57Z</time>
      </trkpt>
      <trkpt lat="13.89153" lon="-89.78492">
        <ele>1599.6167</ele>
        <time>2020-07-26T16:40:59Z</time>
      </trkpt>
      <trkpt lat="13.891572" lon="-89.7849">
        <ele>1598.0088</ele>
        <time>2020-07-26T16:41:01Z</time>
      </trkpt>
      <trkpt lat="13.891614" lon="-89.784874">
        <ele>1599.5898</ele>
        <time>2020-07-26T16:41:03Z</time>
      </trkpt>
      <trkpt lat="13.891677" lon="-89.78486">
        <ele>1600.1394</ele>
        <time>2020-07-26T16:41:06Z</time>
      </trkpt>
      <trkpt lat="13.891712" lon="-89.78483">
        <ele>1601.4302</ele>
        <time>2020-07-26T16:41:08Z</time>
      </trkpt>
      <trkpt lat="13.891776" lon="-89.784805">
        <ele>1603.4658</ele>
        <time>2020-07-26T16:41:11Z</time>
      </trkpt>
      <trkpt lat="13.891835" lon="-89.78477">
        <ele>1602.9092</ele>
        <time>2020-07-26T16:41:14Z</time>
      </trkpt>
      <trkpt lat="13.891904" lon="-89.78473">
        <ele>1600.5491</ele>
        <time>2020-07-26T16:41:17Z</time>
      </trkpt>
      <trkpt lat="13.891952" lon="-89.784706">
        <ele>1599.7024</ele>
        <time>2020-07-26T16:41:19Z</time>
      </trkpt>
      <trkpt lat="13.892" lon="-89.784676">
        <ele>1598.3135</ele>
        <time>2020-07-26T16:41:21Z</time>
      </trkpt>
      <trkpt lat="13.89205" lon="-89.78465">
        <ele>1598.498</ele>
        <time>2020-07-26T16:41:23Z</time>
      </trkpt>
      <trkpt lat="13.892104" lon="-89.78464">
        <ele>1599.7759</ele>
        <time>2020-07-26T16:41:25Z</time>
      </trkpt>
      <trkpt lat="13.892158" lon="-89.78463">
        <ele>1599.2334</ele>
        <time>2020-07-26T16:41:27Z</time>
      </trkpt>
      <trkpt lat="13.89221" lon="-89.784615">
        <ele>1599.2695</ele>
        <time>2020-07-26T16:41:29Z</time>
      </trkpt>
      <trkpt lat="13.892258" lon="-89.78459">
        <ele>1599.2354</ele>
        <time>2020-07-26T16:41:31Z</time>
      </trkpt>
      <trkpt lat="13.892305" lon="-89.78457">
        <ele>1599.0864</ele>
        <time>2020-07-26T16:41:33Z</time>
      </trkpt>
      <trkpt lat="13.892355" lon="-89.78456">
        <ele>1599.0884</ele>
        <time>2020-07-26T16:41:35Z</time>
      </trkpt>
      <trkpt lat="13.892408" lon="-89.78457">
        <ele>1602.9924</ele>
        <time>2020-07-26T16:41:37Z</time>
      </trkpt>
      <trkpt lat="13.892461" lon="-89.78458">
        <ele>1604.2529</ele>
        <time>2020-07-26T16:41:39Z</time>
      </trkpt>
      <trkpt lat="13.89251" lon="-89.78459">
        <ele>1605.7817</ele>
        <time>2020-07-26T16:41:41Z</time>
      </trkpt>
      <trkpt lat="13.892558" lon="-89.784615">
        <ele>1607.4485</ele>
        <time>2020-07-26T16:41:43Z</time>
      </trkpt>
      <trkpt lat="13.892603" lon="-89.784645">
        <ele>1606.6201</ele>
        <time>2020-07-26T16:41:45Z</time>
      </trkpt>
      <trkpt lat="13.89265" lon="-89.78467">
        <ele>1605.2744</ele>
        <time>2020-07-26T16:41:47Z</time>
      </trkpt>
      <trkpt lat="13.892696" lon="-89.7847">
        <ele>1606.5073</ele>
        <time>2020-07-26T16:41:49Z</time>
      </trkpt>
      <trkpt lat="13.892738" lon="-89.78472">
        <ele>1606.0259</ele>
        <time>2020-07-26T16:41:51Z</time>
      </trkpt>
      <trkpt lat="13.8927965" lon="-89.78476">
        <ele>1605.6299</ele>
        <time>2020-07-26T16:41:54Z</time>
      </trkpt>
      <trkpt lat="13.892842" lon="-89.78477">
        <ele>1605.2793</ele>
        <time>2020-07-26T16:41:56Z</time>
      </trkpt>
      <trkpt lat="13.892888" lon="-89.784775">
        <ele>1605.7812</ele>
        <time>2020-07-26T16:41:58Z</time>
      </trkpt>
      <trkpt lat="13.892919" lon="-89.78481">
        <ele>1605.7012</ele>
        <time>2020-07-26T16:42:00Z</time>
      </trkpt>
      <trkpt lat="13.892963" lon="-89.78486">
        <ele>1606.4097</ele>
        <time>2020-07-26T16:42:03Z</time>
      </trkpt>
      <trkpt lat="13.893004" lon="-89.78491">
        <ele>1606.022</ele>
        <time>2020-07-26T16:42:06Z</time>
      </trkpt>
      <trkpt lat="13.893042" lon="-89.78494">
        <ele>1605.4575</ele>
        <time>2020-07-26T16:42:08Z</time>
      </trkpt>
      <trkpt lat="13.893067" lon="-89.78499">
        <ele>1605.7319</ele>
        <time>2020-07-26T16:42:10Z</time>
      </trkpt>
      <trkpt lat="13.893097" lon="-89.78503">
        <ele>1605.7998</ele>
        <time>2020-07-26T16:42:12Z</time>
      </trkpt>
      <trkpt lat="13.8931265" lon="-89.785065">
        <ele>1606.4458</ele>
        <time>2020-07-26T16:42:14Z</time>
      </trkpt>
      <trkpt lat="13.893162" lon="-89.7851">
        <ele>1606.9844</ele>
        <time>2020-07-26T16:42:16Z</time>
      </trkpt>
      <trkpt lat="13.893192" lon="-89.78514">
        <ele>1607.6345</ele>
        <time>2020-07-26T16:42:18Z</time>
      </trkpt>
      <trkpt lat="13.893232" lon="-89.785194">
        <ele>1607.239</ele>
        <time>2020-07-26T16:42:21Z</time>
      </trkpt>
      <trkpt lat="13.893273" lon="-89.785225">
        <ele>1604.5183</ele>
        <time>2020-07-26T16:42:23Z</time>
      </trkpt>
      <trkpt lat="13.893322" lon="-89.78525">
        <ele>1604.2161</ele>
        <time>2020-07-26T16:42:25Z</time>
      </trkpt>
      <trkpt lat="13.893364" lon="-89.78528">
        <ele>1604.2334</ele>
        <time>2020-07-26T16:42:27Z</time>
      </trkpt>
      <trkpt lat="13.893407" lon="-89.7853">
        <ele>1602.2109</ele>
        <time>2020-07-26T16:42:29Z</time>
      </trkpt>
      <trkpt lat="13.893454" lon="-89.78528">
        <ele>1599.9817</ele>
        <time>2020-07-26T16:42:31Z</time>
      </trkpt>
      <trkpt lat="13.893488" lon="-89.78525">
        <ele>1601.3823</ele>
        <time>2020-07-26T16:42:33Z</time>
      </trkpt>
      <trkpt lat="13.893539" lon="-89.78526">
        <ele>1602.7573</ele>
        <time>2020-07-26T16:42:37Z</time>
      </trkpt>
      <trkpt lat="13.893574" lon="-89.78531">
        <ele>1603.3494</ele>
        <time>2020-07-26T16:42:39Z</time>
      </trkpt>
      <trkpt lat="13.893601" lon="-89.785355">
        <ele>1603.8726</ele>
        <time>2020-07-26T16:42:41Z</time>
      </trkpt>
      <trkpt lat="13.893646" lon="-89.785385">
        <ele>1601.0186</ele>
        <time>2020-07-26T16:42:43Z</time>
      </trkpt>
      <trkpt lat="13.893692" lon="-89.785416">
        <ele>1602.0134</ele>
        <time>2020-07-26T16:42:45Z</time>
      </trkpt>
      <trkpt lat="13.893736" lon="-89.78544">
        <ele>1603.3538</ele>
        <time>2020-07-26T16:42:47Z</time>
      </trkpt>
      <trkpt lat="13.893757" lon="-89.78549">
        <ele>1603.312</ele>
        <time>2020-07-26T16:42:49Z</time>
      </trkpt>
      <trkpt lat="13.893753" lon="-89.785545">
        <ele>1606.0186</ele>
        <time>2020-07-26T16:42:51Z</time>
      </trkpt>
      <trkpt lat="13.893762" lon="-89.7856">
        <ele>1604.3188</ele>
        <time>2020-07-26T16:42:53Z</time>
      </trkpt>
      <trkpt lat="13.893787" lon="-89.785645">
        <ele>1607.189</ele>
        <time>2020-07-26T16:42:55Z</time>
      </trkpt>
      <trkpt lat="13.893803" lon="-89.7857">
        <ele>1605.7224</ele>
        <time>2020-07-26T16:42:57Z</time>
      </trkpt>
      <trkpt lat="13.89381" lon="-89.78577">
        <ele>1605.1155</ele>
        <time>2020-07-26T16:43:00Z</time>
      </trkpt>
      <trkpt lat="13.893845" lon="-89.78583">
        <ele>1604.0896</ele>
        <time>2020-07-26T16:43:03Z</time>
      </trkpt>
      <trkpt lat="13.893874" lon="-89.785866">
        <ele>1603.6372</ele>
        <time>2020-07-26T16:43:05Z</time>
      </trkpt>
      <trkpt lat="13.893894" lon="-89.78591">
        <ele>1603.9583</ele>
        <time>2020-07-26T16:43:07Z</time>
      </trkpt>
      <trkpt lat="13.893899" lon="-89.78598">
        <ele>1602.7341</ele>
        <time>2020-07-26T16:43:10Z</time>
      </trkpt>
      <trkpt lat="13.8939085" lon="-89.786026">
        <ele>1603.1516</ele>
        <time>2020-07-26T16:43:12Z</time>
      </trkpt>
      <trkpt lat="13.89392" lon="-89.78609">
        <ele>1603.792</ele>
        <time>2020-07-26T16:43:14Z</time>
      </trkpt>
      <trkpt lat="13.89394" lon="-89.78614">
        <ele>1604.252</ele>
        <time>2020-07-26T16:43:16Z</time>
      </trkpt>
      <trkpt lat="13.893966" lon="-89.78619">
        <ele>1604.6157</ele>
        <time>2020-07-26T16:43:18Z</time>
      </trkpt>
      <trkpt lat="13.8939905" lon="-89.78623">
        <ele>1604.6313</ele>
        <time>2020-07-26T16:43:20Z</time>
      </trkpt>
      <trkpt lat="13.894022" lon="-89.78629">
        <ele>1603.3726</ele>
        <time>2020-07-26T16:43:23Z</time>
      </trkpt>
      <trkpt lat="13.89404" lon="-89.786354">
        <ele>1605.1265</ele>
        <time>2020-07-26T16:43:26Z</time>
      </trkpt>
      <trkpt lat="13.894013" lon="-89.78639">
        <ele>1605.7793</ele>
        <time>2020-07-26T16:43:28Z</time>
      </trkpt>
      <trkpt lat="13.893976" lon="-89.78643">
        <ele>1605.9397</ele>
        <time>2020-07-26T16:43:30Z</time>
      </trkpt>
      <trkpt lat="13.893931" lon="-89.78647">
        <ele>1605.0256</ele>
        <time>2020-07-26T16:43:33Z</time>
      </trkpt>
      <trkpt lat="13.893891" lon="-89.78652">
        <ele>1603.957</ele>
        <time>2020-07-26T16:43:36Z</time>
      </trkpt>
      <trkpt lat="13.893867" lon="-89.78657">
        <ele>1603.4058</ele>
        <time>2020-07-26T16:43:39Z</time>
      </trkpt>
      <trkpt lat="13.89384" lon="-89.78663">
        <ele>1603.6797</ele>
        <time>2020-07-26T16:43:42Z</time>
      </trkpt>
      <trkpt lat="13.893828" lon="-89.786674">
        <ele>1603.9763</ele>
        <time>2020-07-26T16:43:44Z</time>
      </trkpt>
      <trkpt lat="13.893823" lon="-89.786736">
        <ele>1605.4053</ele>
        <time>2020-07-26T16:43:46Z</time>
      </trkpt>
      <trkpt lat="13.893809" lon="-89.78679">
        <ele>1606.6958</ele>
        <time>2020-07-26T16:43:48Z</time>
      </trkpt>
      <trkpt lat="13.893782" lon="-89.786835">
        <ele>1605.1372</ele>
        <time>2020-07-26T16:43:50Z</time>
      </trkpt>
      <trkpt lat="13.893746" lon="-89.78687">
        <ele>1604.0144</ele>
        <time>2020-07-26T16:43:52Z</time>
      </trkpt>
      <trkpt lat="13.893703" lon="-89.78692">
        <ele>1604.2378</ele>
        <time>2020-07-26T16:43:55Z</time>
      </trkpt>
      <trkpt lat="13.893681" lon="-89.786964">
        <ele>1603.5208</ele>
        <time>2020-07-26T16:43:57Z</time>
      </trkpt>
      <trkpt lat="13.893661" lon="-89.78701">
        <ele>1603.5664</ele>
        <time>2020-07-26T16:43:59Z</time>
      </trkpt>
      <trkpt lat="13.89365" lon="-89.78706">
        <ele>1605.3997</ele>
        <time>2020-07-26T16:44:01Z</time>
      </trkpt>
      <trkpt lat="13.893609" lon="-89.78712">
        <ele>1609.0361</ele>
        <time>2020-07-26T16:44:04Z</time>
      </trkpt>
      <trkpt lat="13.893576" lon="-89.787155">
        <ele>1609.4287</ele>
        <time>2020-07-26T16:44:06Z</time>
      </trkpt>
      <trkpt lat="13.893567" lon="-89.78721">
        <ele>1608.9331</ele>
        <time>2020-07-26T16:44:08Z</time>
      </trkpt>
      <trkpt lat="13.893558" lon="-89.787254">
        <ele>1609.4443</ele>
        <time>2020-07-26T16:44:10Z</time>
      </trkpt>
      <trkpt lat="13.89354" lon="-89.7873">
        <ele>1609.417</ele>
        <time>2020-07-26T16:44:12Z</time>
      </trkpt>
      <trkpt lat="13.893522" lon="-89.78735">
        <ele>1610.1948</ele>
        <time>2020-07-26T16:44:14Z</time>
      </trkpt>
      <trkpt lat="13.893514" lon="-89.7874">
        <ele>1608.7949</ele>
        <time>2020-07-26T16:44:16Z</time>
      </trkpt>
      <trkpt lat="13.893507" lon="-89.78745">
        <ele>1609.1475</ele>
        <time>2020-07-26T16:44:18Z</time>
      </trkpt>
      <trkpt lat="13.893494" lon="-89.7875">
        <ele>1607.0688</ele>
        <time>2020-07-26T16:44:20Z</time>
      </trkpt>
      <trkpt lat="13.893483" lon="-89.787544">
        <ele>1607.2117</ele>
        <time>2020-07-26T16:44:22Z</time>
      </trkpt>
      <trkpt lat="13.893467" lon="-89.78759">
        <ele>1606.0181</ele>
        <time>2020-07-26T16:44:24Z</time>
      </trkpt>
      <trkpt lat="13.893458" lon="-89.787636">
        <ele>1604.6699</ele>
        <time>2020-07-26T16:44:26Z</time>
      </trkpt>
      <trkpt lat="13.89345" lon="-89.78768">
        <ele>1603.0474</ele>
        <time>2020-07-26T16:44:28Z</time>
      </trkpt>
      <trkpt lat="13.893436" lon="-89.78773">
        <ele>1603.5337</ele>
        <time>2020-07-26T16:44:30Z</time>
      </trkpt>
      <trkpt lat="13.893434" lon="-89.787796">
        <ele>1602.7979</ele>
        <time>2020-07-26T16:44:33Z</time>
      </trkpt>
      <trkpt lat="13.893436" lon="-89.78785">
        <ele>1603.8232</ele>
        <time>2020-07-26T16:44:35Z</time>
      </trkpt>
      <trkpt lat="13.893449" lon="-89.787895">
        <ele>1605.7578</ele>
        <time>2020-07-26T16:44:37Z</time>
      </trkpt>
      <trkpt lat="13.893465" lon="-89.78794">
        <ele>1606.396</ele>
        <time>2020-07-26T16:44:39Z</time>
      </trkpt>
      <trkpt lat="13.893459" lon="-89.787994">
        <ele>1605.1909</ele>
        <time>2020-07-26T16:44:41Z</time>
      </trkpt>
      <trkpt lat="13.893441" lon="-89.78805">
        <ele>1607.2156</ele>
        <time>2020-07-26T16:44:43Z</time>
      </trkpt>
      <trkpt lat="13.893435" lon="-89.7881">
        <ele>1607.9548</ele>
        <time>2020-07-26T16:44:45Z</time>
      </trkpt>
      <trkpt lat="13.893428" lon="-89.78815">
        <ele>1608.1245</ele>
        <time>2020-07-26T16:44:47Z</time>
      </trkpt>
      <trkpt lat="13.8934145" lon="-89.78819">
        <ele>1608.0771</ele>
        <time>2020-07-26T16:44:49Z</time>
      </trkpt>
      <trkpt lat="13.893386" lon="-89.78824">
        <ele>1608.3401</ele>
        <time>2020-07-26T16:44:51Z</time>
      </trkpt>
      <trkpt lat="13.893368" lon="-89.788284">
        <ele>1607.499</ele>
        <time>2020-07-26T16:44:53Z</time>
      </trkpt>
      <trkpt lat="13.893367" lon="-89.788345">
        <ele>1608.5647</ele>
        <time>2020-07-26T16:44:56Z</time>
      </trkpt>
      <trkpt lat="13.893349" lon="-89.78839">
        <ele>1606.936</ele>
        <time>2020-07-26T16:44:58Z</time>
      </trkpt>
      <trkpt lat="13.893306" lon="-89.788445">
        <ele>1605.9707</ele>
        <time>2020-07-26T16:45:01Z</time>
      </trkpt>
      <trkpt lat="13.893251" lon="-89.78846">
        <ele>1605.3369</ele>
        <time>2020-07-26T16:45:03Z</time>
      </trkpt>
      <trkpt lat="13.893201" lon="-89.78847">
        <ele>1604.9048</ele>
        <time>2020-07-26T16:45:05Z</time>
      </trkpt>
      <trkpt lat="13.893165" lon="-89.7885">
        <ele>1605.2637</ele>
        <time>2020-07-26T16:45:07Z</time>
      </trkpt>
      <trkpt lat="13.893134" lon="-89.788536">
        <ele>1604.6475</ele>
        <time>2020-07-26T16:45:09Z</time>
      </trkpt>
      <trkpt lat="13.893091" lon="-89.78856">
        <ele>1603.4214</ele>
        <time>2020-07-26T16:45:11Z</time>
      </trkpt>
      <trkpt lat="13.893043" lon="-89.78858">
        <ele>1602.9097</ele>
        <time>2020-07-26T16:45:13Z</time>
      </trkpt>
      <trkpt lat="13.892996" lon="-89.7886">
        <ele>1603.2615</ele>
        <time>2020-07-26T16:45:15Z</time>
      </trkpt>
      <trkpt lat="13.892947" lon="-89.788605">
        <ele>1601.6975</ele>
        <time>2020-07-26T16:45:17Z</time>
      </trkpt>
      <trkpt lat="13.8928995" lon="-89.78861">
        <ele>1603.6357</ele>
        <time>2020-07-26T16:45:19Z</time>
      </trkpt>
      <trkpt lat="13.892854" lon="-89.788605">
        <ele>1604.145</ele>
        <time>2020-07-26T16:45:21Z</time>
      </trkpt>
      <trkpt lat="13.892806" lon="-89.7886">
        <ele>1603.583</ele>
        <time>2020-07-26T16:45:23Z</time>
      </trkpt>
      <trkpt lat="13.892758" lon="-89.7886">
        <ele>1602.832</ele>
        <time>2020-07-26T16:45:25Z</time>
      </trkpt>
      <trkpt lat="13.892712" lon="-89.7886">
        <ele>1602.7036</ele>
        <time>2020-07-26T16:45:27Z</time>
      </trkpt>
      <trkpt lat="13.892666" lon="-89.788605">
        <ele>1604.3003</ele>
        <time>2020-07-26T16:45:29Z</time>
      </trkpt>
      <trkpt lat="13.892601" lon="-89.78859">
        <ele>1604.383</ele>
        <time>2020-07-26T16:45:32Z</time>
      </trkpt>
      <trkpt lat="13.892557" lon="-89.78855">
        <ele>1602.6909</ele>
        <time>2020-07-26T16:45:35Z</time>
      </trkpt>
      <trkpt lat="13.892518" lon="-89.788506">
        <ele>1602.2766</ele>
        <time>2020-07-26T16:45:38Z</time>
      </trkpt>
      <trkpt lat="13.892448" lon="-89.788506">
        <ele>1597.1687</ele>
        <time>2020-07-26T16:45:41Z</time>
      </trkpt>
      <trkpt lat="13.892393" lon="-89.78852">
        <ele>1597.165</ele>
        <time>2020-07-26T16:45:43Z</time>
      </trkpt>
      <trkpt lat="13.892339" lon="-89.788536">
        <ele>1598.627</ele>
        <time>2020-07-26T16:45:45Z</time>
      </trkpt>
      <trkpt lat="13.892283" lon="-89.78855">
        <ele>1598.7056</ele>
        <time>2020-07-26T16:45:47Z</time>
      </trkpt>
      <trkpt lat="13.89223" lon="-89.78858">
        <ele>1600.8418</ele>
        <time>2020-07-26T16:45:49Z</time>
      </trkpt>
      <trkpt lat="13.892179" lon="-89.78861">
        <ele>1600.3784</ele>
        <time>2020-07-26T16:45:51Z</time>
      </trkpt>
      <trkpt lat="13.892128" lon="-89.78863">
        <ele>1601.3027</ele>
        <time>2020-07-26T16:45:53Z</time>
      </trkpt>
      <trkpt lat="13.892074" lon="-89.78862">
        <ele>1602.0405</ele>
        <time>2020-07-26T16:45:55Z</time>
      </trkpt>
      <trkpt lat="13.892021" lon="-89.78862">
        <ele>1602.1511</ele>
        <time>2020-07-26T16:45:57Z</time>
      </trkpt>
      <trkpt lat="13.8919735" lon="-89.78863">
        <ele>1601.4907</ele>
        <time>2020-07-26T16:45:59Z</time>
      </trkpt>
      <trkpt lat="13.891927" lon="-89.78865">
        <ele>1601.2998</ele>
        <time>2020-07-26T16:46:01Z</time>
      </trkpt>
      <trkpt lat="13.891878" lon="-89.788666">
        <ele>1601.6833</ele>
        <time>2020-07-26T16:46:03Z</time>
      </trkpt>
      <trkpt lat="13.891827" lon="-89.78865">
        <ele>1600.5767</ele>
        <time>2020-07-26T16:46:05Z</time>
      </trkpt>
      <trkpt lat="13.891776" lon="-89.78863">
        <ele>1598.7896</ele>
        <time>2020-07-26T16:46:07Z</time>
      </trkpt>
      <trkpt lat="13.891725" lon="-89.788635">
        <ele>1598.8003</ele>
        <time>2020-07-26T16:46:09Z</time>
      </trkpt>
      <trkpt lat="13.891679" lon="-89.78866">
        <ele>1598.7554</ele>
        <time>2020-07-26T16:46:11Z</time>
      </trkpt>
      <trkpt lat="13.891628" lon="-89.788666">
        <ele>1600.519</ele>
        <time>2020-07-26T16:46:13Z</time>
      </trkpt>
      <trkpt lat="13.891577" lon="-89.78864">
        <ele>1599.8455</ele>
        <time>2020-07-26T16:46:15Z</time>
      </trkpt>
      <trkpt lat="13.891526" lon="-89.788635">
        <ele>1599.1892</ele>
        <time>2020-07-26T16:46:17Z</time>
      </trkpt>
      <trkpt lat="13.891476" lon="-89.78862">
        <ele>1597.52</ele>
        <time>2020-07-26T16:46:19Z</time>
      </trkpt>
      <trkpt lat="13.891434" lon="-89.78859">
        <ele>1596.6191</ele>
        <time>2020-07-26T16:46:21Z</time>
      </trkpt>
      <trkpt lat="13.891393" lon="-89.78856">
        <ele>1598.0356</ele>
        <time>2020-07-26T16:46:23Z</time>
      </trkpt>
      <trkpt lat="13.891344" lon="-89.788536">
        <ele>1598.6094</ele>
        <time>2020-07-26T16:46:25Z</time>
      </trkpt>
      <trkpt lat="13.891291" lon="-89.78854">
        <ele>1596.2085</ele>
        <time>2020-07-26T16:46:27Z</time>
      </trkpt>
      <trkpt lat="13.89124" lon="-89.78854">
        <ele>1595.3784</ele>
        <time>2020-07-26T16:46:29Z</time>
      </trkpt>
      <trkpt lat="13.891188" lon="-89.78854">
        <ele>1593.3105</ele>
        <time>2020-07-26T16:46:31Z</time>
      </trkpt>
      <trkpt lat="13.891188" lon="-89.78854">
        <ele>1593.3105</ele>
        <time>2020-07-26T16:46:31Z</time>
      </trkpt>
      <trkpt lat="13.891093" lon="-89.78873">
        <ele>1588.5088</ele>
        <time>2020-07-26T16:46:49Z</time>
      </trkpt>
      <trkpt lat="13.891035" lon="-89.78872">
        <ele>1593.7878</ele>
        <time>2020-07-26T16:46:50Z</time>
      </trkpt>
      <trkpt lat="13.890978" lon="-89.78868">
        <ele>1592.5332</ele>
        <time>2020-07-26T16:46:51Z</time>
      </trkpt>
      <trkpt lat="13.890932" lon="-89.78869">
        <ele>1604.0503</ele>
        <time>2020-07-26T16:46:54Z</time>
      </trkpt>
      <trkpt lat="13.890893" lon="-89.78872">
        <ele>1604.4016</ele>
        <time>2020-07-26T16:46:57Z</time>
      </trkpt>
      <trkpt lat="13.890853" lon="-89.78876">
        <ele>1606.5591</ele>
        <time>2020-07-26T16:47:01Z</time>
      </trkpt>
      <trkpt lat="13.890809" lon="-89.78878">
        <ele>1609.3267</ele>
        <time>2020-07-26T16:47:05Z</time>
      </trkpt>
      <trkpt lat="13.890753" lon="-89.78877">
        <ele>1606.4343</ele>
        <time>2020-07-26T16:47:09Z</time>
      </trkpt>
      <trkpt lat="13.890704" lon="-89.78878">
        <ele>1606.8132</ele>
        <time>2020-07-26T16:47:12Z</time>
      </trkpt>
      <trkpt lat="13.890655" lon="-89.78878">
        <ele>1608.6829</ele>
        <time>2020-07-26T16:47:15Z</time>
      </trkpt>
      <trkpt lat="13.890604" lon="-89.78878">
        <ele>1608.1494</ele>
        <time>2020-07-26T16:47:19Z</time>
      </trkpt>
      <trkpt lat="13.89057" lon="-89.78881">
        <ele>1606.1472</ele>
        <time>2020-07-26T16:47:22Z</time>
      </trkpt>
      <trkpt lat="13.890542" lon="-89.78885">
        <ele>1606.748</ele>
        <time>2020-07-26T16:47:27Z</time>
      </trkpt>
      <trkpt lat="13.890506" lon="-89.78889">
        <ele>1605.8643</ele>
        <time>2020-07-26T16:47:31Z</time>
      </trkpt>
      <trkpt lat="13.890468" lon="-89.78892">
        <ele>1608.1719</ele>
        <time>2020-07-26T16:47:35Z</time>
      </trkpt>
      <trkpt lat="13.890439" lon="-89.788956">
        <ele>1611.6963</ele>
        <time>2020-07-26T16:47:40Z</time>
      </trkpt>
      <trkpt lat="13.8904085" lon="-89.789">
        <ele>1614.9648</ele>
        <time>2020-07-26T16:47:45Z</time>
      </trkpt>
      <trkpt lat="13.890391" lon="-89.78905">
        <ele>1615.249</ele>
        <time>2020-07-26T16:47:50Z</time>
      </trkpt>
      <trkpt lat="13.89036" lon="-89.789085">
        <ele>1619.178</ele>
        <time>2020-07-26T16:47:55Z</time>
      </trkpt>
      <trkpt lat="13.890322" lon="-89.78912">
        <ele>1617.771</ele>
        <time>2020-07-26T16:48:00Z</time>
      </trkpt>
      <trkpt lat="13.89027" lon="-89.78915">
        <ele>1620.3813</ele>
        <time>2020-07-26T16:48:07Z</time>
      </trkpt>
      <trkpt lat="13.890223" lon="-89.78916">
        <ele>1623.1553</ele>
        <time>2020-07-26T16:48:11Z</time>
      </trkpt>
      <trkpt lat="13.890174" lon="-89.78918">
        <ele>1624.4097</ele>
        <time>2020-07-26T16:48:15Z</time>
      </trkpt>
      <trkpt lat="13.890126" lon="-89.789185">
        <ele>1621.8457</ele>
        <time>2020-07-26T16:48:17Z</time>
      </trkpt>
      <trkpt lat="13.890074" lon="-89.78917">
        <ele>1621.626</ele>
        <time>2020-07-26T16:48:19Z</time>
      </trkpt>
      <trkpt lat="13.890022" lon="-89.78916">
        <ele>1621.5168</ele>
        <time>2020-07-26T16:48:21Z</time>
      </trkpt>
      <trkpt lat="13.88997" lon="-89.78918">
        <ele>1619.4456</ele>
        <time>2020-07-26T16:48:23Z</time>
      </trkpt>
      <trkpt lat="13.889912" lon="-89.78919">
        <ele>1620.396</ele>
        <time>2020-07-26T16:48:25Z</time>
      </trkpt>
      <trkpt lat="13.88985" lon="-89.78921">
        <ele>1622.2349</ele>
        <time>2020-07-26T16:48:27Z</time>
      </trkpt>
      <trkpt lat="13.889787" lon="-89.789215">
        <ele>1620.3479</ele>
        <time>2020-07-26T16:48:29Z</time>
      </trkpt>
      <trkpt lat="13.88972" lon="-89.7892">
        <ele>1618.9514</ele>
        <time>2020-07-26T16:48:31Z</time>
      </trkpt>
      <trkpt lat="13.889651" lon="-89.78918">
        <ele>1618.9629</ele>
        <time>2020-07-26T16:48:33Z</time>
      </trkpt>
      <trkpt lat="13.889582" lon="-89.789154">
        <ele>1617.6245</ele>
        <time>2020-07-26T16:48:35Z</time>
      </trkpt>
      <trkpt lat="13.889516" lon="-89.78915">
        <ele>1618.874</ele>
        <time>2020-07-26T16:48:37Z</time>
      </trkpt>
      <trkpt lat="13.889452" lon="-89.789154">
        <ele>1619.3474</ele>
        <time>2020-07-26T16:48:39Z</time>
      </trkpt>
      <trkpt lat="13.889386" lon="-89.78914">
        <ele>1618.5491</ele>
        <time>2020-07-26T16:48:41Z</time>
      </trkpt>
      <trkpt lat="13.889323" lon="-89.78912">
        <ele>1619.1768</ele>
        <time>2020-07-26T16:48:43Z</time>
      </trkpt>
      <trkpt lat="13.889265" lon="-89.7891">
        <ele>1619.6709</ele>
        <time>2020-07-26T16:48:45Z</time>
      </trkpt>
      <trkpt lat="13.889208" lon="-89.789085">
        <ele>1620.4077</ele>
        <time>2020-07-26T16:48:47Z</time>
      </trkpt>
      <trkpt lat="13.889156" lon="-89.789055">
        <ele>1620.1816</ele>
        <time>2020-07-26T16:48:49Z</time>
      </trkpt>
      <trkpt lat="13.889103" lon="-89.78905">
        <ele>1621.0796</ele>
        <time>2020-07-26T16:48:51Z</time>
      </trkpt>
      <trkpt lat="13.889047" lon="-89.78904">
        <ele>1616.6533</ele>
        <time>2020-07-26T16:48:53Z</time>
      </trkpt>
      <trkpt lat="13.888986" lon="-89.78901">
        <ele>1612.7617</ele>
        <time>2020-07-26T16:48:55Z</time>
      </trkpt>
      <trkpt lat="13.88893" lon="-89.78897">
        <ele>1610.7007</ele>
        <time>2020-07-26T16:48:57Z</time>
      </trkpt>
      <trkpt lat="13.888873" lon="-89.78894">
        <ele>1612.1733</ele>
        <time>2020-07-26T16:48:59Z</time>
      </trkpt>
      <trkpt lat="13.888812" lon="-89.788925">
        <ele>1612.6929</ele>
        <time>2020-07-26T16:49:01Z</time>
      </trkpt>
      <trkpt lat="13.888754" lon="-89.78891">
        <ele>1614.9116</ele>
        <time>2020-07-26T16:49:03Z</time>
      </trkpt>
      <trkpt lat="13.888697" lon="-89.7889">
        <ele>1617.7478</ele>
        <time>2020-07-26T16:49:05Z</time>
      </trkpt>
      <trkpt lat="13.888641" lon="-89.7889">
        <ele>1617.4524</ele>
        <time>2020-07-26T16:49:07Z</time>
      </trkpt>
      <trkpt lat="13.888585" lon="-89.78891">
        <ele>1616.9053</ele>
        <time>2020-07-26T16:49:09Z</time>
      </trkpt>
      <trkpt lat="13.888526" lon="-89.78892">
        <ele>1616.9873</ele>
        <time>2020-07-26T16:49:11Z</time>
      </trkpt>
      <trkpt lat="13.888467" lon="-89.78894">
        <ele>1617.5703</ele>
        <time>2020-07-26T16:49:13Z</time>
      </trkpt>
      <trkpt lat="13.888412" lon="-89.78898">
        <ele>1617.6279</ele>
        <time>2020-07-26T16:49:15Z</time>
      </trkpt>
      <trkpt lat="13.888351" lon="-89.78898">
        <ele>1617.5391</ele>
        <time>2020-07-26T16:49:17Z</time>
      </trkpt>
      <trkpt lat="13.888287" lon="-89.788956">
        <ele>1617.9873</ele>
        <time>2020-07-26T16:49:19Z</time>
      </trkpt>
      <trkpt lat="13.888227" lon="-89.788956">
        <ele>1617.0127</ele>
        <time>2020-07-26T16:49:21Z</time>
      </trkpt>
      <trkpt lat="13.888169" lon="-89.78897">
        <ele>1615.7239</ele>
        <time>2020-07-26T16:49:23Z</time>
      </trkpt>
      <trkpt lat="13.88811" lon="-89.788994">
        <ele>1616.7842</ele>
        <time>2020-07-26T16:49:25Z</time>
      </trkpt>
      <trkpt lat="13.888061" lon="-89.78904">
        <ele>1617.3667</ele>
        <time>2020-07-26T16:49:27Z</time>
      </trkpt>
      <trkpt lat="13.8880205" lon="-89.78908">
        <ele>1614.2363</ele>
        <time>2020-07-26T16:49:29Z</time>
      </trkpt>
      <trkpt lat="13.887983" lon="-89.789116">
        <ele>1614.4185</ele>
        <time>2020-07-26T16:49:31Z</time>
      </trkpt>
      <trkpt lat="13.88794" lon="-89.78915">
        <ele>1614.551</ele>
        <time>2020-07-26T16:49:33Z</time>
      </trkpt>
      <trkpt lat="13.887888" lon="-89.78917">
        <ele>1615.3169</ele>
        <time>2020-07-26T16:49:35Z</time>
      </trkpt>
      <trkpt lat="13.88784" lon="-89.78921">
        <ele>1616.6716</ele>
        <time>2020-07-26T16:49:37Z</time>
      </trkpt>
      <trkpt lat="13.887799" lon="-89.789246">
        <ele>1615.3623</ele>
        <time>2020-07-26T16:49:39Z</time>
      </trkpt>
      <trkpt lat="13.887757" lon="-89.789276">
        <ele>1614.033</ele>
        <time>2020-07-26T16:49:41Z</time>
      </trkpt>
      <trkpt lat="13.887717" lon="-89.7893">
        <ele>1614.8247</ele>
        <time>2020-07-26T16:49:43Z</time>
      </trkpt>
      <trkpt lat="13.88766" lon="-89.78934">
        <ele>1616.3254</ele>
        <time>2020-07-26T16:49:46Z</time>
      </trkpt>
      <trkpt lat="13.887617" lon="-89.78937">
        <ele>1616.1313</ele>
        <time>2020-07-26T16:49:48Z</time>
      </trkpt>
      <trkpt lat="13.887578" lon="-89.7894">
        <ele>1614.5264</ele>
        <time>2020-07-26T16:49:50Z</time>
      </trkpt>
      <trkpt lat="13.887537" lon="-89.78942">
        <ele>1615.5981</ele>
        <time>2020-07-26T16:49:52Z</time>
      </trkpt>
      <trkpt lat="13.887499" lon="-89.78945">
        <ele>1615.5813</ele>
        <time>2020-07-26T16:49:54Z</time>
      </trkpt>
      <trkpt lat="13.887473" lon="-89.7895">
        <ele>1615.8562</ele>
        <time>2020-07-26T16:49:56Z</time>
      </trkpt>
      <trkpt lat="13.887434" lon="-89.78953">
        <ele>1618.8096</ele>
        <time>2020-07-26T16:49:58Z</time>
      </trkpt>
      <trkpt lat="13.887389" lon="-89.78955">
        <ele>1620.0671</ele>
        <time>2020-07-26T16:50:00Z</time>
      </trkpt>
      <trkpt lat="13.887336" lon="-89.78955">
        <ele>1618.7283</ele>
        <time>2020-07-26T16:50:02Z</time>
      </trkpt>
      <trkpt lat="13.88729" lon="-89.78951">
        <ele>1618.8252</ele>
        <time>2020-07-26T16:50:04Z</time>
      </trkpt>
      <trkpt lat="13.887247" lon="-89.789474">
        <ele>1617.8286</ele>
        <time>2020-07-26T16:50:06Z</time>
      </trkpt>
      <trkpt lat="13.887199" lon="-89.78947">
        <ele>1618.5896</ele>
        <time>2020-07-26T16:50:08Z</time>
      </trkpt>
      <trkpt lat="13.887151" lon="-89.78947">
        <ele>1619.072</ele>
        <time>2020-07-26T16:50:10Z</time>
      </trkpt>
      <trkpt lat="13.887107" lon="-89.78944">
        <ele>1618.6152</ele>
        <time>2020-07-26T16:50:12Z</time>
      </trkpt>
      <trkpt lat="13.887064" lon="-89.7894">
        <ele>1620.2666</ele>
        <time>2020-07-26T16:50:14Z</time>
      </trkpt>
      <trkpt lat="13.887013" lon="-89.789375">
        <ele>1624.1152</ele>
        <time>2020-07-26T16:50:17Z</time>
      </trkpt>
      <trkpt lat="13.886978" lon="-89.789345">
        <ele>1625.6152</ele>
        <time>2020-07-26T16:50:20Z</time>
      </trkpt>
      <trkpt lat="13.886946" lon="-89.78931">
        <ele>1627.1919</ele>
        <time>2020-07-26T16:50:23Z</time>
      </trkpt>
      <trkpt lat="13.8869095" lon="-89.789276">
        <ele>1626.5688</ele>
        <time>2020-07-26T16:50:26Z</time>
      </trkpt>
      <trkpt lat="13.886863" lon="-89.789246">
        <ele>1628.05</ele>
        <time>2020-07-26T16:50:30Z</time>
      </trkpt>
      <trkpt lat="13.886811" lon="-89.78923">
        <ele>1629.2322</ele>
        <time>2020-07-26T16:50:33Z</time>
      </trkpt>
      <trkpt lat="13.886758" lon="-89.789215">
        <ele>1629.2788</ele>
        <time>2020-07-26T16:50:35Z</time>
      </trkpt>
      <trkpt lat="13.886709" lon="-89.789215">
        <ele>1628.7222</ele>
        <time>2020-07-26T16:50:37Z</time>
      </trkpt>
      <trkpt lat="13.886665" lon="-89.78923">
        <ele>1626.8613</ele>
        <time>2020-07-26T16:50:39Z</time>
      </trkpt>
      <trkpt lat="13.886621" lon="-89.789246">
        <ele>1627.8237</ele>
        <time>2020-07-26T16:50:41Z</time>
      </trkpt>
      <trkpt lat="13.886576" lon="-89.78923">
        <ele>1628.0676</ele>
        <time>2020-07-26T16:50:43Z</time>
      </trkpt>
      <trkpt lat="13.886538" lon="-89.789185">
        <ele>1627.8403</ele>
        <time>2020-07-26T16:50:45Z</time>
      </trkpt>
      <trkpt lat="13.886509" lon="-89.78914">
        <ele>1628.1719</ele>
        <time>2020-07-26T16:50:47Z</time>
      </trkpt>
      <trkpt lat="13.886449" lon="-89.78911">
        <ele>1627.9443</ele>
        <time>2020-07-26T16:50:50Z</time>
      </trkpt>
      <trkpt lat="13.886388" lon="-89.78909">
        <ele>1627.3076</ele>
        <time>2020-07-26T16:50:53Z</time>
      </trkpt>
      <trkpt lat="13.8863325" lon="-89.78907">
        <ele>1627.502</ele>
        <time>2020-07-26T16:50:56Z</time>
      </trkpt>
      <trkpt lat="13.886276" lon="-89.78905">
        <ele>1626.313</ele>
        <time>2020-07-26T16:50:59Z</time>
      </trkpt>
      <trkpt lat="13.886217" lon="-89.789024">
        <ele>1626.5049</ele>
        <time>2020-07-26T16:51:02Z</time>
      </trkpt>
      <trkpt lat="13.88616" lon="-89.788994">
        <ele>1627.7632</ele>
        <time>2020-07-26T16:51:05Z</time>
      </trkpt>
      <trkpt lat="13.886095" lon="-89.78899">
        <ele>1629.4177</ele>
        <time>2020-07-26T16:51:08Z</time>
      </trkpt>
      <trkpt lat="13.88605" lon="-89.789">
        <ele>1629.8679</ele>
        <time>2020-07-26T16:51:10Z</time>
      </trkpt>
      <trkpt lat="13.885986" lon="-89.78899">
        <ele>1631.3159</ele>
        <time>2020-07-26T16:51:13Z</time>
      </trkpt>
      <trkpt lat="13.885946" lon="-89.78896">
        <ele>1632.6643</ele>
        <time>2020-07-26T16:51:15Z</time>
      </trkpt>
      <trkpt lat="13.885902" lon="-89.78895">
        <ele>1633.2854</ele>
        <time>2020-07-26T16:51:17Z</time>
      </trkpt>
      <trkpt lat="13.885839" lon="-89.78894">
        <ele>1634.1931</ele>
        <time>2020-07-26T16:51:20Z</time>
      </trkpt>
      <trkpt lat="13.885792" lon="-89.78893">
        <ele>1635.5474</ele>
        <time>2020-07-26T16:51:23Z</time>
      </trkpt>
      <trkpt lat="13.88574" lon="-89.78892">
        <ele>1634.9966</ele>
        <time>2020-07-26T16:51:27Z</time>
      </trkpt>
      <trkpt lat="13.8856945" lon="-89.78891">
        <ele>1635.4883</ele>
        <time>2020-07-26T16:51:30Z</time>
      </trkpt>
      <trkpt lat="13.885635" lon="-89.78892">
        <ele>1635.4961</ele>
        <time>2020-07-26T16:51:34Z</time>
      </trkpt>
      <trkpt lat="13.885569" lon="-89.78891">
        <ele>1634.4634</ele>
        <time>2020-07-26T16:51:37Z</time>
      </trkpt>
      <trkpt lat="13.885503" lon="-89.788895">
        <ele>1633.6035</ele>
        <time>2020-07-26T16:51:40Z</time>
      </trkpt>
      <trkpt lat="13.885455" lon="-89.78889">
        <ele>1632.6519</ele>
        <time>2020-07-26T16:51:42Z</time>
      </trkpt>
      <trkpt lat="13.885405" lon="-89.78889">
        <ele>1634.0542</ele>
        <time>2020-07-26T16:51:44Z</time>
      </trkpt>
      <trkpt lat="13.885351" lon="-89.788895">
        <ele>1634.2366</ele>
        <time>2020-07-26T16:51:46Z</time>
      </trkpt>
      <trkpt lat="13.885299" lon="-89.78889">
        <ele>1633.4536</ele>
        <time>2020-07-26T16:51:48Z</time>
      </trkpt>
      <trkpt lat="13.885243" lon="-89.78887">
        <ele>1633.2266</ele>
        <time>2020-07-26T16:51:50Z</time>
      </trkpt>
      <trkpt lat="13.885184" lon="-89.788864">
        <ele>1631.166</ele>
        <time>2020-07-26T16:51:52Z</time>
      </trkpt>
      <trkpt lat="13.885129" lon="-89.788864">
        <ele>1630.7974</ele>
        <time>2020-07-26T16:51:54Z</time>
      </trkpt>
      <trkpt lat="13.885077" lon="-89.788864">
        <ele>1630.0942</ele>
        <time>2020-07-26T16:51:56Z</time>
      </trkpt>
      <trkpt lat="13.885024" lon="-89.78885">
        <ele>1628.1565</ele>
        <time>2020-07-26T16:51:58Z</time>
      </trkpt>
      <trkpt lat="13.884973" lon="-89.78884">
        <ele>1629.3599</ele>
        <time>2020-07-26T16:52:00Z</time>
      </trkpt>
      <trkpt lat="13.884926" lon="-89.78883">
        <ele>1627.4326</ele>
        <time>2020-07-26T16:52:02Z</time>
      </trkpt>
      <trkpt lat="13.884883" lon="-89.78882">
        <ele>1628.2344</ele>
        <time>2020-07-26T16:52:04Z</time>
      </trkpt>
      <trkpt lat="13.88484" lon="-89.78879">
        <ele>1626.8433</ele>
        <time>2020-07-26T16:52:06Z</time>
      </trkpt>
      <trkpt lat="13.884797" lon="-89.78875">
        <ele>1625.7324</ele>
        <time>2020-07-26T16:52:08Z</time>
      </trkpt>
      <trkpt lat="13.884755" lon="-89.78872">
        <ele>1626.4155</ele>
        <time>2020-07-26T16:52:10Z</time>
      </trkpt>
      <trkpt lat="13.884696" lon="-89.78869">
        <ele>1626.1223</ele>
        <time>2020-07-26T16:52:13Z</time>
      </trkpt>
      <trkpt lat="13.88465" lon="-89.78867">
        <ele>1624.6018</ele>
        <time>2020-07-26T16:52:15Z</time>
      </trkpt>
      <trkpt lat="13.884602" lon="-89.78866">
        <ele>1623.2827</ele>
        <time>2020-07-26T16:52:17Z</time>
      </trkpt>
      <trkpt lat="13.88455" lon="-89.78866">
        <ele>1623.4326</ele>
        <time>2020-07-26T16:52:19Z</time>
      </trkpt>
      <trkpt lat="13.884492" lon="-89.78865">
        <ele>1619.2517</ele>
        <time>2020-07-26T16:52:21Z</time>
      </trkpt>
      <trkpt lat="13.884435" lon="-89.78865">
        <ele>1620.6577</ele>
        <time>2020-07-26T16:52:23Z</time>
      </trkpt>
      <trkpt lat="13.884379" lon="-89.788635">
        <ele>1619.7178</ele>
        <time>2020-07-26T16:52:25Z</time>
      </trkpt>
      <trkpt lat="13.884329" lon="-89.78861">
        <ele>1621.4133</ele>
        <time>2020-07-26T16:52:27Z</time>
      </trkpt>
      <trkpt lat="13.884289" lon="-89.788574">
        <ele>1619.6738</ele>
        <time>2020-07-26T16:52:29Z</time>
      </trkpt>
      <trkpt lat="13.884257" lon="-89.78853">
        <ele>1619.4453</ele>
        <time>2020-07-26T16:52:31Z</time>
      </trkpt>
      <trkpt lat="13.884233" lon="-89.78848">
        <ele>1618.8726</ele>
        <time>2020-07-26T16:52:33Z</time>
      </trkpt>
      <trkpt lat="13.884207" lon="-89.78844">
        <ele>1618.5586</ele>
        <time>2020-07-26T16:52:35Z</time>
      </trkpt>
      <trkpt lat="13.884172" lon="-89.78839">
        <ele>1618.0269</ele>
        <time>2020-07-26T16:52:37Z</time>
      </trkpt>
      <trkpt lat="13.884136" lon="-89.78834">
        <ele>1617.8408</ele>
        <time>2020-07-26T16:52:39Z</time>
      </trkpt>
      <trkpt lat="13.884093" lon="-89.7883">
        <ele>1619.1694</ele>
        <time>2020-07-26T16:52:41Z</time>
      </trkpt>
      <trkpt lat="13.884033" lon="-89.78827">
        <ele>1619.7715</ele>
        <time>2020-07-26T16:52:43Z</time>
      </trkpt>
      <trkpt lat="13.88397" lon="-89.78826">
        <ele>1619.7705</ele>
        <time>2020-07-26T16:52:45Z</time>
      </trkpt>
      <trkpt lat="13.883904" lon="-89.78828">
        <ele>1617.6638</ele>
        <time>2020-07-26T16:52:47Z</time>
      </trkpt>
      <trkpt lat="13.883845" lon="-89.788315">
        <ele>1615.2954</ele>
        <time>2020-07-26T16:52:49Z</time>
      </trkpt>
      <trkpt lat="13.883794" lon="-89.78836">
        <ele>1612.6553</ele>
        <time>2020-07-26T16:52:51Z</time>
      </trkpt>
      <trkpt lat="13.883753" lon="-89.788414">
        <ele>1610.3848</ele>
        <time>2020-07-26T16:52:53Z</time>
      </trkpt>
      <trkpt lat="13.883725" lon="-89.788475">
        <ele>1608.6897</ele>
        <time>2020-07-26T16:52:55Z</time>
      </trkpt>
      <trkpt lat="13.883697" lon="-89.78853">
        <ele>1606.2781</ele>
        <time>2020-07-26T16:52:57Z</time>
      </trkpt>
      <trkpt lat="13.883663" lon="-89.78858">
        <ele>1605.9614</ele>
        <time>2020-07-26T16:52:59Z</time>
      </trkpt>
      <trkpt lat="13.883633" lon="-89.78863">
        <ele>1605.0879</ele>
        <time>2020-07-26T16:53:01Z</time>
      </trkpt>
      <trkpt lat="13.883606" lon="-89.78869">
        <ele>1604.0195</ele>
        <time>2020-07-26T16:53:03Z</time>
      </trkpt>
      <trkpt lat="13.883587" lon="-89.78874">
        <ele>1602.8743</ele>
        <time>2020-07-26T16:53:05Z</time>
      </trkpt>
      <trkpt lat="13.883572" lon="-89.7888">
        <ele>1601.8984</ele>
        <time>2020-07-26T16:53:07Z</time>
      </trkpt>
      <trkpt lat="13.883554" lon="-89.78886">
        <ele>1602.8247</ele>
        <time>2020-07-26T16:53:09Z</time>
      </trkpt>
      <trkpt lat="13.88353" lon="-89.78891">
        <ele>1601.9128</ele>
        <time>2020-07-26T16:53:11Z</time>
      </trkpt>
      <trkpt lat="13.883504" lon="-89.788956">
        <ele>1599.5083</ele>
        <time>2020-07-26T16:53:13Z</time>
      </trkpt>
      <trkpt lat="13.88348" lon="-89.78901">
        <ele>1598.44</ele>
        <time>2020-07-26T16:53:15Z</time>
      </trkpt>
      <trkpt lat="13.883451" lon="-89.789055">
        <ele>1592.7266</ele>
        <time>2020-07-26T16:53:17Z</time>
      </trkpt>
      <trkpt lat="13.883426" lon="-89.78911">
        <ele>1592.533</ele>
        <time>2020-07-26T16:53:19Z</time>
      </trkpt>
      <trkpt lat="13.883426" lon="-89.78917">
        <ele>1591.3123</ele>
        <time>2020-07-26T16:53:21Z</time>
      </trkpt>
      <trkpt lat="13.88345" lon="-89.78923">
        <ele>1590.8003</ele>
        <time>2020-07-26T16:53:23Z</time>
      </trkpt>
      <trkpt lat="13.883478" lon="-89.78929">
        <ele>1590.916</ele>
        <time>2020-07-26T16:53:25Z</time>
      </trkpt>
      <trkpt lat="13.883515" lon="-89.78934">
        <ele>1591.7852</ele>
        <time>2020-07-26T16:53:27Z</time>
      </trkpt>
      <trkpt lat="13.883553" lon="-89.78938">
        <ele>1593.4248</ele>
        <time>2020-07-26T16:53:29Z</time>
      </trkpt>
      <trkpt lat="13.88357" lon="-89.78945">
        <ele>1593.8623</ele>
        <time>2020-07-26T16:53:31Z</time>
      </trkpt>
      <trkpt lat="13.883567" lon="-89.78951">
        <ele>1592.9441</ele>
        <time>2020-07-26T16:53:33Z</time>
      </trkpt>
      <trkpt lat="13.883549" lon="-89.78957">
        <ele>1591.2783</ele>
        <time>2020-07-26T16:53:35Z</time>
      </trkpt>
      <trkpt lat="13.883535" lon="-89.78963">
        <ele>1591.7256</ele>
        <time>2020-07-26T16:53:37Z</time>
      </trkpt>
      <trkpt lat="13.883515" lon="-89.789696">
        <ele>1589.6462</ele>
        <time>2020-07-26T16:53:39Z</time>
      </trkpt>
      <trkpt lat="13.883489" lon="-89.78976">
        <ele>1588.1978</ele>
        <time>2020-07-26T16:53:41Z</time>
      </trkpt>
      <trkpt lat="13.883462" lon="-89.78982">
        <ele>1589.6211</ele>
        <time>2020-07-26T16:53:43Z</time>
      </trkpt>
      <trkpt lat="13.883435" lon="-89.78987">
        <ele>1590.3379</ele>
        <time>2020-07-26T16:53:45Z</time>
      </trkpt>
      <trkpt lat="13.8834" lon="-89.78992">
        <ele>1592.2742</ele>
        <time>2020-07-26T16:53:47Z</time>
      </trkpt>
      <trkpt lat="13.883349" lon="-89.789955">
        <ele>1591.7524</ele>
        <time>2020-07-26T16:53:49Z</time>
      </trkpt>
      <trkpt lat="13.883298" lon="-89.789986">
        <ele>1591.9377</ele>
        <time>2020-07-26T16:53:51Z</time>
      </trkpt>
      <trkpt lat="13.883242" lon="-89.78999">
        <ele>1591.0251</ele>
        <time>2020-07-26T16:53:53Z</time>
      </trkpt>
      <trkpt lat="13.8831835" lon="-89.78998">
        <ele>1590.9092</ele>
        <time>2020-07-26T16:53:55Z</time>
      </trkpt>
      <trkpt lat="13.883129" lon="-89.78998">
        <ele>1591.5281</ele>
        <time>2020-07-26T16:53:57Z</time>
      </trkpt>
      <trkpt lat="13.883085" lon="-89.79001">
        <ele>1589.9922</ele>
        <time>2020-07-26T16:53:59Z</time>
      </trkpt>
      <trkpt lat="13.883052" lon="-89.79005">
        <ele>1589.5869</ele>
        <time>2020-07-26T16:54:01Z</time>
      </trkpt>
      <trkpt lat="13.883017" lon="-89.790085">
        <ele>1589.1416</ele>
        <time>2020-07-26T16:54:03Z</time>
      </trkpt>
      <trkpt lat="13.882981" lon="-89.79012">
        <ele>1589.1577</ele>
        <time>2020-07-26T16:54:05Z</time>
      </trkpt>
      <trkpt lat="13.882981" lon="-89.79018">
        <ele>1589.9136</ele>
        <time>2020-07-26T16:54:07Z</time>
      </trkpt>
      <trkpt lat="13.883014" lon="-89.79024">
        <ele>1591.4309</ele>
        <time>2020-07-26T16:54:09Z</time>
      </trkpt>
      <trkpt lat="13.883056" lon="-89.79028">
        <ele>1589.7905</ele>
        <time>2020-07-26T16:54:11Z</time>
      </trkpt>
      <trkpt lat="13.883097" lon="-89.79034">
        <ele>1589.123</ele>
        <time>2020-07-26T16:54:13Z</time>
      </trkpt>
      <trkpt lat="13.88313" lon="-89.79038">
        <ele>1589.7725</ele>
        <time>2020-07-26T16:54:15Z</time>
      </trkpt>
      <trkpt lat="13.883147" lon="-89.79043">
        <ele>1587.854</ele>
        <time>2020-07-26T16:54:17Z</time>
      </trkpt>
      <trkpt lat="13.883139" lon="-89.79048">
        <ele>1586.8408</ele>
        <time>2020-07-26T16:54:19Z</time>
      </trkpt>
      <trkpt lat="13.883107" lon="-89.79052">
        <ele>1586.3018</ele>
        <time>2020-07-26T16:54:21Z</time>
      </trkpt>
      <trkpt lat="13.883062" lon="-89.79056">
        <ele>1585.1304</ele>
        <time>2020-07-26T16:54:23Z</time>
      </trkpt>
      <trkpt lat="13.883008" lon="-89.79058">
        <ele>1584.7817</ele>
        <time>2020-07-26T16:54:25Z</time>
      </trkpt>
      <trkpt lat="13.882946" lon="-89.79059">
        <ele>1585.0889</ele>
        <time>2020-07-26T16:54:27Z</time>
      </trkpt>
      <trkpt lat="13.882882" lon="-89.790596">
        <ele>1584.2769</ele>
        <time>2020-07-26T16:54:29Z</time>
      </trkpt>
      <trkpt lat="13.8828335" lon="-89.790565">
        <ele>1584.1396</ele>
        <time>2020-07-26T16:54:31Z</time>
      </trkpt>
      <trkpt lat="13.882782" lon="-89.790535">
        <ele>1583.6621</ele>
        <time>2020-07-26T16:54:33Z</time>
      </trkpt>
      <trkpt lat="13.882717" lon="-89.79053">
        <ele>1581.2783</ele>
        <time>2020-07-26T16:54:35Z</time>
      </trkpt>
      <trkpt lat="13.882652" lon="-89.79053">
        <ele>1580.2964</ele>
        <time>2020-07-26T16:54:37Z</time>
      </trkpt>
      <trkpt lat="13.882592" lon="-89.79052">
        <ele>1580.3931</ele>
        <time>2020-07-26T16:54:39Z</time>
      </trkpt>
      <trkpt lat="13.882528" lon="-89.79053">
        <ele>1578.5833</ele>
        <time>2020-07-26T16:54:41Z</time>
      </trkpt>
      <trkpt lat="13.882461" lon="-89.79054">
        <ele>1575.479</ele>
        <time>2020-07-26T16:54:43Z</time>
      </trkpt>
      <trkpt lat="13.882392" lon="-89.79056">
        <ele>1573.8545</ele>
        <time>2020-07-26T16:54:45Z</time>
      </trkpt>
      <trkpt lat="13.88233" lon="-89.790565">
        <ele>1576.1196</ele>
        <time>2020-07-26T16:54:47Z</time>
      </trkpt>
      <trkpt lat="13.882266" lon="-89.790565">
        <ele>1579.4585</ele>
        <time>2020-07-26T16:54:49Z</time>
      </trkpt>
      <trkpt lat="13.882203" lon="-89.79058">
        <ele>1578.9175</ele>
        <time>2020-07-26T16:54:51Z</time>
      </trkpt>
      <trkpt lat="13.882142" lon="-89.79059">
        <ele>1579.0693</ele>
        <time>2020-07-26T16:54:53Z</time>
      </trkpt>
      <trkpt lat="13.88208" lon="-89.79059">
        <ele>1578.8408</ele>
        <time>2020-07-26T16:54:55Z</time>
      </trkpt>
      <trkpt lat="13.882019" lon="-89.79058">
        <ele>1576.5513</ele>
        <time>2020-07-26T16:54:57Z</time>
      </trkpt>
      <trkpt lat="13.88196" lon="-89.79056">
        <ele>1574.7334</ele>
        <time>2020-07-26T16:54:59Z</time>
      </trkpt>
      <trkpt lat="13.881902" lon="-89.790535">
        <ele>1574.6641</ele>
        <time>2020-07-26T16:55:01Z</time>
      </trkpt>
      <trkpt lat="13.881844" lon="-89.79052">
        <ele>1575.4966</ele>
        <time>2020-07-26T16:55:03Z</time>
      </trkpt>
      <trkpt lat="13.881785" lon="-89.79051">
        <ele>1575.7314</ele>
        <time>2020-07-26T16:55:05Z</time>
      </trkpt>
      <trkpt lat="13.881729" lon="-89.79051">
        <ele>1575.499</ele>
        <time>2020-07-26T16:55:07Z</time>
      </trkpt>
      <trkpt lat="13.881673" lon="-89.790504">
        <ele>1574.9622</ele>
        <time>2020-07-26T16:55:09Z</time>
      </trkpt>
      <trkpt lat="13.88161" lon="-89.79051">
        <ele>1574.9824</ele>
        <time>2020-07-26T16:55:11Z</time>
      </trkpt>
      <trkpt lat="13.881545" lon="-89.79051">
        <ele>1576.0791</ele>
        <time>2020-07-26T16:55:13Z</time>
      </trkpt>
      <trkpt lat="13.881485" lon="-89.7905">
        <ele>1576.148</ele>
        <time>2020-07-26T16:55:15Z</time>
      </trkpt>
      <trkpt lat="13.88143" lon="-89.79048">
        <ele>1575.2344</ele>
        <time>2020-07-26T16:55:17Z</time>
      </trkpt>
      <trkpt lat="13.881373" lon="-89.790474">
        <ele>1574.2698</ele>
        <time>2020-07-26T16:55:19Z</time>
      </trkpt>
      <trkpt lat="13.881316" lon="-89.79046">
        <ele>1575.0269</ele>
        <time>2020-07-26T16:55:21Z</time>
      </trkpt>
      <trkpt lat="13.881259" lon="-89.79045">
        <ele>1575.8008</ele>
        <time>2020-07-26T16:55:23Z</time>
      </trkpt>
      <trkpt lat="13.881194" lon="-89.79045">
        <ele>1573.6523</ele>
        <time>2020-07-26T16:55:25Z</time>
      </trkpt>
      <trkpt lat="13.881133" lon="-89.790474">
        <ele>1569.5396</ele>
        <time>2020-07-26T16:55:27Z</time>
      </trkpt>
      <trkpt lat="13.881075" lon="-89.790504">
        <ele>1567.2495</ele>
        <time>2020-07-26T16:55:29Z</time>
      </trkpt>
      <trkpt lat="13.881016" lon="-89.79053">
        <ele>1567.1492</ele>
        <time>2020-07-26T16:55:31Z</time>
      </trkpt>
      <trkpt lat="13.880953" lon="-89.79053">
        <ele>1568.1016</ele>
        <time>2020-07-26T16:55:33Z</time>
      </trkpt>
      <trkpt lat="13.880888" lon="-89.790504">
        <ele>1564.8066</ele>
        <time>2020-07-26T16:55:35Z</time>
      </trkpt>
      <trkpt lat="13.880818" lon="-89.79049">
        <ele>1564.0037</ele>
        <time>2020-07-26T16:55:37Z</time>
      </trkpt>
      <trkpt lat="13.880752" lon="-89.79047">
        <ele>1562.3438</ele>
        <time>2020-07-26T16:55:39Z</time>
      </trkpt>
      <trkpt lat="13.880685" lon="-89.79044">
        <ele>1560.1958</ele>
        <time>2020-07-26T16:55:41Z</time>
      </trkpt>
      <trkpt lat="13.880619" lon="-89.79042">
        <ele>1560.9226</ele>
        <time>2020-07-26T16:55:43Z</time>
      </trkpt>
      <trkpt lat="13.880557" lon="-89.79039">
        <ele>1560.4592</ele>
        <time>2020-07-26T16:55:45Z</time>
      </trkpt>
      <trkpt lat="13.8805" lon="-89.79036">
        <ele>1556.7336</ele>
        <time>2020-07-26T16:55:47Z</time>
      </trkpt>
      <trkpt lat="13.880439" lon="-89.790344">
        <ele>1554.7058</ele>
        <time>2020-07-26T16:55:49Z</time>
      </trkpt>
      <trkpt lat="13.880377" lon="-89.79033">
        <ele>1553.9941</ele>
        <time>2020-07-26T16:55:51Z</time>
      </trkpt>
      <trkpt lat="13.88032" lon="-89.79032">
        <ele>1553.398</ele>
        <time>2020-07-26T16:55:53Z</time>
      </trkpt>
      <trkpt lat="13.880267" lon="-89.79029">
        <ele>1552.0542</ele>
        <time>2020-07-26T16:55:55Z</time>
      </trkpt>
      <trkpt lat="13.880208" lon="-89.790276">
        <ele>1553.8721</ele>
        <time>2020-07-26T16:55:57Z</time>
      </trkpt>
      <trkpt lat="13.880149" lon="-89.79026">
        <ele>1554.823</ele>
        <time>2020-07-26T16:55:59Z</time>
      </trkpt>
      <trkpt lat="13.880094" lon="-89.790276">
        <ele>1555.1555</ele>
        <time>2020-07-26T16:56:01Z</time>
      </trkpt>
      <trkpt lat="13.880089" lon="-89.79034">
        <ele>1555.0518</ele>
        <time>2020-07-26T16:56:03Z</time>
      </trkpt>
      <trkpt lat="13.880129" lon="-89.7904">
        <ele>1555.0176</ele>
        <time>2020-07-26T16:56:05Z</time>
      </trkpt>
      <trkpt lat="13.880177" lon="-89.790436">
        <ele>1555.9512</ele>
        <time>2020-07-26T16:56:07Z</time>
      </trkpt>
      <trkpt lat="13.880234" lon="-89.79046">
        <ele>1557.2095</ele>
        <time>2020-07-26T16:56:09Z</time>
      </trkpt>
      <trkpt lat="13.880283" lon="-89.79049">
        <ele>1557.7898</ele>
        <time>2020-07-26T16:56:11Z</time>
      </trkpt>
      <trkpt lat="13.880313" lon="-89.79055">
        <ele>1557.6353</ele>
        <time>2020-07-26T16:56:13Z</time>
      </trkpt>
      <trkpt lat="13.880332" lon="-89.79061">
        <ele>1557.0894</ele>
        <time>2020-07-26T16:56:15Z</time>
      </trkpt>
      <trkpt lat="13.880362" lon="-89.79066">
        <ele>1554.7878</ele>
        <time>2020-07-26T16:56:17Z</time>
      </trkpt>
      <trkpt lat="13.880404" lon="-89.7907">
        <ele>1552.9409</ele>
        <time>2020-07-26T16:56:19Z</time>
      </trkpt>
      <trkpt lat="13.880448" lon="-89.79075">
        <ele>1551.7368</ele>
        <time>2020-07-26T16:56:21Z</time>
      </trkpt>
      <trkpt lat="13.880493" lon="-89.79079">
        <ele>1550.5999</ele>
        <time>2020-07-26T16:56:23Z</time>
      </trkpt>
      <trkpt lat="13.88054" lon="-89.79083">
        <ele>1551.1621</ele>
        <time>2020-07-26T16:56:25Z</time>
      </trkpt>
      <trkpt lat="13.88058" lon="-89.79088">
        <ele>1551.707</ele>
        <time>2020-07-26T16:56:27Z</time>
      </trkpt>
      <trkpt lat="13.880631" lon="-89.79092">
        <ele>1550.707</ele>
        <time>2020-07-26T16:56:29Z</time>
      </trkpt>
      <trkpt lat="13.880701" lon="-89.7909">
        <ele>1551.4956</ele>
        <time>2020-07-26T16:56:31Z</time>
      </trkpt>
      <trkpt lat="13.880771" lon="-89.790886">
        <ele>1550.4072</ele>
        <time>2020-07-26T16:56:33Z</time>
      </trkpt>
      <trkpt lat="13.880831" lon="-89.79091">
        <ele>1550.0474</ele>
        <time>2020-07-26T16:56:35Z</time>
      </trkpt>
      <trkpt lat="13.880866" lon="-89.790955">
        <ele>1549.249</ele>
        <time>2020-07-26T16:56:37Z</time>
      </trkpt>
      <trkpt lat="13.8809" lon="-89.79101">
        <ele>1549.2747</ele>
        <time>2020-07-26T16:56:39Z</time>
      </trkpt>
      <trkpt lat="13.880939" lon="-89.79105">
        <ele>1549.2085</ele>
        <time>2020-07-26T16:56:41Z</time>
      </trkpt>
      <trkpt lat="13.88095" lon="-89.79111">
        <ele>1549.4863</ele>
        <time>2020-07-26T16:56:43Z</time>
      </trkpt>
      <trkpt lat="13.880942" lon="-89.79115">
        <ele>1548.9888</ele>
        <time>2020-07-26T16:56:45Z</time>
      </trkpt>
      <trkpt lat="13.880939" lon="-89.79121">
        <ele>1548.98</ele>
        <time>2020-07-26T16:56:47Z</time>
      </trkpt>
      <trkpt lat="13.880941" lon="-89.79127">
        <ele>1549.0483</ele>
        <time>2020-07-26T16:56:49Z</time>
      </trkpt>
      <trkpt lat="13.880945" lon="-89.79133">
        <ele>1550.375</ele>
        <time>2020-07-26T16:56:51Z</time>
      </trkpt>
      <trkpt lat="13.880949" lon="-89.79139">
        <ele>1547.1255</ele>
        <time>2020-07-26T16:56:53Z</time>
      </trkpt>
      <trkpt lat="13.880963" lon="-89.79144">
        <ele>1545.702</ele>
        <time>2020-07-26T16:56:55Z</time>
      </trkpt>
      <trkpt lat="13.8809595" lon="-89.791504">
        <ele>1546.4391</ele>
        <time>2020-07-26T16:56:57Z</time>
      </trkpt>
      <trkpt lat="13.880896" lon="-89.791534">
        <ele>1543.7578</ele>
        <time>2020-07-26T16:56:59Z</time>
      </trkpt>
      <trkpt lat="13.880819" lon="-89.79155">
        <ele>1540.9625</ele>
        <time>2020-07-26T16:57:00Z</time>
      </trkpt>
      <trkpt lat="13.880716" lon="-89.79157">
        <ele>1539.862</ele>
        <time>2020-07-26T16:57:03Z</time>
      </trkpt>
      <trkpt lat="13.880649" lon="-89.79157">
        <ele>1540.6597</ele>
        <time>2020-07-26T16:57:05Z</time>
      </trkpt>
      <trkpt lat="13.880579" lon="-89.79156">
        <ele>1539.809</ele>
        <time>2020-07-26T16:57:07Z</time>
      </trkpt>
      <trkpt lat="13.880517" lon="-89.79156">
        <ele>1537.2208</ele>
        <time>2020-07-26T16:57:09Z</time>
      </trkpt>
      <trkpt lat="13.880463" lon="-89.79156">
        <ele>1535.0936</ele>
        <time>2020-07-26T16:57:11Z</time>
      </trkpt>
      <trkpt lat="13.880413" lon="-89.79155">
        <ele>1534.273</ele>
        <time>2020-07-26T16:57:13Z</time>
      </trkpt>
      <trkpt lat="13.8803625" lon="-89.79154">
        <ele>1532.1204</ele>
        <time>2020-07-26T16:57:15Z</time>
      </trkpt>
      <trkpt lat="13.880308" lon="-89.79153">
        <ele>1532.067</ele>
        <time>2020-07-26T16:57:17Z</time>
      </trkpt>
      <trkpt lat="13.880255" lon="-89.79153">
        <ele>1532.6456</ele>
        <time>2020-07-26T16:57:19Z</time>
      </trkpt>
      <trkpt lat="13.880201" lon="-89.79153">
        <ele>1530.7147</ele>
        <time>2020-07-26T16:57:21Z</time>
      </trkpt>
      <trkpt lat="13.880141" lon="-89.79153">
        <ele>1530.4492</ele>
        <time>2020-07-26T16:57:23Z</time>
      </trkpt>
      <trkpt lat="13.880089" lon="-89.79153">
        <ele>1528.9613</ele>
        <time>2020-07-26T16:57:25Z</time>
      </trkpt>
      <trkpt lat="13.88004" lon="-89.79154">
        <ele>1530.4194</ele>
        <time>2020-07-26T16:57:27Z</time>
      </trkpt>
      <trkpt lat="13.879991" lon="-89.79156">
        <ele>1531.2189</ele>
        <time>2020-07-26T16:57:29Z</time>
      </trkpt>
      <trkpt lat="13.879941" lon="-89.79157">
        <ele>1530.2505</ele>
        <time>2020-07-26T16:57:31Z</time>
      </trkpt>
      <trkpt lat="13.879888" lon="-89.79155">
        <ele>1531.968</ele>
        <time>2020-07-26T16:57:33Z</time>
      </trkpt>
      <trkpt lat="13.879838" lon="-89.79152">
        <ele>1531.4163</ele>
        <time>2020-07-26T16:57:35Z</time>
      </trkpt>
      <trkpt lat="13.879786" lon="-89.79151">
        <ele>1533.7316</ele>
        <time>2020-07-26T16:57:37Z</time>
      </trkpt>
      <trkpt lat="13.879733" lon="-89.791534">
        <ele>1533.4429</ele>
        <time>2020-07-26T16:57:39Z</time>
      </trkpt>
      <trkpt lat="13.879679" lon="-89.791534">
        <ele>1532.3821</ele>
        <time>2020-07-26T16:57:41Z</time>
      </trkpt>
      <trkpt lat="13.879626" lon="-89.79151">
        <ele>1531.7863</ele>
        <time>2020-07-26T16:57:43Z</time>
      </trkpt>
      <trkpt lat="13.879574" lon="-89.7915">
        <ele>1531.2471</ele>
        <time>2020-07-26T16:57:45Z</time>
      </trkpt>
      <trkpt lat="13.879523" lon="-89.79149">
        <ele>1531.9756</ele>
        <time>2020-07-26T16:57:47Z</time>
      </trkpt>
      <trkpt lat="13.879475" lon="-89.79149">
        <ele>1532.5453</ele>
        <time>2020-07-26T16:57:49Z</time>
      </trkpt>
      <trkpt lat="13.879427" lon="-89.79148">
        <ele>1532.5035</ele>
        <time>2020-07-26T16:57:51Z</time>
      </trkpt>
      <trkpt lat="13.879379" lon="-89.79147">
        <ele>1531.762</ele>
        <time>2020-07-26T16:57:53Z</time>
      </trkpt>
      <trkpt lat="13.879333" lon="-89.79146">
        <ele>1531.6086</ele>
        <time>2020-07-26T16:57:55Z</time>
      </trkpt>
      <trkpt lat="13.879285" lon="-89.79146">
        <ele>1532.4506</ele>
        <time>2020-07-26T16:57:57Z</time>
      </trkpt>
      <trkpt lat="13.879235" lon="-89.79145">
        <ele>1532.9774</ele>
        <time>2020-07-26T16:57:59Z</time>
      </trkpt>
      <trkpt lat="13.879188" lon="-89.791435">
        <ele>1534.8478</ele>
        <time>2020-07-26T16:58:01Z</time>
      </trkpt>
      <trkpt lat="13.879143" lon="-89.79141">
        <ele>1538.2095</ele>
        <time>2020-07-26T16:58:03Z</time>
      </trkpt>
      <trkpt lat="13.879095" lon="-89.79139">
        <ele>1541.0033</ele>
        <time>2020-07-26T16:58:05Z</time>
      </trkpt>
      <trkpt lat="13.879033" lon="-89.79138">
        <ele>1540.1929</ele>
        <time>2020-07-26T16:58:08Z</time>
      </trkpt>
      <trkpt lat="13.878984" lon="-89.79136">
        <ele>1540.9274</ele>
        <time>2020-07-26T16:58:10Z</time>
      </trkpt>
      <trkpt lat="13.878935" lon="-89.79134">
        <ele>1540.2236</ele>
        <time>2020-07-26T16:58:12Z</time>
      </trkpt>
      <trkpt lat="13.878887" lon="-89.79132">
        <ele>1538.9908</ele>
        <time>2020-07-26T16:58:14Z</time>
      </trkpt>
      <trkpt lat="13.878839" lon="-89.79132">
        <ele>1537.2982</ele>
        <time>2020-07-26T16:58:16Z</time>
      </trkpt>
      <trkpt lat="13.87879" lon="-89.791336">
        <ele>1535.7928</ele>
        <time>2020-07-26T16:58:18Z</time>
      </trkpt>
      <trkpt lat="13.878739" lon="-89.791336">
        <ele>1535.8169</ele>
        <time>2020-07-26T16:58:20Z</time>
      </trkpt>
      <trkpt lat="13.878696" lon="-89.79131">
        <ele>1535.2292</ele>
        <time>2020-07-26T16:58:22Z</time>
      </trkpt>
      <trkpt lat="13.878631" lon="-89.7913">
        <ele>1534.4103</ele>
        <time>2020-07-26T16:58:25Z</time>
      </trkpt>
      <trkpt lat="13.878582" lon="-89.7913">
        <ele>1528.7349</ele>
        <time>2020-07-26T16:58:27Z</time>
      </trkpt>
      <trkpt lat="13.87853" lon="-89.79129">
        <ele>1529.4879</ele>
        <time>2020-07-26T16:58:29Z</time>
      </trkpt>
      <trkpt lat="13.878478" lon="-89.79128">
        <ele>1527.3796</ele>
        <time>2020-07-26T16:58:31Z</time>
      </trkpt>
      <trkpt lat="13.878452" lon="-89.79128">
        <ele>1527.4371</ele>
        <time>2020-07-26T16:58:32Z</time>
      </trkpt>
      <trkpt lat="13.878452" lon="-89.79128">
        <ele>1527.4371</ele>
        <time>2020-07-26T16:58:32Z</time>
      </trkpt>
      <trkpt lat="13.878388" lon="-89.79125">
        <ele>1521.5063</ele>
        <time>2020-07-26T16:58:48Z</time>
      </trkpt>
      <trkpt lat="13.878371" lon="-89.79124">
        <ele>1523.4122</ele>
        <time>2020-07-26T16:58:49Z</time>
      </trkpt>
      <trkpt lat="13.878348" lon="-89.79123">
        <ele>1524.0066</ele>
        <time>2020-07-26T16:58:50Z</time>
      </trkpt>
      <trkpt lat="13.878316" lon="-89.79122">
        <ele>1522.8655</ele>
        <time>2020-07-26T16:58:51Z</time>
      </trkpt>
      <trkpt lat="13.8782625" lon="-89.79122">
        <ele>1517.423</ele>
        <time>2020-07-26T16:58:53Z</time>
      </trkpt>
      <trkpt lat="13.878209" lon="-89.79123">
        <ele>1518.3542</ele>
        <time>2020-07-26T16:58:55Z</time>
      </trkpt>
      <trkpt lat="13.878131" lon="-89.79125">
        <ele>1516.7825</ele>
        <time>2020-07-26T16:58:58Z</time>
      </trkpt>
      <trkpt lat="13.878056" lon="-89.791245">
        <ele>1519.7776</ele>
        <time>2020-07-26T16:59:01Z</time>
      </trkpt>
      <trkpt lat="13.877967" lon="-89.791214">
        <ele>1518.9684</ele>
        <time>2020-07-26T16:59:04Z</time>
      </trkpt>
      <trkpt lat="13.87791" lon="-89.791214">
        <ele>1519.2079</ele>
        <time>2020-07-26T16:59:06Z</time>
      </trkpt>
      <trkpt lat="13.877869" lon="-89.79125">
        <ele>1519.6016</ele>
        <time>2020-07-26T16:59:08Z</time>
      </trkpt>
      <trkpt lat="13.877814" lon="-89.79126">
        <ele>1520.2646</ele>
        <time>2020-07-26T16:59:10Z</time>
      </trkpt>
      <trkpt lat="13.877756" lon="-89.79127">
        <ele>1520.7792</ele>
        <time>2020-07-26T16:59:12Z</time>
      </trkpt>
      <trkpt lat="13.877686" lon="-89.791245">
        <ele>1522.0631</ele>
        <time>2020-07-26T16:59:14Z</time>
      </trkpt>
      <trkpt lat="13.877614" lon="-89.79122">
        <ele>1522.5527</ele>
        <time>2020-07-26T16:59:16Z</time>
      </trkpt>
      <trkpt lat="13.877549" lon="-89.79122">
        <ele>1521.275</ele>
        <time>2020-07-26T16:59:18Z</time>
      </trkpt>
      <trkpt lat="13.877482" lon="-89.79123">
        <ele>1519.7128</ele>
        <time>2020-07-26T16:59:20Z</time>
      </trkpt>
      <trkpt lat="13.877415" lon="-89.79121">
        <ele>1519.8401</ele>
        <time>2020-07-26T16:59:22Z</time>
      </trkpt>
      <trkpt lat="13.877352" lon="-89.7912">
        <ele>1518.9037</ele>
        <time>2020-07-26T16:59:24Z</time>
      </trkpt>
      <trkpt lat="13.877298" lon="-89.79122">
        <ele>1517.4169</ele>
        <time>2020-07-26T16:59:26Z</time>
      </trkpt>
      <trkpt lat="13.877241" lon="-89.79122">
        <ele>1516.5479</ele>
        <time>2020-07-26T16:59:28Z</time>
      </trkpt>
      <trkpt lat="13.877153" lon="-89.79121">
        <ele>1517.0924</ele>
        <time>2020-07-26T16:59:31Z</time>
      </trkpt>
      <trkpt lat="13.877094" lon="-89.79121">
        <ele>1516.8881</ele>
        <time>2020-07-26T16:59:33Z</time>
      </trkpt>
      <trkpt lat="13.877036" lon="-89.7912">
        <ele>1517.3838</ele>
        <time>2020-07-26T16:59:35Z</time>
      </trkpt>
      <trkpt lat="13.876979" lon="-89.791176">
        <ele>1516.1929</ele>
        <time>2020-07-26T16:59:37Z</time>
      </trkpt>
      <trkpt lat="13.876917" lon="-89.79118">
        <ele>1514.4391</ele>
        <time>2020-07-26T16:59:39Z</time>
      </trkpt>
      <trkpt lat="13.876851" lon="-89.79119">
        <ele>1512.4615</ele>
        <time>2020-07-26T16:59:41Z</time>
      </trkpt>
      <trkpt lat="13.876773" lon="-89.7912">
        <ele>1509.8882</ele>
        <time>2020-07-26T16:59:43Z</time>
      </trkpt>
      <trkpt lat="13.876687" lon="-89.79121">
        <ele>1509.3627</ele>
        <time>2020-07-26T16:59:45Z</time>
      </trkpt>
      <trkpt lat="13.876609" lon="-89.79121">
        <ele>1508.13</ele>
        <time>2020-07-26T16:59:47Z</time>
      </trkpt>
      <trkpt lat="13.8765335" lon="-89.7912">
        <ele>1507.928</ele>
        <time>2020-07-26T16:59:49Z</time>
      </trkpt>
      <trkpt lat="13.876436" lon="-89.79119">
        <ele>1502.6768</ele>
        <time>2020-07-26T16:59:52Z</time>
      </trkpt>
      <trkpt lat="13.87637" lon="-89.791176">
        <ele>1501.2339</ele>
        <time>2020-07-26T16:59:54Z</time>
      </trkpt>
      <trkpt lat="13.876305" lon="-89.791176">
        <ele>1502.2588</ele>
        <time>2020-07-26T16:59:56Z</time>
      </trkpt>
      <trkpt lat="13.876239" lon="-89.79116">
        <ele>1501.5717</ele>
        <time>2020-07-26T16:59:58Z</time>
      </trkpt>
      <trkpt lat="13.876166" lon="-89.79115">
        <ele>1497.8746</ele>
        <time>2020-07-26T17:00:00Z</time>
      </trkpt>
      <trkpt lat="13.876073" lon="-89.791176">
        <ele>1498.9045</ele>
        <time>2020-07-26T17:00:03Z</time>
      </trkpt>
      <trkpt lat="13.876021" lon="-89.7912">
        <ele>1494.1842</ele>
        <time>2020-07-26T17:00:05Z</time>
      </trkpt>
      <trkpt lat="13.875982" lon="-89.791245">
        <ele>1492.9023</ele>
        <time>2020-07-26T17:00:07Z</time>
      </trkpt>
      <trkpt lat="13.8759365" lon="-89.791275">
        <ele>1492.0454</ele>
        <time>2020-07-26T17:00:09Z</time>
      </trkpt>
      <trkpt lat="13.875875" lon="-89.791275">
        <ele>1493.2363</ele>
        <time>2020-07-26T17:00:11Z</time>
      </trkpt>
      <trkpt lat="13.875815" lon="-89.79128">
        <ele>1491.6918</ele>
        <time>2020-07-26T17:00:13Z</time>
      </trkpt>
      <trkpt lat="13.875757" lon="-89.7913">
        <ele>1492.724</ele>
        <time>2020-07-26T17:00:15Z</time>
      </trkpt>
      <trkpt lat="13.875705" lon="-89.79133">
        <ele>1492.237</ele>
        <time>2020-07-26T17:00:17Z</time>
      </trkpt>
      <trkpt lat="13.875634" lon="-89.7914">
        <ele>1491.4889</ele>
        <time>2020-07-26T17:00:20Z</time>
      </trkpt>
      <trkpt lat="13.875561" lon="-89.79146">
        <ele>1495.3003</ele>
        <time>2020-07-26T17:00:23Z</time>
      </trkpt>
      <trkpt lat="13.875515" lon="-89.79151">
        <ele>1495.4866</ele>
        <time>2020-07-26T17:00:25Z</time>
      </trkpt>
      <trkpt lat="13.875452" lon="-89.79159">
        <ele>1495.7335</ele>
        <time>2020-07-26T17:00:28Z</time>
      </trkpt>
      <trkpt lat="13.875391" lon="-89.79164">
        <ele>1493.8289</ele>
        <time>2020-07-26T17:00:31Z</time>
      </trkpt>
      <trkpt lat="13.875342" lon="-89.79164">
        <ele>1492.3125</ele>
        <time>2020-07-26T17:00:33Z</time>
      </trkpt>
      <trkpt lat="13.875294" lon="-89.791626">
        <ele>1489.8203</ele>
        <time>2020-07-26T17:00:35Z</time>
      </trkpt>
      <trkpt lat="13.875251" lon="-89.79159">
        <ele>1489.7268</ele>
        <time>2020-07-26T17:00:37Z</time>
      </trkpt>
      <trkpt lat="13.875212" lon="-89.79154">
        <ele>1487.5392</ele>
        <time>2020-07-26T17:00:39Z</time>
      </trkpt>
      <trkpt lat="13.875178" lon="-89.79149">
        <ele>1485.7289</ele>
        <time>2020-07-26T17:00:41Z</time>
      </trkpt>
      <trkpt lat="13.875115" lon="-89.79145">
        <ele>1483.9418</ele>
        <time>2020-07-26T17:00:44Z</time>
      </trkpt>
      <trkpt lat="13.875041" lon="-89.79143">
        <ele>1485.0342</ele>
        <time>2020-07-26T17:00:47Z</time>
      </trkpt>
      <trkpt lat="13.87499" lon="-89.79142">
        <ele>1484.4008</ele>
        <time>2020-07-26T17:00:49Z</time>
      </trkpt>
      <trkpt lat="13.874944" lon="-89.791435">
        <ele>1481.3893</ele>
        <time>2020-07-26T17:00:51Z</time>
      </trkpt>
      <trkpt lat="13.874894" lon="-89.79144">
        <ele>1478.7312</ele>
        <time>2020-07-26T17:00:53Z</time>
      </trkpt>
      <trkpt lat="13.874842" lon="-89.79145">
        <ele>1478.6816</ele>
        <time>2020-07-26T17:00:55Z</time>
      </trkpt>
      <trkpt lat="13.874793" lon="-89.79147">
        <ele>1478.6678</ele>
        <time>2020-07-26T17:00:57Z</time>
      </trkpt>
      <trkpt lat="13.874741" lon="-89.791504">
        <ele>1478.3163</ele>
        <time>2020-07-26T17:00:59Z</time>
      </trkpt>
      <trkpt lat="13.874701" lon="-89.79155">
        <ele>1477.0171</ele>
        <time>2020-07-26T17:01:01Z</time>
      </trkpt>
      <trkpt lat="13.87467" lon="-89.791595">
        <ele>1477.7922</ele>
        <time>2020-07-26T17:01:03Z</time>
      </trkpt>
      <trkpt lat="13.874637" lon="-89.79165">
        <ele>1478.4285</ele>
        <time>2020-07-26T17:01:05Z</time>
      </trkpt>
      <trkpt lat="13.874571" lon="-89.79171">
        <ele>1477.0157</ele>
        <time>2020-07-26T17:01:08Z</time>
      </trkpt>
      <trkpt lat="13.87452" lon="-89.79174">
        <ele>1476.2672</ele>
        <time>2020-07-26T17:01:10Z</time>
      </trkpt>
      <trkpt lat="13.874455" lon="-89.79181">
        <ele>1477.1532</ele>
        <time>2020-07-26T17:01:13Z</time>
      </trkpt>
      <trkpt lat="13.874408" lon="-89.791855">
        <ele>1474.5919</ele>
        <time>2020-07-26T17:01:15Z</time>
      </trkpt>
      <trkpt lat="13.874361" lon="-89.79189">
        <ele>1474.722</ele>
        <time>2020-07-26T17:01:17Z</time>
      </trkpt>
      <trkpt lat="13.874322" lon="-89.79193">
        <ele>1475.5001</ele>
        <time>2020-07-26T17:01:19Z</time>
      </trkpt>
      <trkpt lat="13.874281" lon="-89.79198">
        <ele>1474.259</ele>
        <time>2020-07-26T17:01:21Z</time>
      </trkpt>
      <trkpt lat="13.874238" lon="-89.792015">
        <ele>1472.6375</ele>
        <time>2020-07-26T17:01:23Z</time>
      </trkpt>
      <trkpt lat="13.874196" lon="-89.79206">
        <ele>1474.8569</ele>
        <time>2020-07-26T17:01:25Z</time>
      </trkpt>
      <trkpt lat="13.874147" lon="-89.79214">
        <ele>1477.4192</ele>
        <time>2020-07-26T17:01:28Z</time>
      </trkpt>
      <trkpt lat="13.874106" lon="-89.79218">
        <ele>1473.6061</ele>
        <time>2020-07-26T17:01:30Z</time>
      </trkpt>
      <trkpt lat="13.874042" lon="-89.79226">
        <ele>1475.1449</ele>
        <time>2020-07-26T17:01:33Z</time>
      </trkpt>
      <trkpt lat="13.873982" lon="-89.79229">
        <ele>1475.267</ele>
        <time>2020-07-26T17:01:35Z</time>
      </trkpt>
      <trkpt lat="13.87393" lon="-89.79233">
        <ele>1475.7533</ele>
        <time>2020-07-26T17:01:37Z</time>
      </trkpt>
      <trkpt lat="13.873897" lon="-89.79238">
        <ele>1475.4375</ele>
        <time>2020-07-26T17:01:39Z</time>
      </trkpt>
      <trkpt lat="13.873897" lon="-89.79249">
        <ele>1474.2899</ele>
        <time>2020-07-26T17:01:42Z</time>
      </trkpt>
      <trkpt lat="13.873901" lon="-89.79256">
        <ele>1474.951</ele>
        <time>2020-07-26T17:01:44Z</time>
      </trkpt>
      <trkpt lat="13.873907" lon="-89.79262">
        <ele>1474.4822</ele>
        <time>2020-07-26T17:01:46Z</time>
      </trkpt>
      <trkpt lat="13.873922" lon="-89.79268">
        <ele>1474.1173</ele>
        <time>2020-07-26T17:01:48Z</time>
      </trkpt>
      <trkpt lat="13.873936" lon="-89.79278">
        <ele>1472.9231</ele>
        <time>2020-07-26T17:01:51Z</time>
      </trkpt>
      <trkpt lat="13.873935" lon="-89.79284">
        <ele>1470.5223</ele>
        <time>2020-07-26T17:01:53Z</time>
      </trkpt>
      <trkpt lat="13.873942" lon="-89.7929">
        <ele>1470.2361</ele>
        <time>2020-07-26T17:01:55Z</time>
      </trkpt>
      <trkpt lat="13.873938" lon="-89.79295">
        <ele>1473.5101</ele>
        <time>2020-07-26T17:01:57Z</time>
      </trkpt>
      <trkpt lat="13.873923" lon="-89.79301">
        <ele>1474.3304</ele>
        <time>2020-07-26T17:01:59Z</time>
      </trkpt>
      <trkpt lat="13.873902" lon="-89.79307">
        <ele>1475.2239</ele>
        <time>2020-07-26T17:02:01Z</time>
      </trkpt>
      <trkpt lat="13.873848" lon="-89.79312">
        <ele>1472.5277</ele>
        <time>2020-07-26T17:02:03Z</time>
      </trkpt>
      <trkpt lat="13.873765" lon="-89.79314">
        <ele>1472.9053</ele>
        <time>2020-07-26T17:02:05Z</time>
      </trkpt>
      <trkpt lat="13.873681" lon="-89.793106">
        <ele>1474.1722</ele>
        <time>2020-07-26T17:02:07Z</time>
      </trkpt>
      <trkpt lat="13.873607" lon="-89.79306">
        <ele>1473.413</ele>
        <time>2020-07-26T17:02:09Z</time>
      </trkpt>
      <trkpt lat="13.873506" lon="-89.793015">
        <ele>1475.0576</ele>
        <time>2020-07-26T17:02:12Z</time>
      </trkpt>
      <trkpt lat="13.873445" lon="-89.793">
        <ele>1475.2758</ele>
        <time>2020-07-26T17:02:14Z</time>
      </trkpt>
      <trkpt lat="13.873384" lon="-89.792984">
        <ele>1475.0126</ele>
        <time>2020-07-26T17:02:16Z</time>
      </trkpt>
      <trkpt lat="13.87333" lon="-89.792984">
        <ele>1475.2721</ele>
        <time>2020-07-26T17:02:18Z</time>
      </trkpt>
      <trkpt lat="13.873285" lon="-89.793">
        <ele>1475.2635</ele>
        <time>2020-07-26T17:02:20Z</time>
      </trkpt>
      <trkpt lat="13.873231" lon="-89.79299">
        <ele>1474.2955</ele>
        <time>2020-07-26T17:02:23Z</time>
      </trkpt>
      <trkpt lat="13.873173" lon="-89.792984">
        <ele>1471.9159</ele>
        <time>2020-07-26T17:02:27Z</time>
      </trkpt>
      <trkpt lat="13.873121" lon="-89.79302">
        <ele>1470.1565</ele>
        <time>2020-07-26T17:02:30Z</time>
      </trkpt>
      <trkpt lat="13.873082" lon="-89.79305">
        <ele>1470.5032</ele>
        <time>2020-07-26T17:02:32Z</time>
      </trkpt>
      <trkpt lat="13.873029" lon="-89.79307">
        <ele>1470.9231</ele>
        <time>2020-07-26T17:02:34Z</time>
      </trkpt>
      <trkpt lat="13.872972" lon="-89.79307">
        <ele>1471.1978</ele>
        <time>2020-07-26T17:02:36Z</time>
      </trkpt>
      <trkpt lat="13.872889" lon="-89.79306">
        <ele>1471.1812</ele>
        <time>2020-07-26T17:02:39Z</time>
      </trkpt>
      <trkpt lat="13.872832" lon="-89.79306">
        <ele>1471.6565</ele>
        <time>2020-07-26T17:02:41Z</time>
      </trkpt>
      <trkpt lat="13.872781" lon="-89.793076">
        <ele>1470.6339</ele>
        <time>2020-07-26T17:02:43Z</time>
      </trkpt>
      <trkpt lat="13.872732" lon="-89.7931">
        <ele>1471.149</ele>
        <time>2020-07-26T17:02:45Z</time>
      </trkpt>
      <trkpt lat="13.872676" lon="-89.793106">
        <ele>1471.6859</ele>
        <time>2020-07-26T17:02:47Z</time>
      </trkpt>
      <trkpt lat="13.872622" lon="-89.79311">
        <ele>1470.7411</ele>
        <time>2020-07-26T17:02:49Z</time>
      </trkpt>
      <trkpt lat="13.872572" lon="-89.79313">
        <ele>1469.2008</ele>
        <time>2020-07-26T17:02:51Z</time>
      </trkpt>
      <trkpt lat="13.872532" lon="-89.79315">
        <ele>1468.5294</ele>
        <time>2020-07-26T17:02:53Z</time>
      </trkpt>
      <trkpt lat="13.872485" lon="-89.79317">
        <ele>1468.3137</ele>
        <time>2020-07-26T17:02:55Z</time>
      </trkpt>
      <trkpt lat="13.872435" lon="-89.79317">
        <ele>1467.3517</ele>
        <time>2020-07-26T17:02:57Z</time>
      </trkpt>
      <trkpt lat="13.872381" lon="-89.79316">
        <ele>1466.516</ele>
        <time>2020-07-26T17:02:59Z</time>
      </trkpt>
      <trkpt lat="13.872329" lon="-89.793144">
        <ele>1463.7231</ele>
        <time>2020-07-26T17:03:01Z</time>
      </trkpt>
      <trkpt lat="13.87228" lon="-89.79314">
        <ele>1462.477</ele>
        <time>2020-07-26T17:03:03Z</time>
      </trkpt>
      <trkpt lat="13.872229" lon="-89.79312">
        <ele>1460.1552</ele>
        <time>2020-07-26T17:03:05Z</time>
      </trkpt>
      <trkpt lat="13.872184" lon="-89.793106">
        <ele>1461.9482</ele>
        <time>2020-07-26T17:03:07Z</time>
      </trkpt>
      <trkpt lat="13.872135" lon="-89.793106">
        <ele>1460.8184</ele>
        <time>2020-07-26T17:03:09Z</time>
      </trkpt>
      <trkpt lat="13.872088" lon="-89.793106">
        <ele>1462.0062</ele>
        <time>2020-07-26T17:03:11Z</time>
      </trkpt>
      <trkpt lat="13.872045" lon="-89.79312">
        <ele>1463.0469</ele>
        <time>2020-07-26T17:03:13Z</time>
      </trkpt>
      <trkpt lat="13.872001" lon="-89.79314">
        <ele>1464.142</ele>
        <time>2020-07-26T17:03:15Z</time>
      </trkpt>
      <trkpt lat="13.871958" lon="-89.79317">
        <ele>1464.5436</ele>
        <time>2020-07-26T17:03:17Z</time>
      </trkpt>
      <trkpt lat="13.87192" lon="-89.79322">
        <ele>1464.4027</ele>
        <time>2020-07-26T17:03:20Z</time>
      </trkpt>
      <trkpt lat="13.871908" lon="-89.79327">
        <ele>1464.0988</ele>
        <time>2020-07-26T17:03:23Z</time>
      </trkpt>
      <trkpt lat="13.87189" lon="-89.79331">
        <ele>1464.9766</ele>
        <time>2020-07-26T17:03:26Z</time>
      </trkpt>
      <trkpt lat="13.871871" lon="-89.79336">
        <ele>1464.0442</ele>
        <time>2020-07-26T17:03:29Z</time>
      </trkpt>
      <trkpt lat="13.871853" lon="-89.79341">
        <ele>1463.8369</ele>
        <time>2020-07-26T17:03:33Z</time>
      </trkpt>
      <trkpt lat="13.871839" lon="-89.79346">
        <ele>1463.5507</ele>
        <time>2020-07-26T17:03:36Z</time>
      </trkpt>
      <trkpt lat="13.871794" lon="-89.793495">
        <ele>1461.4308</ele>
        <time>2020-07-26T17:03:40Z</time>
      </trkpt>
      <trkpt lat="13.8717575" lon="-89.793526">
        <ele>1460.4111</ele>
        <time>2020-07-26T17:03:43Z</time>
      </trkpt>
      <trkpt lat="13.871738" lon="-89.79358">
        <ele>1459.6604</ele>
        <time>2020-07-26T17:03:46Z</time>
      </trkpt>
      <trkpt lat="13.8717165" lon="-89.79363">
        <ele>1458.935</ele>
        <time>2020-07-26T17:03:50Z</time>
      </trkpt>
      <trkpt lat="13.871712" lon="-89.793686">
        <ele>1458.9166</ele>
        <time>2020-07-26T17:03:53Z</time>
      </trkpt>
      <trkpt lat="13.871697" lon="-89.79373">
        <ele>1456.183</ele>
        <time>2020-07-26T17:03:56Z</time>
      </trkpt>
      <trkpt lat="13.87169" lon="-89.79378">
        <ele>1455.1989</ele>
        <time>2020-07-26T17:03:59Z</time>
      </trkpt>
      <trkpt lat="13.871699" lon="-89.79383">
        <ele>1454.2632</ele>
        <time>2020-07-26T17:04:02Z</time>
      </trkpt>
      <trkpt lat="13.871684" lon="-89.79388">
        <ele>1457.9482</ele>
        <time>2020-07-26T17:04:05Z</time>
      </trkpt>
      <trkpt lat="13.871668" lon="-89.79393">
        <ele>1458.8787</ele>
        <time>2020-07-26T17:04:09Z</time>
      </trkpt>
      <trkpt lat="13.871649" lon="-89.793976">
        <ele>1462.1355</ele>
        <time>2020-07-26T17:04:13Z</time>
      </trkpt>
      <trkpt lat="13.871606" lon="-89.79399">
        <ele>1465.3026</ele>
        <time>2020-07-26T17:04:15Z</time>
      </trkpt>
      <trkpt lat="13.871557" lon="-89.794014">
        <ele>1464.0546</ele>
        <time>2020-07-26T17:04:18Z</time>
      </trkpt>
      <trkpt lat="13.871544" lon="-89.79407">
        <ele>1465.1089</ele>
        <time>2020-07-26T17:04:23Z</time>
      </trkpt>
      <trkpt lat="13.871529" lon="-89.79412">
        <ele>1462.7827</ele>
        <time>2020-07-26T17:04:27Z</time>
      </trkpt>
      <trkpt lat="13.871523" lon="-89.794174">
        <ele>1463.4841</ele>
        <time>2020-07-26T17:04:32Z</time>
      </trkpt>
      <trkpt lat="13.87151" lon="-89.79422">
        <ele>1465.7314</ele>
        <time>2020-07-26T17:04:36Z</time>
      </trkpt>
      <trkpt lat="13.871521" lon="-89.79427">
        <ele>1469.1324</ele>
        <time>2020-07-26T17:04:40Z</time>
      </trkpt>
      <trkpt lat="13.871514" lon="-89.79432">
        <ele>1472.9</ele>
        <time>2020-07-26T17:04:43Z</time>
      </trkpt>
      <trkpt lat="13.871481" lon="-89.79436">
        <ele>1472.2946</ele>
        <time>2020-07-26T17:04:46Z</time>
      </trkpt>
      <trkpt lat="13.871449" lon="-89.79441">
        <ele>1474.5027</ele>
        <time>2020-07-26T17:04:50Z</time>
      </trkpt>
      <trkpt lat="13.871441" lon="-89.794464">
        <ele>1474.9036</ele>
        <time>2020-07-26T17:04:54Z</time>
      </trkpt>
      <trkpt lat="13.871466" lon="-89.79453">
        <ele>1476.9135</ele>
        <time>2020-07-26T17:04:57Z</time>
      </trkpt>
      <trkpt lat="13.871491" lon="-89.79458">
        <ele>1477.8594</ele>
        <time>2020-07-26T17:04:59Z</time>
      </trkpt>
      <trkpt lat="13.871507" lon="-89.794624">
        <ele>1478.221</ele>
        <time>2020-07-26T17:05:01Z</time>
      </trkpt>
      <trkpt lat="13.871526" lon="-89.79467">
        <ele>1477.7513</ele>
        <time>2020-07-26T17:05:03Z</time>
      </trkpt>
      <trkpt lat="13.871533" lon="-89.79472">
        <ele>1478.7787</ele>
        <time>2020-07-26T17:05:05Z</time>
      </trkpt>
      <trkpt lat="13.871516" lon="-89.79479">
        <ele>1478.3751</ele>
        <time>2020-07-26T17:05:09Z</time>
      </trkpt>
      <trkpt lat="13.871487" lon="-89.79484">
        <ele>1480.2976</ele>
        <time>2020-07-26T17:05:11Z</time>
      </trkpt>
      <trkpt lat="13.871466" lon="-89.79488">
        <ele>1480.8306</ele>
        <time>2020-07-26T17:05:13Z</time>
      </trkpt>
      <trkpt lat="13.871463" lon="-89.79495">
        <ele>1482.294</ele>
        <time>2020-07-26T17:05:16Z</time>
      </trkpt>
      <trkpt lat="13.871483" lon="-89.795">
        <ele>1481.9575</ele>
        <time>2020-07-26T17:05:18Z</time>
      </trkpt>
      <trkpt lat="13.871492" lon="-89.795044">
        <ele>1480.497</ele>
        <time>2020-07-26T17:05:20Z</time>
      </trkpt>
      <trkpt lat="13.87149" lon="-89.795105">
        <ele>1479.4586</ele>
        <time>2020-07-26T17:05:23Z</time>
      </trkpt>
      <trkpt lat="13.871498" lon="-89.795166">
        <ele>1477.4336</ele>
        <time>2020-07-26T17:05:26Z</time>
      </trkpt>
      <trkpt lat="13.871486" lon="-89.79521">
        <ele>1477.3123</ele>
        <time>2020-07-26T17:05:28Z</time>
      </trkpt>
      <trkpt lat="13.871491" lon="-89.79527">
        <ele>1481.2166</ele>
        <time>2020-07-26T17:05:31Z</time>
      </trkpt>
      <trkpt lat="13.871474" lon="-89.795334">
        <ele>1481.518</ele>
        <time>2020-07-26T17:05:34Z</time>
      </trkpt>
      <trkpt lat="13.871461" lon="-89.795395">
        <ele>1481.8002</ele>
        <time>2020-07-26T17:05:37Z</time>
      </trkpt>
      <trkpt lat="13.871465" lon="-89.795456">
        <ele>1481.7084</ele>
        <time>2020-07-26T17:05:40Z</time>
      </trkpt>
      <trkpt lat="13.871444" lon="-89.79551">
        <ele>1483.7106</ele>
        <time>2020-07-26T17:05:43Z</time>
      </trkpt>
      <trkpt lat="13.871459" lon="-89.79556">
        <ele>1485.7639</ele>
        <time>2020-07-26T17:05:46Z</time>
      </trkpt>
      <trkpt lat="13.871477" lon="-89.795616">
        <ele>1486.1106</ele>
        <time>2020-07-26T17:05:49Z</time>
      </trkpt>
      <trkpt lat="13.871445" lon="-89.79567">
        <ele>1486.2041</ele>
        <time>2020-07-26T17:05:52Z</time>
      </trkpt>
      <trkpt lat="13.871458" lon="-89.79573">
        <ele>1485.7043</ele>
        <time>2020-07-26T17:05:55Z</time>
      </trkpt>
      <trkpt lat="13.871512" lon="-89.79577">
        <ele>1485.9409</ele>
        <time>2020-07-26T17:05:58Z</time>
      </trkpt>
      <trkpt lat="13.871499" lon="-89.79584">
        <ele>1487.1594</ele>
        <time>2020-07-26T17:06:01Z</time>
      </trkpt>
      <trkpt lat="13.871474" lon="-89.79588">
        <ele>1488.614</ele>
        <time>2020-07-26T17:06:03Z</time>
      </trkpt>
      <trkpt lat="13.871446" lon="-89.79592">
        <ele>1490.2461</ele>
        <time>2020-07-26T17:06:06Z</time>
      </trkpt>
      <trkpt lat="13.871425" lon="-89.79597">
        <ele>1489.031</ele>
        <time>2020-07-26T17:06:10Z</time>
      </trkpt>
      <trkpt lat="13.871426" lon="-89.79602">
        <ele>1488.8408</ele>
        <time>2020-07-26T17:06:14Z</time>
      </trkpt>
      <trkpt lat="13.871393" lon="-89.79608">
        <ele>1491.5326</ele>
        <time>2020-07-26T17:06:18Z</time>
      </trkpt>
      <trkpt lat="13.871371" lon="-89.796135">
        <ele>1491.9236</ele>
        <time>2020-07-26T17:06:22Z</time>
      </trkpt>
      <trkpt lat="13.871361" lon="-89.79618">
        <ele>1491.8333</ele>
        <time>2020-07-26T17:06:25Z</time>
      </trkpt>
      <trkpt lat="13.871349" lon="-89.796234">
        <ele>1490.8069</ele>
        <time>2020-07-26T17:06:29Z</time>
      </trkpt>
      <trkpt lat="13.871343" lon="-89.79629">
        <ele>1491.284</ele>
        <time>2020-07-26T17:06:33Z</time>
      </trkpt>
      <trkpt lat="13.871325" lon="-89.79634">
        <ele>1491.6334</ele>
        <time>2020-07-26T17:06:37Z</time>
      </trkpt>
      <trkpt lat="13.871324" lon="-89.796394">
        <ele>1491.8643</ele>
        <time>2020-07-26T17:06:41Z</time>
      </trkpt>
      <trkpt lat="13.871326" lon="-89.796455">
        <ele>1490.5789</ele>
        <time>2020-07-26T17:06:45Z</time>
      </trkpt>
      <trkpt lat="13.87134" lon="-89.7965">
        <ele>1489.2626</ele>
        <time>2020-07-26T17:06:48Z</time>
      </trkpt>
      <trkpt lat="13.871363" lon="-89.79656">
        <ele>1488.9689</ele>
        <time>2020-07-26T17:06:51Z</time>
      </trkpt>
      <trkpt lat="13.871366" lon="-89.796616">
        <ele>1487.6885</ele>
        <time>2020-07-26T17:06:53Z</time>
      </trkpt>
      <trkpt lat="13.871363" lon="-89.79667">
        <ele>1486.6891</ele>
        <time>2020-07-26T17:06:55Z</time>
      </trkpt>
      <trkpt lat="13.871349" lon="-89.79672">
        <ele>1485.7751</ele>
        <time>2020-07-26T17:06:57Z</time>
      </trkpt>
      <trkpt lat="13.871339" lon="-89.79677">
        <ele>1486.4335</ele>
        <time>2020-07-26T17:06:59Z</time>
      </trkpt>
      <trkpt lat="13.871318" lon="-89.796814">
        <ele>1486.432</ele>
        <time>2020-07-26T17:07:01Z</time>
      </trkpt>
      <trkpt lat="13.8712845" lon="-89.79687">
        <ele>1484.6737</ele>
        <time>2020-07-26T17:07:04Z</time>
      </trkpt>
      <trkpt lat="13.871243" lon="-89.79692">
        <ele>1483.4131</ele>
        <time>2020-07-26T17:07:07Z</time>
      </trkpt>
      <trkpt lat="13.871187" lon="-89.79692">
        <ele>1481.1533</ele>
        <time>2020-07-26T17:07:09Z</time>
      </trkpt>
      <trkpt lat="13.87113" lon="-89.79689">
        <ele>1480.0294</ele>
        <time>2020-07-26T17:07:11Z</time>
      </trkpt>
      <trkpt lat="13.871083" lon="-89.79685">
        <ele>1481.0206</ele>
        <time>2020-07-26T17:07:13Z</time>
      </trkpt>
      <trkpt lat="13.87104" lon="-89.79681">
        <ele>1484.5612</ele>
        <time>2020-07-26T17:07:15Z</time>
      </trkpt>
      <trkpt lat="13.870996" lon="-89.79677">
        <ele>1486.688</ele>
        <time>2020-07-26T17:07:17Z</time>
      </trkpt>
      <trkpt lat="13.8709545" lon="-89.79673">
        <ele>1489.5979</ele>
        <time>2020-07-26T17:07:19Z</time>
      </trkpt>
      <trkpt lat="13.870925" lon="-89.79668">
        <ele>1490.4675</ele>
        <time>2020-07-26T17:07:21Z</time>
      </trkpt>
      <trkpt lat="13.87089" lon="-89.79664">
        <ele>1489.6718</ele>
        <time>2020-07-26T17:07:23Z</time>
      </trkpt>
      <trkpt lat="13.870844" lon="-89.79662">
        <ele>1489.9478</ele>
        <time>2020-07-26T17:07:25Z</time>
      </trkpt>
      <trkpt lat="13.870797" lon="-89.796616">
        <ele>1490.6672</ele>
        <time>2020-07-26T17:07:27Z</time>
      </trkpt>
      <trkpt lat="13.870751" lon="-89.796616">
        <ele>1490.2882</ele>
        <time>2020-07-26T17:07:29Z</time>
      </trkpt>
      <trkpt lat="13.870705" lon="-89.796616">
        <ele>1489.0127</ele>
        <time>2020-07-26T17:07:31Z</time>
      </trkpt>
      <trkpt lat="13.87066" lon="-89.79662">
        <ele>1488.1683</ele>
        <time>2020-07-26T17:07:33Z</time>
      </trkpt>
      <trkpt lat="13.870605" lon="-89.796646">
        <ele>1484.4661</ele>
        <time>2020-07-26T17:07:36Z</time>
      </trkpt>
      <trkpt lat="13.87057" lon="-89.7967">
        <ele>1484.2137</ele>
        <time>2020-07-26T17:07:39Z</time>
      </trkpt>
      <trkpt lat="13.870524" lon="-89.796715">
        <ele>1481.8994</ele>
        <time>2020-07-26T17:07:41Z</time>
      </trkpt>
      <trkpt lat="13.870476" lon="-89.79672">
        <ele>1482.1271</ele>
        <time>2020-07-26T17:07:43Z</time>
      </trkpt>
      <trkpt lat="13.870427" lon="-89.79673">
        <ele>1482.4742</ele>
        <time>2020-07-26T17:07:45Z</time>
      </trkpt>
      <trkpt lat="13.870381" lon="-89.79677">
        <ele>1483.9686</ele>
        <time>2020-07-26T17:07:48Z</time>
      </trkpt>
      <trkpt lat="13.870329" lon="-89.796814">
        <ele>1484.6285</ele>
        <time>2020-07-26T17:07:51Z</time>
      </trkpt>
      <trkpt lat="13.8702755" lon="-89.796814">
        <ele>1484.665</ele>
        <time>2020-07-26T17:07:53Z</time>
      </trkpt>
      <trkpt lat="13.870224" lon="-89.796814">
        <ele>1484.7747</ele>
        <time>2020-07-26T17:07:55Z</time>
      </trkpt>
      <trkpt lat="13.870186" lon="-89.796844">
        <ele>1484.0471</ele>
        <time>2020-07-26T17:07:57Z</time>
      </trkpt>
      <trkpt lat="13.870128" lon="-89.796875">
        <ele>1479.8977</ele>
        <time>2020-07-26T17:08:00Z</time>
      </trkpt>
      <trkpt lat="13.87008" lon="-89.79688">
        <ele>1478.3531</ele>
        <time>2020-07-26T17:08:02Z</time>
      </trkpt>
      <trkpt lat="13.870033" lon="-89.79689">
        <ele>1477.1978</ele>
        <time>2020-07-26T17:08:04Z</time>
      </trkpt>
      <trkpt lat="13.869982" lon="-89.796875">
        <ele>1475.0327</ele>
        <time>2020-07-26T17:08:06Z</time>
      </trkpt>
      <trkpt lat="13.869931" lon="-89.796844">
        <ele>1474.0239</ele>
        <time>2020-07-26T17:08:08Z</time>
      </trkpt>
      <trkpt lat="13.869877" lon="-89.79682">
        <ele>1473.9412</ele>
        <time>2020-07-26T17:08:10Z</time>
      </trkpt>
      <trkpt lat="13.869817" lon="-89.79682">
        <ele>1473.6031</ele>
        <time>2020-07-26T17:08:12Z</time>
      </trkpt>
      <trkpt lat="13.869755" lon="-89.796814">
        <ele>1473.5135</ele>
        <time>2020-07-26T17:08:14Z</time>
      </trkpt>
      <trkpt lat="13.869698" lon="-89.79682">
        <ele>1471.3002</ele>
        <time>2020-07-26T17:08:16Z</time>
      </trkpt>
      <trkpt lat="13.869643" lon="-89.796814">
        <ele>1471.4458</ele>
        <time>2020-07-26T17:08:18Z</time>
      </trkpt>
      <trkpt lat="13.869592" lon="-89.79682">
        <ele>1472.4337</ele>
        <time>2020-07-26T17:08:20Z</time>
      </trkpt>
      <trkpt lat="13.869539" lon="-89.79684">
        <ele>1472.0266</ele>
        <time>2020-07-26T17:08:22Z</time>
      </trkpt>
      <trkpt lat="13.869497" lon="-89.79687">
        <ele>1471.847</ele>
        <time>2020-07-26T17:08:24Z</time>
      </trkpt>
      <trkpt lat="13.86946" lon="-89.79691">
        <ele>1472.3553</ele>
        <time>2020-07-26T17:08:26Z</time>
      </trkpt>
      <trkpt lat="13.869418" lon="-89.79694">
        <ele>1473.0972</ele>
        <time>2020-07-26T17:08:28Z</time>
      </trkpt>
      <trkpt lat="13.86938" lon="-89.79698">
        <ele>1473.8405</ele>
        <time>2020-07-26T17:08:30Z</time>
      </trkpt>
      <trkpt lat="13.86936" lon="-89.797035">
        <ele>1473.8168</ele>
        <time>2020-07-26T17:08:32Z</time>
      </trkpt>
      <trkpt lat="13.869346" lon="-89.7971">
        <ele>1471.0704</ele>
        <time>2020-07-26T17:08:34Z</time>
      </trkpt>
      <trkpt lat="13.869315" lon="-89.797134">
        <ele>1470.6923</ele>
        <time>2020-07-26T17:08:36Z</time>
      </trkpt>
      <trkpt lat="13.869274" lon="-89.79717">
        <ele>1469.6694</ele>
        <time>2020-07-26T17:08:38Z</time>
      </trkpt>
      <trkpt lat="13.869245" lon="-89.79722">
        <ele>1469.1815</ele>
        <time>2020-07-26T17:08:40Z</time>
      </trkpt>
      <trkpt lat="13.869214" lon="-89.79726">
        <ele>1467.238</ele>
        <time>2020-07-26T17:08:42Z</time>
      </trkpt>
      <trkpt lat="13.869175" lon="-89.797295">
        <ele>1465.5312</ele>
        <time>2020-07-26T17:08:44Z</time>
      </trkpt>
      <trkpt lat="13.869128" lon="-89.797325">
        <ele>1464.9385</ele>
        <time>2020-07-26T17:08:46Z</time>
      </trkpt>
      <trkpt lat="13.86909" lon="-89.79736">
        <ele>1465.4722</ele>
        <time>2020-07-26T17:08:48Z</time>
      </trkpt>
      <trkpt lat="13.869047" lon="-89.79739">
        <ele>1464.7416</ele>
        <time>2020-07-26T17:08:50Z</time>
      </trkpt>
      <trkpt lat="13.869013" lon="-89.79744">
        <ele>1464.3975</ele>
        <time>2020-07-26T17:08:52Z</time>
      </trkpt>
      <trkpt lat="13.868976" lon="-89.79748">
        <ele>1463.6725</ele>
        <time>2020-07-26T17:08:54Z</time>
      </trkpt>
      <trkpt lat="13.868929" lon="-89.79751">
        <ele>1464.7233</ele>
        <time>2020-07-26T17:08:56Z</time>
      </trkpt>
      <trkpt lat="13.868884" lon="-89.79754">
        <ele>1464.7184</ele>
        <time>2020-07-26T17:08:58Z</time>
      </trkpt>
      <trkpt lat="13.868834" lon="-89.79756">
        <ele>1463.8053</ele>
        <time>2020-07-26T17:09:00Z</time>
      </trkpt>
      <trkpt lat="13.868786" lon="-89.79759">
        <ele>1464.3029</ele>
        <time>2020-07-26T17:09:02Z</time>
      </trkpt>
      <trkpt lat="13.868743" lon="-89.79762">
        <ele>1462.7397</ele>
        <time>2020-07-26T17:09:04Z</time>
      </trkpt>
      <trkpt lat="13.868693" lon="-89.79765">
        <ele>1459.6647</ele>
        <time>2020-07-26T17:09:06Z</time>
      </trkpt>
      <trkpt lat="13.868645" lon="-89.79768">
        <ele>1459.9436</ele>
        <time>2020-07-26T17:09:08Z</time>
      </trkpt>
      <trkpt lat="13.868596" lon="-89.79771">
        <ele>1459.505</ele>
        <time>2020-07-26T17:09:10Z</time>
      </trkpt>
      <trkpt lat="13.868551" lon="-89.79774">
        <ele>1460.0511</ele>
        <time>2020-07-26T17:09:12Z</time>
      </trkpt>
      <trkpt lat="13.868507" lon="-89.79777">
        <ele>1459.7589</ele>
        <time>2020-07-26T17:09:14Z</time>
      </trkpt>
      <trkpt lat="13.868461" lon="-89.7978">
        <ele>1458.9869</ele>
        <time>2020-07-26T17:09:16Z</time>
      </trkpt>
      <trkpt lat="13.868414" lon="-89.79783">
        <ele>1459.5736</ele>
        <time>2020-07-26T17:09:18Z</time>
      </trkpt>
      <trkpt lat="13.868378" lon="-89.79787">
        <ele>1460.5288</ele>
        <time>2020-07-26T17:09:20Z</time>
      </trkpt>
      <trkpt lat="13.868333" lon="-89.79788">
        <ele>1460.7855</ele>
        <time>2020-07-26T17:09:22Z</time>
      </trkpt>
      <trkpt lat="13.868283" lon="-89.79789">
        <ele>1460.7705</ele>
        <time>2020-07-26T17:09:24Z</time>
      </trkpt>
      <trkpt lat="13.86823" lon="-89.797905">
        <ele>1460.6396</ele>
        <time>2020-07-26T17:09:26Z</time>
      </trkpt>
      <trkpt lat="13.868178" lon="-89.79792">
        <ele>1460.6074</ele>
        <time>2020-07-26T17:09:28Z</time>
      </trkpt>
      <trkpt lat="13.868121" lon="-89.797935">
        <ele>1460.0189</ele>
        <time>2020-07-26T17:09:30Z</time>
      </trkpt>
      <trkpt lat="13.86806" lon="-89.79794">
        <ele>1458.0332</ele>
        <time>2020-07-26T17:09:32Z</time>
      </trkpt>
      <trkpt lat="13.868004" lon="-89.79795">
        <ele>1457.2854</ele>
        <time>2020-07-26T17:09:34Z</time>
      </trkpt>
      <trkpt lat="13.86795" lon="-89.797966">
        <ele>1457.2893</ele>
        <time>2020-07-26T17:09:36Z</time>
      </trkpt>
      <trkpt lat="13.867899" lon="-89.79797">
        <ele>1455.9283</ele>
        <time>2020-07-26T17:09:38Z</time>
      </trkpt>
      <trkpt lat="13.867844" lon="-89.79798">
        <ele>1455.8441</ele>
        <time>2020-07-26T17:09:40Z</time>
      </trkpt>
      <trkpt lat="13.86779" lon="-89.79799">
        <ele>1457.0636</ele>
        <time>2020-07-26T17:09:42Z</time>
      </trkpt>
      <trkpt lat="13.867739" lon="-89.798">
        <ele>1457.5718</ele>
        <time>2020-07-26T17:09:44Z</time>
      </trkpt>
      <trkpt lat="13.867689" lon="-89.798004">
        <ele>1456.123</ele>
        <time>2020-07-26T17:09:46Z</time>
      </trkpt>
      <trkpt lat="13.8676405" lon="-89.79802">
        <ele>1457.529</ele>
        <time>2020-07-26T17:09:48Z</time>
      </trkpt>
      <trkpt lat="13.867586" lon="-89.79803">
        <ele>1458.947</ele>
        <time>2020-07-26T17:09:50Z</time>
      </trkpt>
      <trkpt lat="13.867531" lon="-89.79804">
        <ele>1456.943</ele>
        <time>2020-07-26T17:09:52Z</time>
      </trkpt>
      <trkpt lat="13.867481" lon="-89.79806">
        <ele>1455.7998</ele>
        <time>2020-07-26T17:09:54Z</time>
      </trkpt>
      <trkpt lat="13.867447" lon="-89.79809">
        <ele>1456.8008</ele>
        <time>2020-07-26T17:09:56Z</time>
      </trkpt>
      <trkpt lat="13.867407" lon="-89.79811">
        <ele>1458.0714</ele>
        <time>2020-07-26T17:09:58Z</time>
      </trkpt>
      <trkpt lat="13.867365" lon="-89.798134">
        <ele>1458.2048</ele>
        <time>2020-07-26T17:10:00Z</time>
      </trkpt>
      <trkpt lat="13.867331" lon="-89.798164">
        <ele>1458.342</ele>
        <time>2020-07-26T17:10:02Z</time>
      </trkpt>
      <trkpt lat="13.867299" lon="-89.7982">
        <ele>1458.0415</ele>
        <time>2020-07-26T17:10:04Z</time>
      </trkpt>
      <trkpt lat="13.867254" lon="-89.79822">
        <ele>1459.1339</ele>
        <time>2020-07-26T17:10:06Z</time>
      </trkpt>
      <trkpt lat="13.867205" lon="-89.79823">
        <ele>1459.1543</ele>
        <time>2020-07-26T17:10:08Z</time>
      </trkpt>
      <trkpt lat="13.867168" lon="-89.79826">
        <ele>1459.0514</ele>
        <time>2020-07-26T17:10:10Z</time>
      </trkpt>
      <trkpt lat="13.867126" lon="-89.798294">
        <ele>1461.7408</ele>
        <time>2020-07-26T17:10:12Z</time>
      </trkpt>
      <trkpt lat="13.867078" lon="-89.79832">
        <ele>1462.1085</ele>
        <time>2020-07-26T17:10:14Z</time>
      </trkpt>
      <trkpt lat="13.867026" lon="-89.79833">
        <ele>1461.3044</ele>
        <time>2020-07-26T17:10:16Z</time>
      </trkpt>
      <trkpt lat="13.866975" lon="-89.79834">
        <ele>1460.8691</ele>
        <time>2020-07-26T17:10:18Z</time>
      </trkpt>
      <trkpt lat="13.866931" lon="-89.79836">
        <ele>1459.7861</ele>
        <time>2020-07-26T17:10:20Z</time>
      </trkpt>
      <trkpt lat="13.866885" lon="-89.798386">
        <ele>1460.8851</ele>
        <time>2020-07-26T17:10:22Z</time>
      </trkpt>
      <trkpt lat="13.866848" lon="-89.798416">
        <ele>1459.9186</ele>
        <time>2020-07-26T17:10:24Z</time>
      </trkpt>
      <trkpt lat="13.8668165" lon="-89.798454">
        <ele>1460.0438</ele>
        <time>2020-07-26T17:10:26Z</time>
      </trkpt>
      <trkpt lat="13.866775" lon="-89.798485">
        <ele>1460.4672</ele>
        <time>2020-07-26T17:10:28Z</time>
      </trkpt>
      <trkpt lat="13.866732" lon="-89.79851">
        <ele>1459.6804</ele>
        <time>2020-07-26T17:10:30Z</time>
      </trkpt>
      <trkpt lat="13.866684" lon="-89.79853">
        <ele>1459.4324</ele>
        <time>2020-07-26T17:10:32Z</time>
      </trkpt>
      <trkpt lat="13.866644" lon="-89.79855">
        <ele>1458.0144</ele>
        <time>2020-07-26T17:10:34Z</time>
      </trkpt>
      <trkpt lat="13.866616" lon="-89.79859">
        <ele>1457.7852</ele>
        <time>2020-07-26T17:10:36Z</time>
      </trkpt>
      <trkpt lat="13.866578" lon="-89.79863">
        <ele>1455.8586</ele>
        <time>2020-07-26T17:10:38Z</time>
      </trkpt>
      <trkpt lat="13.866537" lon="-89.79867">
        <ele>1455.8163</ele>
        <time>2020-07-26T17:10:40Z</time>
      </trkpt>
      <trkpt lat="13.866493" lon="-89.7987">
        <ele>1456.945</ele>
        <time>2020-07-26T17:10:42Z</time>
      </trkpt>
      <trkpt lat="13.86645" lon="-89.79873">
        <ele>1455.6394</ele>
        <time>2020-07-26T17:10:44Z</time>
      </trkpt>
      <trkpt lat="13.866407" lon="-89.79876">
        <ele>1455.2607</ele>
        <time>2020-07-26T17:10:46Z</time>
      </trkpt>
      <trkpt lat="13.866362" lon="-89.79878">
        <ele>1455.8091</ele>
        <time>2020-07-26T17:10:48Z</time>
      </trkpt>
      <trkpt lat="13.866313" lon="-89.798805">
        <ele>1454.2588</ele>
        <time>2020-07-26T17:10:50Z</time>
      </trkpt>
      <trkpt lat="13.866265" lon="-89.79883">
        <ele>1454.1362</ele>
        <time>2020-07-26T17:10:52Z</time>
      </trkpt>
      <trkpt lat="13.866217" lon="-89.79884">
        <ele>1453.1172</ele>
        <time>2020-07-26T17:10:54Z</time>
      </trkpt>
      <trkpt lat="13.866177" lon="-89.79887">
        <ele>1452.9913</ele>
        <time>2020-07-26T17:10:56Z</time>
      </trkpt>
      <trkpt lat="13.866142" lon="-89.7989">
        <ele>1452.3578</ele>
        <time>2020-07-26T17:10:58Z</time>
      </trkpt>
      <trkpt lat="13.8661" lon="-89.79892">
        <ele>1450.4983</ele>
        <time>2020-07-26T17:11:00Z</time>
      </trkpt>
      <trkpt lat="13.866063" lon="-89.79895">
        <ele>1453.2156</ele>
        <time>2020-07-26T17:11:02Z</time>
      </trkpt>
      <trkpt lat="13.8660345" lon="-89.79899">
        <ele>1453.5605</ele>
        <time>2020-07-26T17:11:04Z</time>
      </trkpt>
      <trkpt lat="13.866006" lon="-89.79905">
        <ele>1452.2235</ele>
        <time>2020-07-26T17:11:07Z</time>
      </trkpt>
      <trkpt lat="13.86597" lon="-89.79908">
        <ele>1452.4802</ele>
        <time>2020-07-26T17:11:09Z</time>
      </trkpt>
      <trkpt lat="13.865927" lon="-89.7991">
        <ele>1451.4156</ele>
        <time>2020-07-26T17:11:11Z</time>
      </trkpt>
      <trkpt lat="13.865887" lon="-89.799126">
        <ele>1450.4528</ele>
        <time>2020-07-26T17:11:13Z</time>
      </trkpt>
      <trkpt lat="13.865844" lon="-89.79915">
        <ele>1449.668</ele>
        <time>2020-07-26T17:11:15Z</time>
      </trkpt>
      <trkpt lat="13.865782" lon="-89.799194">
        <ele>1447.189</ele>
        <time>2020-07-26T17:11:18Z</time>
      </trkpt>
      <trkpt lat="13.865751" lon="-89.79923">
        <ele>1446.4509</ele>
        <time>2020-07-26T17:11:20Z</time>
      </trkpt>
      <trkpt lat="13.865714" lon="-89.79926">
        <ele>1447.923</ele>
        <time>2020-07-26T17:11:22Z</time>
      </trkpt>
      <trkpt lat="13.865674" lon="-89.79928">
        <ele>1447.3094</ele>
        <time>2020-07-26T17:11:24Z</time>
      </trkpt>
      <trkpt lat="13.865674" lon="-89.79928">
        <ele>1447.3094</ele>
        <time>2020-07-26T17:11:24Z</time>
      </trkpt>
    </trkseg>
  </trk>
</gpx>
